Wetterdaten: Mittwoch, 16.01.2019
Datum Zeit Temp. A. Pool Temp. Temp. 5cm Feuchte A. Luftdruck Regen Wind Richtung Richtung Sonnenschein ET UV Solar Taupunkt Windchill Windben Empfang
16.01.2019 00:00 3,7 C 3,3 C 3,3 C 74 % 1017,9 hPa 0,0 l/m 26,8 km/h (4 Bft) SW 236 0 min 0,000 mm 0,0 UV-I 0 W/m -0,5 C -7,3 C 40,2 km/h (6 Bft) 100,00 %
16.01.2019 00:02 3,7 C 3,3 C 3,3 C 74 % 1017,9 hPa 0,0 l/m 24,1 km/h (4 Bft) W-SW 246 0 min 0,000 mm 0,0 UV-I 0 W/m -0,5 C -6,4 C 24,1 km/h (4 Bft) 100,00 %
16.01.2019 00:04 3,7 C 3,3 C 3,3 C 74 % 1017,9 hPa 0,0 l/m 24,9 km/h (4 Bft) W-SW 252 0 min 0,000 mm 0,0 UV-I 0 W/m -0,5 C -6,7 C 40,2 km/h (6 Bft) 100,00 %
16.01.2019 00:06 3,7 C 3,3 C 3,3 C 74 % 1017,8 hPa 0,0 l/m 27,5 km/h (4 Bft) SW 227 0 min 0,000 mm 0,0 UV-I 0 W/m -0,5 C -7,5 C 40,2 km/h (6 Bft) 100,00 %
16.01.2019 00:08 3,8 C 3,3 C 3,3 C 73 % 1017,9 hPa 0,0 l/m 24,6 km/h (4 Bft) W-SW 242 0 min 0,000 mm 0,0 UV-I 0 W/m -0,6 C -6,4 C 35,4 km/h (5 Bft) 97,87 %
16.01.2019 00:10 3,8 C 3,3 C 3,3 C 74 % 1017,8 hPa 0,0 l/m 26,3 km/h (4 Bft) W-NW 283 0 min 0,000 mm 0,0 UV-I 0 W/m -0,4 C -7,0 C 37,0 km/h (5 Bft) 97,87 %
16.01.2019 00:12 3,8 C 3,3 C 3,3 C 74 % 1017,9 hPa 0,0 l/m 23,7 km/h (4 Bft) W 267 0 min 0,000 mm 0,0 UV-I 0 W/m -0,4 C -6,1 C 35,4 km/h (5 Bft) 100,00 %
16.01.2019 00:14 3,7 C 3,3 C 3,3 C 74 % 1017,7 hPa 0,0 l/m 24,5 km/h (4 Bft) SW 232 0 min 0,000 mm 0,0 UV-I 0 W/m -0,5 C -6,5 C 37,0 km/h (5 Bft) 97,87 %
16.01.2019 00:16 3,7 C 3,3 C 3,3 C 74 % 1017,8 hPa 0,0 l/m 23,5 km/h (4 Bft) W 259 0 min 0,000 mm 0,0 UV-I 0 W/m -0,5 C -6,2 C 35,4 km/h (5 Bft) 94,29 %
16.01.2019 00:18 3,7 C 3,3 C 3,3 C 74 % 1017,8 hPa 0,0 l/m 27,9 km/h (4 Bft) W 281 0 min 0,000 mm 0,0 UV-I 0 W/m -0,5 C -7,6 C 41,8 km/h (6 Bft) 98,00 %
16.01.2019 00:20 3,7 C 3,3 C 3,3 C 74 % 1017,8 hPa 0,0 l/m 25,8 km/h (4 Bft) W-SW 251 0 min 0,000 mm 0,0 UV-I 0 W/m -0,5 C -7,0 C 43,5 km/h (6 Bft) 100,00 %
16.01.2019 00:22 3,7 C 3,3 C 3,3 C 74 % 1017,8 hPa 0,0 l/m 23,1 km/h (4 Bft) SW 226 0 min 0,000 mm 0,0 UV-I 0 W/m -0,5 C -6,0 C 38,6 km/h (5 Bft) 97,87 %
16.01.2019 00:24 3,7 C 3,3 C 3,3 C 74 % 1017,8 hPa 0,0 l/m 26,6 km/h (4 Bft) SW 227 0 min 0,000 mm 0,0 UV-I 0 W/m -0,5 C -7,2 C 40,2 km/h (6 Bft) 97,87 %
16.01.2019 00:26 3,8 C 3,3 C 3,3 C 74 % 1017,8 hPa 0,0 l/m 26,3 km/h (4 Bft) W 271 0 min 0,000 mm 0,0 UV-I 0 W/m -0,4 C -7,0 C 40,2 km/h (6 Bft) 95,83 %
16.01.2019 00:28 3,8 C 3,3 C 3,3 C 74 % 1017,8 hPa 0,0 l/m 28,7 km/h (4 Bft) W-SW 238 0 min 0,000 mm 0,0 UV-I 0 W/m -0,4 C -7,7 C 49,9 km/h (6 Bft) 97,87 %
16.01.2019 00:30 3,8 C 3,3 C 3,3 C 74 % 1017,9 hPa 0,0 l/m 26,7 km/h (4 Bft) W 269 0 min 0,000 mm 0,0 UV-I 0 W/m -0,4 C -7,1 C 37,0 km/h (5 Bft) 97,87 %
16.01.2019 00:32 3,8 C 3,3 C 3,3 C 74 % 1017,9 hPa 0,0 l/m 22,4 km/h (4 Bft) SW 217 0 min 0,000 mm 0,0 UV-I 0 W/m -0,4 C -5,7 C 35,4 km/h (5 Bft) 95,74 %
16.01.2019 00:34 3,8 C 3,3 C 3,3 C 74 % 1017,9 hPa 0,0 l/m 23,5 km/h (4 Bft) W-SW 238 0 min 0,000 mm 0,0 UV-I 0 W/m -0,4 C -6,1 C 32,2 km/h (5 Bft) 98,00 %
16.01.2019 00:36 3,8 C 3,3 C 3,3 C 74 % 1017,8 hPa 0,0 l/m 22,5 km/h (4 Bft) W-SW 244 0 min 0,000 mm 0,0 UV-I 0 W/m -0,4 C -5,7 C 38,6 km/h (5 Bft) 97,87 %
16.01.2019 00:38 3,8 C 3,3 C 3,3 C 74 % 1017,8 hPa 0,0 l/m 22,6 km/h (4 Bft) SW 229 0 min 0,000 mm 0,0 UV-I 0 W/m -0,4 C -5,7 C 30,6 km/h (5 Bft) 97,87 %
16.01.2019 00:40 3,8 C 3,3 C 3,3 C 74 % 1017,8 hPa 0,0 l/m 22,6 km/h (4 Bft) SW 227 0 min 0,000 mm 0,0 UV-I 0 W/m -0,4 C -5,7 C 30,6 km/h (5 Bft) 94,74 %
16.01.2019 00:42 3,8 C 3,3 C 3,3 C 74 % 1017,9 hPa 0,0 l/m 22,1 km/h (4 Bft) W-SW 238 0 min 0,000 mm 0,0 UV-I 0 W/m -0,4 C -5,5 C 32,2 km/h (5 Bft) 95,74 %
16.01.2019 00:44 3,8 C 3,3 C 3,3 C 74 % 1017,8 hPa 0,0 l/m 21,8 km/h (4 Bft) W-SW 252 0 min 0,000 mm 0,0 UV-I 0 W/m -0,4 C -5,4 C 32,2 km/h (5 Bft) 94,00 %
16.01.2019 00:46 3,7 C 3,3 C 3,3 C 74 % 1017,9 hPa 0,0 l/m 22,2 km/h (4 Bft) SW 220 0 min 0,000 mm 0,0 UV-I 0 W/m -0,5 C -5,7 C 37,0 km/h (5 Bft) 93,62 %
16.01.2019 00:48 3,8 C 3,3 C 3,3 C 74 % 1017,9 hPa 0,0 l/m 27,6 km/h (4 Bft) W-SW 240 0 min 0,000 mm 0,0 UV-I 0 W/m -0,4 C -7,4 C 53,1 km/h (7 Bft) 92,45 %
16.01.2019 00:50 3,8 C 3,3 C 3,3 C 73 % 1017,9 hPa 0,0 l/m 25,8 km/h (4 Bft) W 273 0 min 0,000 mm 0,0 UV-I 0 W/m -0,6 C -6,8 C 43,5 km/h (6 Bft) 95,74 %
16.01.2019 00:52 3,8 C 3,3 C 3,3 C 73 % 1017,9 hPa 0,0 l/m 28,6 km/h (4 Bft) W 261 0 min 0,000 mm 0,0 UV-I 0 W/m -0,6 C -7,7 C 40,2 km/h (6 Bft) 95,74 %
16.01.2019 00:54 3,8 C 3,3 C 3,3 C 73 % 1017,8 hPa 0,0 l/m 24,2 km/h (4 Bft) SW 236 0 min 0,000 mm 0,0 UV-I 0 W/m -0,6 C -6,3 C 37,0 km/h (5 Bft) 97,87 %
16.01.2019 00:56 3,8 C 3,3 C 3,3 C 73 % 1017,8 hPa 0,0 l/m 21,1 km/h (4 Bft) W 263 0 min 0,000 mm 0,0 UV-I 0 W/m -0,6 C -5,2 C 33,8 km/h (5 Bft) 97,87 %
16.01.2019 00:58 3,8 C 3,3 C 3,3 C 73 % 1017,8 hPa 0,0 l/m 27,3 km/h (4 Bft) SW 232 0 min 0,000 mm 0,0 UV-I 0 W/m -0,6 C -7,3 C 37,0 km/h (5 Bft) 97,14 %
16.01.2019 01:00 3,8 C 3,3 C 3,3 C 73 % 1017,8 hPa 0,0 l/m 20,3 km/h (4 Bft) W 274 0 min 0,051 mm 0,0 UV-I 0 W/m -0,6 C -4,8 C 29,0 km/h (5 Bft) 97,87 %
16.01.2019 01:02 3,8 C 3,3 C 3,3 C 73 % 1017,8 hPa 0,0 l/m 20,5 km/h (4 Bft) W-SW 254 0 min 0,000 mm 0,0 UV-I 0 W/m -0,6 C -4,9 C 29,0 km/h (5 Bft) 98,00 %
16.01.2019 01:04 3,8 C 3,3 C 3,3 C 73 % 1017,7 hPa 0,0 l/m 22,0 km/h (4 Bft) SW 230 0 min 0,000 mm 0,0 UV-I 0 W/m -0,6 C -5,5 C 35,4 km/h (5 Bft) 97,92 %
16.01.2019 01:06 3,8 C 3,3 C 3,3 C 73 % 1017,8 hPa 0,0 l/m 20,0 km/h (4 Bft) W 281 0 min 0,000 mm 0,0 UV-I 0 W/m -0,6 C -4,7 C 30,6 km/h (5 Bft) 97,87 %
16.01.2019 01:08 3,8 C 3,3 C 3,3 C 73 % 1017,7 hPa 0,0 l/m 24,4 km/h (4 Bft) W-SW 258 0 min 0,000 mm 0,0 UV-I 0 W/m -0,6 C -6,4 C 33,8 km/h (5 Bft) 91,49 %
16.01.2019 01:10 3,8 C 3,3 C 3,3 C 73 % 1017,7 hPa 0,0 l/m 26,6 km/h (4 Bft) W-SW 241 0 min 0,000 mm 0,0 UV-I 0 W/m -0,6 C -7,1 C 35,4 km/h (5 Bft) 97,87 %
16.01.2019 01:12 3,8 C 3,3 C 3,3 C 73 % 1017,7 hPa 0,0 l/m 20,0 km/h (4 Bft) SW 217 0 min 0,000 mm 0,0 UV-I 0 W/m -0,6 C -4,7 C 29,0 km/h (5 Bft) 98,00 %
16.01.2019 01:14 3,8 C 3,3 C 3,3 C 73 % 1017,7 hPa 0,0 l/m 25,7 km/h (4 Bft) W-SW 245 0 min 0,000 mm 0,0 UV-I 0 W/m -0,6 C -6,8 C 41,8 km/h (6 Bft) 100,00 %
16.01.2019 01:16 3,8 C 3,3 C 3,3 C 73 % 1017,7 hPa 0,0 l/m 18,1 km/h (3 Bft) W-SW 240 0 min 0,000 mm 0,0 UV-I 0 W/m -0,6 C -3,9 C 27,4 km/h (4 Bft) 100,00 %
16.01.2019 01:18 3,8 C 3,3 C 3,3 C 73 % 1017,7 hPa 0,0 l/m 25,4 km/h (4 Bft) SW 236 0 min 0,000 mm 0,0 UV-I 0 W/m -0,6 C -6,7 C 38,6 km/h (5 Bft) 97,87 %
16.01.2019 01:20 3,8 C 3,3 C 3,3 C 73 % 1017,7 hPa 0,0 l/m 21,7 km/h (4 Bft) SW 229 0 min 0,000 mm 0,0 UV-I 0 W/m -0,6 C -5,4 C 37,0 km/h (5 Bft) 100,00 %
16.01.2019 01:22 3,8 C 3,3 C 3,3 C 73 % 1017,7 hPa 0,0 l/m 20,5 km/h (4 Bft) W 265 0 min 0,000 mm 0,0 UV-I 0 W/m -0,6 C -4,9 C 30,6 km/h (5 Bft) 97,87 %
16.01.2019 01:24 3,8 C 3,3 C 3,3 C 74 % 1017,6 hPa 0,0 l/m 16,3 km/h (3 Bft) W-SW 257 0 min 0,000 mm 0,0 UV-I 0 W/m -0,4 C -3,0 C 25,7 km/h (4 Bft) 100,00 %
16.01.2019 01:26 3,8 C 3,3 C 3,3 C 74 % 1017,7 hPa 0,0 l/m 20,5 km/h (4 Bft) W-SW 244 0 min 0,000 mm 0,0 UV-I 0 W/m -0,4 C -4,9 C 37,0 km/h (5 Bft) 97,87 %
16.01.2019 01:28 3,8 C 3,3 C 3,3 C 74 % 1017,6 hPa 0,0 l/m 23,0 km/h (4 Bft) W 266 0 min 0,000 mm 0,0 UV-I 0 W/m -0,4 C -5,9 C 32,2 km/h (5 Bft) 97,87 %
16.01.2019 01:30 3,8 C 3,3 C 3,3 C 74 % 1017,6 hPa 0,0 l/m 23,0 km/h (4 Bft) W-SW 257 0 min 0,000 mm 0,0 UV-I 0 W/m -0,4 C -5,9 C 41,8 km/h (6 Bft) 100,00 %
16.01.2019 01:32 3,8 C 3,3 C 3,3 C 74 % 1017,6 hPa 0,0 l/m 25,6 km/h (4 Bft) W 274 0 min 0,000 mm 0,0 UV-I 0 W/m -0,4 C -6,8 C 40,2 km/h (6 Bft) 100,00 %
16.01.2019 01:34 3,8 C 3,3 C 3,3 C 74 % 1017,6 hPa 0,0 l/m 23,9 km/h (4 Bft) W-SW 239 0 min 0,000 mm 0,0 UV-I 0 W/m -0,4 C -6,2 C 30,6 km/h (5 Bft) 97,87 %
16.01.2019 01:36 3,8 C 3,3 C 3,3 C 74 % 1017,7 hPa 0,0 l/m 18,6 km/h (3 Bft) S-SW 205 0 min 0,000 mm 0,0 UV-I 0 W/m -0,4 C -4,1 C 27,4 km/h (4 Bft) 100,00 %
16.01.2019 01:38 3,7 C 3,3 C 3,3 C 74 % 1017,6 hPa 0,0 l/m 21,1 km/h (4 Bft) W 262 0 min 0,000 mm 0,0 UV-I 0 W/m -0,5 C -5,3 C 29,0 km/h (5 Bft) 100,00 %
16.01.2019 01:40 3,7 C 3,3 C 3,3 C 74 % 1017,7 hPa 0,0 l/m 25,2 km/h (4 Bft) W-SW 252 0 min 0,000 mm 0,0 UV-I 0 W/m -0,5 C -6,8 C 41,8 km/h (6 Bft) 97,87 %
16.01.2019 01:42 3,7 C 3,3 C 3,3 C 74 % 1017,7 hPa 0,0 l/m 24,8 km/h (4 Bft) W 265 0 min 0,000 mm 0,0 UV-I 0 W/m -0,5 C -6,6 C 35,4 km/h (5 Bft) 97,87 %
16.01.2019 01:44 3,7 C 3,3 C 3,3 C 74 % 1017,7 hPa 0,0 l/m 21,8 km/h (4 Bft) S-SW 212 0 min 0,000 mm 0,0 UV-I 0 W/m -0,5 C -5,6 C 37,0 km/h (5 Bft) 100,00 %
16.01.2019 01:46 3,7 C 3,3 C 3,3 C 74 % 1017,8 hPa 0,0 l/m 21,9 km/h (4 Bft) W-SW 252 0 min 0,000 mm 0,0 UV-I 0 W/m -0,5 C -5,6 C 35,4 km/h (5 Bft) 96,00 %
16.01.2019 01:48 3,7 C 3,3 C 3,3 C 74 % 1017,7 hPa 0,0 l/m 24,6 km/h (4 Bft) SW 227 0 min 0,000 mm 0,0 UV-I 0 W/m -0,5 C -6,6 C 37,0 km/h (5 Bft) 97,87 %
16.01.2019 01:50 3,7 C 3,3 C 3,3 C 74 % 1017,7 hPa 0,0 l/m 20,5 km/h (4 Bft) W-SW 255 0 min 0,000 mm 0,0 UV-I 0 W/m -0,5 C -5,1 C 33,8 km/h (5 Bft) 97,87 %
16.01.2019 01:52 3,7 C 3,3 C 3,3 C 74 % 1017,7 hPa 0,0 l/m 21,6 km/h (4 Bft) W-SW 246 0 min 0,000 mm 0,0 UV-I 0 W/m -0,5 C -5,5 C 35,4 km/h (5 Bft) 97,87 %
16.01.2019 01:54 3,7 C 3,3 C 3,3 C 74 % 1017,7 hPa 0,0 l/m 21,9 km/h (4 Bft) SW 230 0 min 0,000 mm 0,0 UV-I 0 W/m -0,5 C -5,6 C 38,6 km/h (5 Bft) 97,87 %
16.01.2019 01:56 3,7 C 3,3 C 3,3 C 74 % 1017,6 hPa 0,0 l/m 27,0 km/h (4 Bft) SW 234 0 min 0,000 mm 0,0 UV-I 0 W/m -0,5 C -7,3 C 37,0 km/h (5 Bft) 97,87 %
16.01.2019 01:58 3,7 C 3,3 C 3,3 C 74 % 1017,7 hPa 0,0 l/m 24,3 km/h (4 Bft) W-SW 237 0 min 0,000 mm 0,0 UV-I 0 W/m -0,5 C -6,5 C 32,2 km/h (5 Bft) 97,87 %
16.01.2019 02:00 3,7 C 3,3 C 3,3 C 74 % 1017,7 hPa 0,0 l/m 23,3 km/h (4 Bft) SW 215 0 min 0,051 mm 0,0 UV-I 0 W/m -0,5 C -6,1 C 33,8 km/h (5 Bft) 98,00 %
16.01.2019 02:02 3,7 C 3,3 C 3,3 C 74 % 1017,7 hPa 0,0 l/m 21,1 km/h (4 Bft) W 263 0 min 0,000 mm 0,0 UV-I 0 W/m -0,5 C -5,3 C 35,4 km/h (5 Bft) 97,87 %
16.01.2019 02:04 3,7 C 3,3 C 3,3 C 74 % 1017,7 hPa 0,0 l/m 22,2 km/h (4 Bft) SW 232 0 min 0,000 mm 0,0 UV-I 0 W/m -0,5 C -5,7 C 38,6 km/h (5 Bft) 98,00 %
16.01.2019 02:06 3,7 C 3,3 C 3,3 C 74 % 1017,7 hPa 0,0 l/m 27,2 km/h (4 Bft) W-SW 245 0 min 0,000 mm 0,0 UV-I 0 W/m -0,5 C -7,4 C 37,0 km/h (5 Bft) 97,87 %
16.01.2019 02:08 3,7 C 3,3 C 3,3 C 74 % 1017,7 hPa 0,0 l/m 25,9 km/h (4 Bft) SW 226 0 min 0,000 mm 0,0 UV-I 0 W/m -0,5 C -7,0 C 43,5 km/h (6 Bft) 100,00 %
16.01.2019 02:10 3,7 C 3,3 C 3,3 C 74 % 1017,7 hPa 0,0 l/m 29,1 km/h (5 Bft) W-SW 242 0 min 0,000 mm 0,0 UV-I 0 W/m -0,5 C -8,0 C 40,2 km/h (6 Bft) 97,87 %
16.01.2019 02:12 3,7 C 3,3 C 3,3 C 74 % 1017,7 hPa 0,0 l/m 23,2 km/h (4 Bft) SW 230 0 min 0,000 mm 0,0 UV-I 0 W/m -0,5 C -6,1 C 33,8 km/h (5 Bft) 97,87 %
16.01.2019 02:14 3,7 C 3,3 C 3,3 C 74 % 1017,8 hPa 0,0 l/m 27,0 km/h (4 Bft) W-SW 250 0 min 0,000 mm 0,0 UV-I 0 W/m -0,5 C -7,3 C 35,4 km/h (5 Bft) 100,00 %
16.01.2019 02:16 3,7 C 3,3 C 3,3 C 74 % 1017,7 hPa 0,0 l/m 22,5 km/h (4 Bft) SW 225 0 min 0,000 mm 0,0 UV-I 0 W/m -0,5 C -5,8 C 32,2 km/h (5 Bft) 98,00 %
16.01.2019 02:18 3,7 C 3,3 C 3,3 C 74 % 1017,8 hPa 0,0 l/m 26,7 km/h (4 Bft) S-SW 210 0 min 0,000 mm 0,0 UV-I 0 W/m -0,5 C -7,2 C 35,4 km/h (5 Bft) 100,00 %
16.01.2019 02:20 3,7 C 3,3 C 3,3 C 74 % 1017,8 hPa 0,0 l/m 22,3 km/h (4 Bft) W 265 0 min 0,000 mm 0,0 UV-I 0 W/m -0,5 C -5,8 C 33,8 km/h (5 Bft) 100,00 %
16.01.2019 02:22 3,7 C 3,3 C 3,3 C 74 % 1017,7 hPa 0,0 l/m 21,6 km/h (4 Bft) W-SW 241 0 min 0,000 mm 0,0 UV-I 0 W/m -0,5 C -5,5 C 32,2 km/h (5 Bft) 95,83 %
16.01.2019 02:24 3,7 C 3,3 C 3,3 C 74 % 1017,7 hPa 0,0 l/m 19,4 km/h (3 Bft) W 277 0 min 0,000 mm 0,0 UV-I 0 W/m -0,5 C -4,6 C 27,4 km/h (4 Bft) 97,87 %
16.01.2019 02:26 3,7 C 3,3 C 3,3 C 75 % 1017,7 hPa 0,0 l/m 20,7 km/h (4 Bft) S-SW 209 0 min 0,000 mm 0,0 UV-I 0 W/m -0,3 C -5,1 C 29,0 km/h (5 Bft) 98,00 %
16.01.2019 02:28 3,7 C 3,3 C 3,3 C 75 % 1017,7 hPa 0,0 l/m 22,7 km/h (4 Bft) SW 236 0 min 0,000 mm 0,0 UV-I 0 W/m -0,3 C -5,9 C 33,8 km/h (5 Bft) 97,87 %
16.01.2019 02:30 3,7 C 3,3 C 3,3 C 75 % 1017,7 hPa 0,0 l/m 18,0 km/h (3 Bft) W-SW 248 0 min 0,000 mm 0,0 UV-I 0 W/m -0,3 C -4,0 C 32,2 km/h (5 Bft) 92,11 %
16.01.2019 02:32 3,7 C 3,3 C 3,3 C 75 % 1017,7 hPa 0,0 l/m 25,0 km/h (4 Bft) W-SW 248 0 min 0,000 mm 0,0 UV-I 0 W/m -0,3 C -6,7 C 35,4 km/h (5 Bft) 97,87 %
16.01.2019 02:34 3,7 C 3,3 C 3,3 C 75 % 1017,7 hPa 0,0 l/m 21,4 km/h (4 Bft) W 259 0 min 0,000 mm 0,0 UV-I 0 W/m -0,3 C -5,4 C 33,8 km/h (5 Bft) 97,87 %
16.01.2019 02:36 3,6 C 3,3 C 3,3 C 75 % 1017,6 hPa 0,0 l/m 17,8 km/h (3 Bft) W-SW 242 0 min 0,000 mm 0,0 UV-I 0 W/m -0,4 C -4,0 C 25,7 km/h (4 Bft) 97,87 %
16.01.2019 02:38 3,6 C 3,3 C 3,3 C 75 % 1017,6 hPa 0,0 l/m 26,5 km/h (4 Bft) W-SW 238 0 min 0,000 mm 0,0 UV-I 0 W/m -0,4 C -7,3 C 43,5 km/h (6 Bft) 97,87 %
16.01.2019 02:40 3,7 C 3,3 C 3,3 C 75 % 1017,5 hPa 0,0 l/m 24,9 km/h (4 Bft) W-SW 250 0 min 0,000 mm 0,0 UV-I 0 W/m -0,3 C -6,7 C 40,2 km/h (6 Bft) 97,87 %
16.01.2019 02:42 3,6 C 3,3 C 3,3 C 75 % 1017,5 hPa 0,0 l/m 29,4 km/h (5 Bft) SW 232 0 min 0,000 mm 0,0 UV-I 0 W/m -0,4 C -8,2 C 46,7 km/h (6 Bft) 98,00 %
16.01.2019 02:44 3,7 C 3,3 C 3,3 C 75 % 1017,6 hPa 0,0 l/m 27,4 km/h (4 Bft) W-SW 239 0 min 0,000 mm 0,0 UV-I 0 W/m -0,3 C -7,5 C 40,2 km/h (6 Bft) 95,74 %
16.01.2019 02:46 3,6 C 3,3 C 3,3 C 75 % 1017,5 hPa 0,0 l/m 22,4 km/h (4 Bft) W-SW 254 0 min 0,000 mm 0,0 UV-I 0 W/m -0,4 C -5,9 C 30,6 km/h (5 Bft) 95,74 %
16.01.2019 02:48 3,6 C 3,3 C 3,3 C 75 % 1017,5 hPa 0,0 l/m 23,9 km/h (4 Bft) SW 221 0 min 0,000 mm 0,0 UV-I 0 W/m -0,4 C -6,5 C 35,4 km/h (5 Bft) 95,74 %
16.01.2019 02:50 3,7 C 3,3 C 3,3 C 75 % 1017,5 hPa 0,0 l/m 23,2 km/h (4 Bft) W 265 0 min 0,000 mm 0,0 UV-I 0 W/m -0,3 C -6,1 C 41,8 km/h (6 Bft) 95,74 %
16.01.2019 02:52 3,7 C 3,3 C 3,3 C 75 % 1017,5 hPa 0,0 l/m 29,3 km/h (5 Bft) W-SW 251 0 min 0,000 mm 0,0 UV-I 0 W/m -0,3 C -8,0 C 46,7 km/h (6 Bft) 93,62 %
16.01.2019 02:54 3,7 C 3,3 C 3,3 C 75 % 1017,5 hPa 0,0 l/m 23,5 km/h (4 Bft) SW 231 0 min 0,000 mm 0,0 UV-I 0 W/m -0,3 C -6,2 C 35,4 km/h (5 Bft) 93,62 %
16.01.2019 02:56 3,7 C 3,3 C 3,3 C 75 % 1017,5 hPa 0,0 l/m 27,0 km/h (4 Bft) S-SW 213 0 min 0,000 mm 0,0 UV-I 0 W/m -0,3 C -7,3 C 43,5 km/h (6 Bft) 96,00 %
16.01.2019 02:58 3,7 C 3,3 C 3,3 C 75 % 1017,5 hPa 0,0 l/m 24,0 km/h (4 Bft) W-SW 254 0 min 0,000 mm 0,0 UV-I 0 W/m -0,3 C -6,4 C 33,8 km/h (5 Bft) 95,74 %
16.01.2019 03:00 3,6 C 3,3 C 3,3 C 75 % 1017,5 hPa 0,0 l/m 20,4 km/h (4 Bft) W-SW 249 0 min 0,050 mm 0,0 UV-I 0 W/m -0,4 C -5,1 C 38,6 km/h (5 Bft) 93,62 %
16.01.2019 03:02 3,6 C 3,3 C 3,3 C 75 % 1017,4 hPa 0,0 l/m 28,9 km/h (5 Bft) SW 222 0 min 0,000 mm 0,0 UV-I 0 W/m -0,4 C -8,0 C 48,3 km/h (6 Bft) 93,62 %
16.01.2019 03:04 3,6 C 3,3 C 3,3 C 75 % 1017,4 hPa 0,0 l/m 26,6 km/h (4 Bft) W-SW 242 0 min 0,000 mm 0,0 UV-I 0 W/m -0,4 C -7,4 C 38,6 km/h (5 Bft) 94,87 %
16.01.2019 03:06 3,6 C 3,3 C 3,3 C 75 % 1017,4 hPa 0,0 l/m 24,8 km/h (4 Bft) W-SW 256 0 min 0,000 mm 0,0 UV-I 0 W/m -0,4 C -6,8 C 37,0 km/h (5 Bft) 90,00 %
16.01.2019 03:08 3,6 C 3,3 C 3,3 C 75 % 1017,5 hPa 0,0 l/m 26,9 km/h (4 Bft) W-SW 240 0 min 0,000 mm 0,0 UV-I 0 W/m -0,4 C -7,4 C 43,5 km/h (6 Bft) 93,62 %
16.01.2019 03:10 3,6 C 3,3 C 3,3 C 75 % 1017,5 hPa 0,0 l/m 25,9 km/h (4 Bft) W-SW 248 0 min 0,000 mm 0,0 UV-I 0 W/m -0,4 C -7,1 C 37,0 km/h (5 Bft) 88,00 %
16.01.2019 03:12 3,6 C 3,3 C 3,3 C 75 % 1017,5 hPa 0,0 l/m 19,0 km/h (3 Bft) W-SW 237 0 min 0,000 mm 0,0 UV-I 0 W/m -0,4 C -4,6 C 35,4 km/h (5 Bft) 92,11 %
16.01.2019 03:14 3,6 C 3,3 C 3,3 C 75 % 1017,6 hPa 0,0 l/m 22,3 km/h (4 Bft) W-SW 237 0 min 0,000 mm 0,0 UV-I 0 W/m -0,4 C -5,9 C 33,8 km/h (5 Bft) 96,00 %
16.01.2019 03:16 3,6 C 3,3 C 3,3 C 75 % 1017,5 hPa 0,0 l/m 23,6 km/h (4 Bft) SW 228 0 min 0,000 mm 0,0 UV-I 0 W/m -0,4 C -6,4 C 33,8 km/h (5 Bft) 93,62 %
16.01.2019 03:18 3,6 C 3,3 C 3,3 C 75 % 1017,5 hPa 0,0 l/m 18,8 km/h (3 Bft) W 261 0 min 0,000 mm 0,0 UV-I 0 W/m -0,4 C -4,5 C 29,0 km/h (5 Bft) 91,49 %
16.01.2019 03:20 3,6 C 3,3 C 3,3 C 75 % 1017,5 hPa 0,0 l/m 24,4 km/h (4 Bft) W-SW 258 0 min 0,000 mm 0,0 UV-I 0 W/m -0,4 C -6,6 C 35,4 km/h (5 Bft) 96,23 %
16.01.2019 03:22 3,6 C 3,3 C 3,3 C 75 % 1017,4 hPa 0,0 l/m 27,4 km/h (4 Bft) W-SW 257 0 min 0,000 mm 0,0 UV-I 0 W/m -0,4 C -7,6 C 37,0 km/h (5 Bft) 89,36 %
16.01.2019 03:24 3,6 C 3,3 C 3,3 C 75 % 1017,4 hPa 0,0 l/m 22,3 km/h (4 Bft) SW 229 0 min 0,000 mm 0,0 UV-I 0 W/m -0,4 C -5,9 C 40,2 km/h (6 Bft) 93,62 %
16.01.2019 03:26 3,6 C 3,3 C 3,3 C 75 % 1017,4 hPa 0,0 l/m 26,9 km/h (4 Bft) W-SW 251 0 min 0,000 mm 0,0 UV-I 0 W/m -0,4 C -7,4 C 41,8 km/h (6 Bft) 95,74 %
16.01.2019 03:28 3,6 C 3,3 C 3,3 C 75 % 1017,4 hPa 0,0 l/m 26,2 km/h (4 Bft) W-SW 237 0 min 0,000 mm 0,0 UV-I 0 W/m -0,4 C -7,2 C 38,6 km/h (5 Bft) 97,87 %
16.01.2019 03:31 3,5 C 3,3 C 3,3 C 75 % 1017,4 hPa 0,0 l/m 22,6 km/h (4 Bft) SW 236 0 min 0,000 mm 0,0 UV-I 0 W/m -0,5 C -6,1 C 33,8 km/h (5 Bft) 92,96 %
16.01.2019 03:32 3,5 C 3,3 C 3,3 C 75 % 1017,4 hPa 0,0 l/m 21,6 km/h (4 Bft) SW 233 0 min 0,000 mm 0,0 UV-I 0 W/m -0,5 C -5,8 C 33,8 km/h (5 Bft) 100,00 %
16.01.2019 03:34 3,5 C 3,3 C 3,3 C 75 % 1017,4 hPa 0,0 l/m 23,8 km/h (4 Bft) W-SW 240 0 min 0,000 mm 0,0 UV-I 0 W/m -0,5 C -6,6 C 33,8 km/h (5 Bft) 100,00 %
16.01.2019 03:36 3,5 C 3,3 C 3,3 C 75 % 1017,4 hPa 0,0 l/m 24,0 km/h (4 Bft) SW 221 0 min 0,000 mm 0,0 UV-I 0 W/m -0,5 C -6,6 C 35,4 km/h (5 Bft) 97,87 %
16.01.2019 03:38 3,5 C 3,3 C 3,3 C 75 % 1017,4 hPa 0,0 l/m 21,9 km/h (4 Bft) W-SW 249 0 min 0,000 mm 0,0 UV-I 0 W/m -0,5 C -5,9 C 30,6 km/h (5 Bft) 100,00 %
16.01.2019 03:40 3,5 C 3,3 C 3,3 C 75 % 1017,4 hPa 0,0 l/m 21,3 km/h (4 Bft) W-SW 251 0 min 0,000 mm 0,0 UV-I 0 W/m -0,5 C -5,6 C 27,4 km/h (4 Bft) 98,00 %
16.01.2019 03:42 3,4 C 3,3 C 2,8 C 75 % 1017,4 hPa 0,0 l/m 18,7 km/h (3 Bft) SW 234 0 min 0,000 mm 0,0 UV-I 0 W/m -0,6 C -4,7 C 33,8 km/h (5 Bft) 100,00 %
16.01.2019 03:44 3,4 C 3,3 C 2,8 C 75 % 1017,4 hPa 0,0 l/m 20,6 km/h (4 Bft) W 264 0 min 0,000 mm 0,0 UV-I 0 W/m -0,6 C -5,5 C 30,6 km/h (5 Bft) 100,00 %
16.01.2019 03:46 3,4 C 3,3 C 2,8 C 75 % 1017,5 hPa 0,0 l/m 19,6 km/h (3 Bft) W-SW 246 0 min 0,000 mm 0,0 UV-I 0 W/m -0,6 C -5,1 C 32,2 km/h (5 Bft) 95,74 %
16.01.2019 03:48 3,4 C 3,3 C 2,8 C 75 % 1017,4 hPa 0,0 l/m 18,9 km/h (3 Bft) SW 234 0 min 0,000 mm 0,0 UV-I 0 W/m -0,6 C -4,8 C 27,4 km/h (4 Bft) 100,00 %
16.01.2019 03:50 3,4 C 3,3 C 2,8 C 75 % 1017,4 hPa 0,0 l/m 19,4 km/h (3 Bft) W-SW 240 0 min 0,000 mm 0,0 UV-I 0 W/m -0,6 C -5,0 C 30,6 km/h (5 Bft) 100,00 %
16.01.2019 03:52 3,4 C 3,3 C 2,8 C 75 % 1017,4 hPa 0,0 l/m 21,5 km/h (4 Bft) W-SW 244 0 min 0,000 mm 0,0 UV-I 0 W/m -0,6 C -5,8 C 35,4 km/h (5 Bft) 97,87 %
16.01.2019 03:54 3,4 C 3,3 C 2,8 C 75 % 1017,4 hPa 0,0 l/m 20,0 km/h (4 Bft) SW 236 0 min 0,000 mm 0,0 UV-I 0 W/m -0,6 C -5,2 C 29,0 km/h (5 Bft) 97,87 %
16.01.2019 03:56 3,4 C 3,3 C 2,8 C 75 % 1017,3 hPa 0,0 l/m 19,6 km/h (3 Bft) SW 219 0 min 0,000 mm 0,0 UV-I 0 W/m -0,6 C -5,1 C 29,0 km/h (5 Bft) 100,00 %
16.01.2019 03:58 3,4 C 3,3 C 2,8 C 75 % 1017,3 hPa 0,0 l/m 20,3 km/h (4 Bft) SW 222 0 min 0,000 mm 0,0 UV-I 0 W/m -0,6 C -5,4 C 33,8 km/h (5 Bft) 100,00 %
16.01.2019 04:00 3,4 C 3,3 C 2,8 C 75 % 1017,3 hPa 0,0 l/m 20,0 km/h (4 Bft) W-SW 250 0 min 0,051 mm 0,0 UV-I 0 W/m -0,6 C -5,2 C 29,0 km/h (5 Bft) 97,37 %
16.01.2019 04:02 3,4 C 3,3 C 2,8 C 75 % 1017,2 hPa 0,0 l/m 24,8 km/h (4 Bft) W-SW 257 0 min 0,000 mm 0,0 UV-I 0 W/m -0,6 C -7,0 C 33,8 km/h (5 Bft) 95,45 %
16.01.2019 04:04 3,3 C 3,3 C 2,8 C 75 % 1017,2 hPa 0,0 l/m 20,9 km/h (4 Bft) W-SW 248 0 min 0,000 mm 0,0 UV-I 0 W/m -0,7 C -5,7 C 32,2 km/h (5 Bft) 97,87 %
16.01.2019 04:06 3,3 C 3,3 C 2,8 C 75 % 1017,2 hPa 0,0 l/m 22,2 km/h (4 Bft) SW 223 0 min 0,000 mm 0,0 UV-I 0 W/m -0,7 C -6,2 C 35,4 km/h (5 Bft) 100,00 %
16.01.2019 04:08 3,3 C 3,3 C 2,8 C 75 % 1017,2 hPa 0,0 l/m 21,9 km/h (4 Bft) SW 214 0 min 0,000 mm 0,0 UV-I 0 W/m -0,7 C -6,1 C 35,4 km/h (5 Bft) 97,87 %
16.01.2019 04:10 3,3 C 3,3 C 2,8 C 75 % 1017,2 hPa 0,0 l/m 20,1 km/h (4 Bft) SW 225 0 min 0,000 mm 0,0 UV-I 0 W/m -0,7 C -5,4 C 30,6 km/h (5 Bft) 100,00 %
16.01.2019 04:12 3,3 C 3,3 C 2,8 C 75 % 1017,3 hPa 0,0 l/m 20,0 km/h (4 Bft) S-SW 200 0 min 0,000 mm 0,0 UV-I 0 W/m -0,7 C -5,4 C 29,0 km/h (5 Bft) 100,00 %
16.01.2019 04:15 3,3 C 3,3 C 2,8 C 75 % 1017,3 hPa 0,0 l/m 23,7 km/h (4 Bft) W 259 0 min 0,000 mm 0,0 UV-I 0 W/m -0,7 C -6,8 C 35,4 km/h (5 Bft) 98,39 %
16.01.2019 04:16 3,3 C 3,3 C 2,8 C 75 % 1017,3 hPa 0,0 l/m 21,1 km/h (4 Bft) SW 216 0 min 0,000 mm 0,0 UV-I 0 W/m -0,7 C -5,8 C 30,6 km/h (5 Bft) 100,00 %
16.01.2019 04:18 3,3 C 3,3 C 2,8 C 75 % 1017,3 hPa 0,0 l/m 18,5 km/h (3 Bft) W 262 0 min 0,000 mm 0,0 UV-I 0 W/m -0,7 C -4,7 C 32,2 km/h (5 Bft) 100,00 %
16.01.2019 04:20 3,3 C 3,3 C 2,8 C 76 % 1017,3 hPa 0,0 l/m 17,2 km/h (3 Bft) W 271 0 min 0,000 mm 0,0 UV-I 0 W/m -0,5 C -4,1 C 24,1 km/h (4 Bft) 98,00 %
16.01.2019 04:22 3,3 C 3,3 C 2,8 C 76 % 1017,2 hPa 0,0 l/m 20,8 km/h (4 Bft) S-SW 209 0 min 0,000 mm 0,0 UV-I 0 W/m -0,5 C -5,7 C 32,2 km/h (5 Bft) 93,62 %
16.01.2019 04:24 3,2 C 3,3 C 2,8 C 76 % 1017,2 hPa 0,0 l/m 17,4 km/h (3 Bft) S-SW 200 0 min 0,000 mm 0,0 UV-I 0 W/m -0,6 C -4,3 C 29,0 km/h (5 Bft) 93,62 %
16.01.2019 04:26 3,2 C 3,3 C 2,8 C 75 % 1017,2 hPa 0,0 l/m 17,5 km/h (3 Bft) W 269 0 min 0,000 mm 0,0 UV-I 0 W/m -0,8 C -4,4 C 24,1 km/h (4 Bft) 97,87 %
16.01.2019 04:28 3,2 C 3,3 C 2,8 C 75 % 1017,2 hPa 0,0 l/m 21,2 km/h (4 Bft) SW 234 0 min 0,000 mm 0,0 UV-I 0 W/m -0,8 C -6,0 C 30,6 km/h (5 Bft) 97,87 %
16.01.2019 04:30 3,2 C 3,3 C 2,8 C 76 % 1017,2 hPa 0,0 l/m 23,8 km/h (4 Bft) W-SW 239 0 min 0,000 mm 0,0 UV-I 0 W/m -0,6 C -7,0 C 35,4 km/h (5 Bft) 97,87 %
16.01.2019 04:32 3,2 C 3,3 C 2,8 C 75 % 1017,1 hPa 0,0 l/m 17,1 km/h (3 Bft) SW 217 0 min 0,000 mm 0,0 UV-I 0 W/m -0,8 C -4,2 C 27,4 km/h (4 Bft) 97,37 %
16.01.2019 04:34 3,2 C 3,3 C 2,8 C 75 % 1017,2 hPa 0,0 l/m 19,1 km/h (3 Bft) W-SW 238 0 min 0,000 mm 0,0 UV-I 0 W/m -0,8 C -5,1 C 30,6 km/h (5 Bft) 97,87 %
16.01.2019 04:36 3,2 C 3,3 C 2,8 C 75 % 1017,2 hPa 0,0 l/m 18,3 km/h (3 Bft) S-SW 212 0 min 0,000 mm 0,0 UV-I 0 W/m -0,8 C -4,8 C 25,7 km/h (4 Bft) 96,00 %
16.01.2019 04:38 3,2 C 3,3 C 2,8 C 75 % 1017,3 hPa 0,0 l/m 16,7 km/h (3 Bft) S-SW 212 0 min 0,000 mm 0,0 UV-I 0 W/m -0,8 C -4,0 C 25,7 km/h (4 Bft) 97,87 %
16.01.2019 04:40 3,2 C 3,3 C 2,8 C 75 % 1017,2 hPa 0,0 l/m 18,8 km/h (3 Bft) W-SW 246 0 min 0,000 mm 0,0 UV-I 0 W/m -0,8 C -5,0 C 27,4 km/h (4 Bft) 98,00 %
16.01.2019 04:42 3,2 C 3,3 C 2,8 C 75 % 1017,2 hPa 0,0 l/m 17,7 km/h (3 Bft) SW 234 0 min 0,000 mm 0,0 UV-I 0 W/m -0,8 C -4,5 C 25,7 km/h (4 Bft) 100,00 %
16.01.2019 04:44 3,2 C 3,3 C 2,8 C 75 % 1017,2 hPa 0,0 l/m 17,0 km/h (3 Bft) S-SW 198 0 min 0,000 mm 0,0 UV-I 0 W/m -0,8 C -4,1 C 29,0 km/h (5 Bft) 100,00 %
16.01.2019 04:46 3,2 C 3,3 C 2,8 C 75 % 1017,2 hPa 0,0 l/m 18,9 km/h (3 Bft) SW 223 0 min 0,000 mm 0,0 UV-I 0 W/m -0,8 C -5,0 C 32,2 km/h (5 Bft) 95,74 %
16.01.2019 04:48 3,2 C 3,3 C 2,8 C 75 % 1017,1 hPa 0,0 l/m 19,2 km/h (3 Bft) SW 223 0 min 0,000 mm 0,0 UV-I 0 W/m -0,8 C -5,2 C 25,7 km/h (4 Bft) 97,44 %
16.01.2019 04:50 3,2 C 3,3 C 2,8 C 75 % 1017,1 hPa 0,0 l/m 18,4 km/h (3 Bft) S-SW 202 0 min 0,000 mm 0,0 UV-I 0 W/m -0,8 C -4,8 C 29,0 km/h (5 Bft) 100,00 %
16.01.2019 04:52 3,2 C 3,3 C 2,8 C 75 % 1017,1 hPa 0,0 l/m 16,2 km/h (3 Bft) SW 223 0 min 0,000 mm 0,0 UV-I 0 W/m -0,8 C -3,7 C 25,7 km/h (4 Bft) 95,74 %
16.01.2019 04:54 3,2 C 3,3 C 2,8 C 75 % 1017,1 hPa 0,0 l/m 17,9 km/h (3 Bft) W-SW 255 0 min 0,000 mm 0,0 UV-I 0 W/m -0,8 C -4,6 C 29,0 km/h (5 Bft) 96,23 %
16.01.2019 04:56 3,2 C 3,3 C 2,8 C 75 % 1017,1 hPa 0,0 l/m 18,4 km/h (3 Bft) W-SW 238 0 min 0,000 mm 0,0 UV-I 0 W/m -0,8 C -4,8 C 32,2 km/h (5 Bft) 95,74 %
16.01.2019 04:58 3,2 C 3,3 C 2,8 C 75 % 1017,1 hPa 0,0 l/m 16,7 km/h (3 Bft) W 260 0 min 0,000 mm 0,0 UV-I 0 W/m -0,8 C -4,0 C 25,7 km/h (4 Bft) 97,14 %
16.01.2019 05:01 3,2 C 3,3 C 2,8 C 75 % 1017,0 hPa 0,0 l/m 20,2 km/h (4 Bft) W-SW 244 0 min 0,051 mm 0,0 UV-I 0 W/m -0,8 C -5,6 C 29,0 km/h (5 Bft) 98,68 %
16.01.2019 05:02 3,2 C 3,3 C 2,8 C 75 % 1017,0 hPa 0,0 l/m 18,7 km/h (3 Bft) SW 221 0 min 0,000 mm 0,0 UV-I 0 W/m -0,8 C -4,9 C 24,1 km/h (4 Bft) 95,83 %
16.01.2019 05:04 3,2 C 3,3 C 2,8 C 75 % 1017,1 hPa 0,0 l/m 17,4 km/h (3 Bft) W-SW 237 0 min 0,000 mm 0,0 UV-I 0 W/m -0,8 C -4,3 C 29,0 km/h (5 Bft) 98,00 %
16.01.2019 05:06 3,1 C 3,3 C 2,8 C 75 % 1017,0 hPa 0,0 l/m 18,4 km/h (3 Bft) W 271 0 min 0,000 mm 0,0 UV-I 0 W/m -0,9 C -4,9 C 25,7 km/h (4 Bft) 97,87 %
16.01.2019 05:08 3,1 C 3,3 C 2,8 C 75 % 1017,0 hPa 0,0 l/m 19,9 km/h (4 Bft) SW 232 0 min 0,000 mm 0,0 UV-I 0 W/m -0,9 C -5,6 C 29,0 km/h (5 Bft) 94,74 %
16.01.2019 05:11 3,1 C 3,3 C 2,8 C 75 % 1017,1 hPa 0,0 l/m 19,9 km/h (4 Bft) W-SW 252 0 min 0,000 mm 0,0 UV-I 0 W/m -0,9 C -5,6 C 35,4 km/h (5 Bft) 96,39 %
16.01.2019 05:12 3,2 C 3,3 C 2,8 C 75 % 1017,1 hPa 0,0 l/m 18,8 km/h (3 Bft) W-SW 254 0 min 0,000 mm 0,0 UV-I 0 W/m -0,8 C -5,0 C 24,1 km/h (4 Bft) 91,67 %
16.01.2019 05:14 3,1 C 3,3 C 2,8 C 75 % 1017,0 hPa 0,0 l/m 21,3 km/h (4 Bft) W-SW 244 0 min 0,000 mm 0,0 UV-I 0 W/m -0,9 C -6,2 C 33,8 km/h (5 Bft) 97,87 %
16.01.2019 05:16 3,1 C 3,3 C 2,8 C 75 % 1017,0 hPa 0,0 l/m 20,1 km/h (4 Bft) S-SW 204 0 min 0,000 mm 0,0 UV-I 0 W/m -0,9 C -5,7 C 30,6 km/h (5 Bft) 97,87 %
16.01.2019 05:18 3,1 C 3,3 C 2,8 C 75 % 1017,1 hPa 0,0 l/m 22,8 km/h (4 Bft) SW 229 0 min 0,000 mm 0,0 UV-I 0 W/m -0,9 C -6,7 C 30,6 km/h (5 Bft) 95,74 %
16.01.2019 05:20 3,1 C 3,3 C 2,8 C 75 % 1017,1 hPa 0,0 l/m 21,1 km/h (4 Bft) S-SW 193 0 min 0,000 mm 0,0 UV-I 0 W/m -0,9 C -6,1 C 32,2 km/h (5 Bft) 96,00 %
16.01.2019 05:22 3,1 C 3,3 C 2,8 C 75 % 1017,1 hPa 0,0 l/m 20,3 km/h (4 Bft) W 259 0 min 0,000 mm 0,0 UV-I 0 W/m -0,9 C -5,8 C 27,4 km/h (4 Bft) 97,87 %
16.01.2019 05:24 3,1 C 3,3 C 2,8 C 75 % 1017,1 hPa 0,0 l/m 19,5 km/h (3 Bft) W-SW 238 0 min 0,000 mm 0,0 UV-I 0 W/m -0,9 C -5,4 C 29,0 km/h (5 Bft) 97,87 %
16.01.2019 05:26 3,1 C 3,3 C 2,8 C 75 % 1017,1 hPa 0,0 l/m 18,3 km/h (3 Bft) SW 226 0 min 0,000 mm 0,0 UV-I 0 W/m -0,9 C -4,9 C 25,7 km/h (4 Bft) 93,62 %
16.01.2019 05:28 3,1 C 3,3 C 2,8 C 75 % 1017,2 hPa 0,0 l/m 22,1 km/h (4 Bft) W-SW 238 0 min 0,000 mm 0,0 UV-I 0 W/m -0,9 C -6,5 C 32,2 km/h (5 Bft) 97,92 %
16.01.2019 05:30 3,1 C 3,3 C 2,8 C 75 % 1017,1 hPa 0,0 l/m 23,1 km/h (4 Bft) W-SW 237 0 min 0,000 mm 0,0 UV-I 0 W/m -0,9 C -6,8 C 32,2 km/h (5 Bft) 100,00 %
16.01.2019 05:32 3,1 C 3,3 C 2,8 C 75 % 1017,1 hPa 0,0 l/m 22,3 km/h (4 Bft) W-SW 240 0 min 0,000 mm 0,0 UV-I 0 W/m -0,9 C -6,5 C 30,6 km/h (5 Bft) 100,00 %
16.01.2019 05:34 3,1 C 3,3 C 2,8 C 75 % 1017,1 hPa 0,0 l/m 18,4 km/h (3 Bft) W-SW 240 0 min 0,000 mm 0,0 UV-I 0 W/m -0,9 C -4,9 C 30,6 km/h (5 Bft) 100,00 %
16.01.2019 05:36 3,1 C 3,3 C 2,8 C 75 % 1017,0 hPa 0,0 l/m 21,1 km/h (4 Bft) W-SW 240 0 min 0,000 mm 0,0 UV-I 0 W/m -0,9 C -6,1 C 32,2 km/h (5 Bft) 97,37 %
16.01.2019 05:38 3,1 C 3,3 C 2,8 C 75 % 1017,1 hPa 0,0 l/m 23,0 km/h (4 Bft) W-SW 248 0 min 0,000 mm 0,0 UV-I 0 W/m -0,9 C -6,8 C 33,8 km/h (5 Bft) 95,74 %
16.01.2019 05:40 3,1 C 3,3 C 2,8 C 75 % 1017,1 hPa 0,0 l/m 24,9 km/h (4 Bft) SW 234 0 min 0,000 mm 0,0 UV-I 0 W/m -0,9 C -7,5 C 38,6 km/h (5 Bft) 95,74 %
16.01.2019 05:42 3,1 C 3,3 C 2,8 C 75 % 1017,1 hPa 0,0 l/m 23,1 km/h (4 Bft) W-SW 238 0 min 0,000 mm 0,0 UV-I 0 W/m -0,9 C -6,8 C 37,0 km/h (5 Bft) 97,87 %
16.01.2019 05:44 3,1 C 3,3 C 2,8 C 75 % 1017,1 hPa 0,0 l/m 18,8 km/h (3 Bft) W-SW 240 0 min 0,000 mm 0,0 UV-I 0 W/m -0,9 C -5,1 C 32,2 km/h (5 Bft) 98,00 %
16.01.2019 05:46 3,1 C 3,3 C 2,8 C 75 % 1017,1 hPa 0,0 l/m 18,1 km/h (3 Bft) W-SW 255 0 min 0,000 mm 0,0 UV-I 0 W/m -0,9 C -4,8 C 32,2 km/h (5 Bft) 94,00 %
16.01.2019 05:48 3,1 C 3,3 C 2,8 C 75 % 1017,1 hPa 0,0 l/m 18,8 km/h (3 Bft) W-SW 242 0 min 0,000 mm 0,0 UV-I 0 W/m -0,9 C -5,1 C 32,2 km/h (5 Bft) 93,62 %
16.01.2019 05:50 3,0 C 3,3 C 2,8 C 75 % 1017,1 hPa 0,0 l/m 17,4 km/h (3 Bft) W-SW 251 0 min 0,000 mm 0,0 UV-I 0 W/m -1,0 C -4,6 C 24,1 km/h (4 Bft) 95,74 %
16.01.2019 05:52 3,0 C 3,3 C 2,8 C 75 % 1017,1 hPa 0,0 l/m 17,7 km/h (3 Bft) W-SW 245 0 min 0,000 mm 0,0 UV-I 0 W/m -1,0 C -4,7 C 27,4 km/h (4 Bft) 94,74 %
16.01.2019 05:54 2,9 C 3,3 C 2,8 C 76 % 1017,2 hPa 0,0 l/m 18,8 km/h (3 Bft) S-SW 200 0 min 0,000 mm 0,0 UV-I 0 W/m -0,9 C -5,4 C 27,4 km/h (4 Bft) 96,00 %
16.01.2019 05:56 2,9 C 3,3 C 2,2 C 76 % 1017,2 hPa 0,0 l/m 24,0 km/h (4 Bft) SW 228 0 min 0,000 mm 0,0 UV-I 0 W/m -0,9 C -7,4 C 35,4 km/h (5 Bft) 96,00 %
16.01.2019 05:58 2,9 C 3,3 C 2,2 C 76 % 1017,1 hPa 0,0 l/m 20,9 km/h (4 Bft) W-SW 244 0 min 0,000 mm 0,0 UV-I 0 W/m -0,9 C -6,3 C 29,0 km/h (5 Bft) 97,87 %
16.01.2019 06:00 2,9 C 3,3 C 2,2 C 76 % 1017,1 hPa 0,0 l/m 19,3 km/h (3 Bft) W-SW 242 0 min 0,051 mm 0,0 UV-I 0 W/m -0,9 C -5,6 C 27,4 km/h (4 Bft) 100,00 %
16.01.2019 06:02 2,8 C 3,3 C 2,2 C 76 % 1017,1 hPa 0,0 l/m 18,9 km/h (3 Bft) SW 232 0 min 0,000 mm 0,0 UV-I 0 W/m -1,0 C -5,5 C 33,8 km/h (5 Bft) 100,00 %
16.01.2019 06:04 2,8 C 3,3 C 2,2 C 76 % 1017,1 hPa 0,0 l/m 18,9 km/h (3 Bft) W-SW 248 0 min 0,000 mm 0,0 UV-I 0 W/m -1,0 C -5,5 C 30,6 km/h (5 Bft) 100,00 %
16.01.2019 06:06 2,8 C 3,3 C 2,2 C 76 % 1017,1 hPa 0,0 l/m 18,9 km/h (3 Bft) W-SW 256 0 min 0,000 mm 0,0 UV-I 0 W/m -1,0 C -5,5 C 27,4 km/h (4 Bft) 100,00 %
16.01.2019 06:08 2,8 C 3,3 C 2,2 C 76 % 1017,1 hPa 0,0 l/m 17,9 km/h (3 Bft) W-SW 238 0 min 0,000 mm 0,0 UV-I 0 W/m -1,0 C -5,1 C 29,0 km/h (5 Bft) 100,00 %
16.01.2019 06:10 2,7 C 3,3 C 2,2 C 76 % 1017,1 hPa 0,0 l/m 23,1 km/h (4 Bft) W-SW 239 0 min 0,000 mm 0,0 UV-I 0 W/m -1,1 C -7,4 C 30,6 km/h (5 Bft) 97,87 %
16.01.2019 06:12 2,7 C 3,3 C 2,2 C 76 % 1017,0 hPa 0,0 l/m 20,6 km/h (4 Bft) W-SW 254 0 min 0,000 mm 0,0 UV-I 0 W/m -1,1 C -6,4 C 29,0 km/h (5 Bft) 97,87 %
16.01.2019 06:14 2,7 C 3,3 C 2,2 C 76 % 1017,1 hPa 0,0 l/m 18,8 km/h (3 Bft) W-SW 244 0 min 0,000 mm 0,0 UV-I 0 W/m -1,1 C -5,6 C 24,1 km/h (4 Bft) 100,00 %
16.01.2019 06:16 2,7 C 3,3 C 2,2 C 76 % 1017,1 hPa 0,0 l/m 23,9 km/h (4 Bft) W-SW 239 0 min 0,000 mm 0,0 UV-I 0 W/m -1,1 C -7,7 C 35,4 km/h (5 Bft) 100,00 %
16.01.2019 06:18 2,7 C 3,3 C 2,2 C 77 % 1017,1 hPa 0,0 l/m 25,3 km/h (4 Bft) SW 225 0 min 0,000 mm 0,0 UV-I 0 W/m -0,9 C -8,2 C 35,4 km/h (5 Bft) 100,00 %
16.01.2019 06:20 2,6 C 3,3 C 2,2 C 77 % 1017,0 hPa 0,0 l/m 18,8 km/h (3 Bft) W-SW 246 0 min 0,000 mm 0,0 UV-I 0 W/m -1,0 C -5,7 C 30,6 km/h (5 Bft) 94,00 %
16.01.2019 06:22 2,6 C 3,3 C 1,7 C 77 % 1017,0 hPa 0,0 l/m 20,8 km/h (4 Bft) SW 217 0 min 0,000 mm 0,0 UV-I 0 W/m -1,0 C -6,6 C 29,0 km/h (5 Bft) 100,00 %
16.01.2019 06:24 2,6 C 3,3 C 1,7 C 77 % 1017,0 hPa 0,0 l/m 18,5 km/h (3 Bft) W-SW 240 0 min 0,000 mm 0,0 UV-I 0 W/m -1,0 C -5,6 C 29,0 km/h (5 Bft) 100,00 %
16.01.2019 06:26 2,6 C 3,3 C 1,7 C 77 % 1016,9 hPa 0,0 l/m 21,8 km/h (4 Bft) SW 236 0 min 0,000 mm 0,0 UV-I 0 W/m -1,0 C -7,0 C 29,0 km/h (5 Bft) 100,00 %
16.01.2019 06:28 2,5 C 3,3 C 1,7 C 77 % 1017,0 hPa 0,0 l/m 21,2 km/h (4 Bft) W-SW 239 0 min 0,000 mm 0,0 UV-I 0 W/m -1,1 C -6,9 C 30,6 km/h (5 Bft) 100,00 %
16.01.2019 06:30 2,5 C 3,3 C 1,7 C 77 % 1016,9 hPa 0,0 l/m 19,9 km/h (4 Bft) W 259 0 min 0,000 mm 0,0 UV-I 0 W/m -1,1 C -6,4 C 32,2 km/h (5 Bft) 98,00 %
16.01.2019 06:32 2,4 C 3,3 C 1,7 C 77 % 1016,9 hPa 0,0 l/m 20,3 km/h (4 Bft) W-SW 240 0 min 0,000 mm 0,0 UV-I 0 W/m -1,2 C -6,7 C 32,2 km/h (5 Bft) 100,00 %
16.01.2019 06:34 2,4 C 3,3 C 1,7 C 77 % 1016,9 hPa 0,0 l/m 19,5 km/h (3 Bft) W-SW 246 0 min 0,000 mm 0,0 UV-I 0 W/m -1,2 C -6,3 C 29,0 km/h (5 Bft) 97,87 %
16.01.2019 06:36 2,4 C 3,3 C 1,7 C 78 % 1017,0 hPa 0,0 l/m 19,2 km/h (3 Bft) W-SW 240 0 min 0,000 mm 0,0 UV-I 0 W/m -1,0 C -6,2 C 33,8 km/h (5 Bft) 98,00 %
16.01.2019 06:38 2,4 C 3,3 C 1,1 C 78 % 1016,9 hPa 0,0 l/m 22,5 km/h (4 Bft) W-SW 256 0 min 0,000 mm 0,0 UV-I 0 W/m -1,0 C -7,6 C 37,0 km/h (5 Bft) 93,62 %
16.01.2019 06:40 2,3 C 3,3 C 1,1 C 78 % 1016,9 hPa 0,0 l/m 21,9 km/h (4 Bft) S-SW 207 0 min 0,000 mm 0,0 UV-I 0 W/m -1,1 C -7,4 C 30,6 km/h (5 Bft) 97,87 %
16.01.2019 06:42 2,3 C 3,3 C 1,7 C 78 % 1016,9 hPa 0,0 l/m 19,3 km/h (3 Bft) SW 233 0 min 0,000 mm 0,0 UV-I 0 W/m -1,1 C -6,4 C 30,6 km/h (5 Bft) 97,87 %
16.01.2019 06:44 2,4 C 3,3 C 1,7 C 77 % 1016,9 hPa 0,0 l/m 22,0 km/h (4 Bft) W-SW 242 0 min 0,000 mm 0,0 UV-I 0 W/m -1,2 C -7,4 C 30,6 km/h (5 Bft) 93,62 %
16.01.2019 06:46 2,4 C 3,3 C 1,1 C 77 % 1016,9 hPa 0,0 l/m 20,5 km/h (4 Bft) SW 232 0 min 0,000 mm 0,0 UV-I 0 W/m -1,2 C -6,7 C 29,0 km/h (5 Bft) 97,22 %
16.01.2019 06:48 2,3 C 3,3 C 1,1 C 78 % 1017,0 hPa 0,0 l/m 18,7 km/h (3 Bft) W-SW 252 0 min 0,000 mm 0,0 UV-I 0 W/m -1,1 C -6,1 C 27,4 km/h (4 Bft) 95,74 %
16.01.2019 06:50 2,3 C 3,3 C 1,1 C 78 % 1017,0 hPa 0,0 l/m 18,0 km/h (3 Bft) SW 236 0 min 0,000 mm 0,0 UV-I 0 W/m -1,1 C -5,7 C 27,4 km/h (4 Bft) 93,62 %
16.01.2019 06:52 2,3 C 3,3 C 1,1 C 78 % 1017,0 hPa 0,0 l/m 18,7 km/h (3 Bft) W-SW 250 0 min 0,000 mm 0,0 UV-I 0 W/m -1,1 C -6,1 C 25,7 km/h (4 Bft) 94,00 %
16.01.2019 06:54 2,3 C 3,3 C 1,1 C 78 % 1017,0 hPa 0,0 l/m 18,5 km/h (3 Bft) SW 232 0 min 0,000 mm 0,0 UV-I 0 W/m -1,1 C -6,0 C 30,6 km/h (5 Bft) 93,62 %
16.01.2019 06:56 2,3 C 3,3 C 1,1 C 78 % 1017,0 hPa 0,0 l/m 18,0 km/h (3 Bft) SW 220 0 min 0,000 mm 0,0 UV-I 0 W/m -1,1 C -5,7 C 32,2 km/h (5 Bft) 93,62 %
16.01.2019 06:58 2,3 C 3,3 C 1,1 C 78 % 1017,0 hPa 0,0 l/m 15,8 km/h (3 Bft) W-SW 243 0 min 0,000 mm 0,0 UV-I 0 W/m -1,1 C -4,6 C 24,1 km/h (4 Bft) 91,49 %
16.01.2019 07:00 2,2 C 3,3 C 1,1 C 78 % 1016,9 hPa 0,0 l/m 20,3 km/h (4 Bft) W-SW 257 0 min 0,025 mm 0,0 UV-I 0 W/m -1,2 C -6,9 C 27,4 km/h (4 Bft) 91,49 %
16.01.2019 07:02 2,2 C 3,3 C 1,1 C 78 % 1017,0 hPa 0,0 l/m 17,1 km/h (3 Bft) SW 228 0 min 0,000 mm 0,0 UV-I 0 W/m -1,2 C -5,4 C 30,6 km/h (5 Bft) 92,00 %
16.01.2019 07:04 2,2 C 3,3 C 1,1 C 78 % 1017,0 hPa 0,0 l/m 18,9 km/h (3 Bft) SW 217 0 min 0,000 mm 0,0 UV-I 0 W/m -1,2 C -6,3 C 29,0 km/h (5 Bft) 93,62 %
16.01.2019 07:06 2,2 C 3,3 C 1,1 C 78 % 1016,9 hPa 0,0 l/m 21,0 km/h (4 Bft) SW 228 0 min 0,000 mm 0,0 UV-I 0 W/m -1,2 C -7,2 C 30,6 km/h (5 Bft) 94,00 %
16.01.2019 07:08 2,2 C 3,3 C 1,1 C 78 % 1016,9 hPa 0,0 l/m 19,6 km/h (3 Bft) SW 230 0 min 0,000 mm 0,0 UV-I 0 W/m -1,2 C -6,6 C 27,4 km/h (4 Bft) 89,47 %
16.01.2019 07:10 2,2 C 3,3 C 1,1 C 78 % 1017,0 hPa 0,0 l/m 16,1 km/h (3 Bft) W-SW 241 0 min 0,000 mm 0,0 UV-I 0 W/m -1,2 C -4,9 C 27,4 km/h (4 Bft) 94,00 %
16.01.2019 07:12 2,2 C 3,3 C 1,1 C 78 % 1017,0 hPa 0,0 l/m 15,9 km/h (3 Bft) W 260 0 min 0,000 mm 0,0 UV-I 0 W/m -1,2 C -4,8 C 20,9 km/h (4 Bft) 89,36 %
16.01.2019 07:14 2,2 C 3,3 C 1,1 C 78 % 1017,0 hPa 0,0 l/m 17,8 km/h (3 Bft) SW 225 0 min 0,000 mm 0,0 UV-I 0 W/m -1,2 C -5,8 C 27,4 km/h (4 Bft) 91,49 %
16.01.2019 07:16 2,2 C 3,3 C 1,1 C 78 % 1017,0 hPa 0,0 l/m 14,9 km/h (3 Bft) SW 236 0 min 0,000 mm 0,0 UV-I 0 W/m -1,2 C -4,3 C 22,5 km/h (4 Bft) 96,00 %
16.01.2019 07:18 2,2 C 3,3 C 1,1 C 79 % 1017,0 hPa 0,0 l/m 15,5 km/h (3 Bft) W-SW 248 0 min 0,000 mm 0,0 UV-I 0 W/m -1,1 C -4,6 C 19,3 km/h (3 Bft) 95,74 %
16.01.2019 07:20 2,2 C 3,3 C 1,1 C 79 % 1017,0 hPa 0,0 l/m 17,7 km/h (3 Bft) W-SW 244 0 min 0,000 mm 0,0 UV-I 0 W/m -1,1 C -5,7 C 30,6 km/h (5 Bft) 95,74 %
16.01.2019 07:22 2,2 C 3,3 C 1,1 C 79 % 1017,0 hPa 0,0 l/m 13,8 km/h (3 Bft) S-SW 204 0 min 0,000 mm 0,0 UV-I 0 W/m -1,1 C -3,6 C 22,5 km/h (4 Bft) 91,49 %
16.01.2019 07:25 2,2 C 3,3 C 1,1 C 79 % 1016,9 hPa 0,0 l/m 16,4 km/h (3 Bft) S-SW 206 0 min 0,000 mm 0,0 UV-I 0 W/m -1,1 C -5,1 C 24,1 km/h (4 Bft) 93,55 %
16.01.2019 07:26 2,2 C 3,3 C 1,1 C 79 % 1016,9 hPa 0,0 l/m 18,5 km/h (3 Bft) W-SW 258 0 min 0,000 mm 0,0 UV-I 0 W/m -1,1 C -6,1 C 27,4 km/h (4 Bft) 96,30 %
16.01.2019 07:28 2,2 C 3,3 C 1,1 C 79 % 1016,9 hPa 0,0 l/m 16,9 km/h (3 Bft) S-SW 211 0 min 0,000 mm 0,0 UV-I 0 W/m -1,1 C -5,3 C 24,1 km/h (4 Bft) 95,74 %
16.01.2019 07:30 2,1 C 3,3 C 1,1 C 79 % 1017,0 hPa 0,0 l/m 11,6 km/h (2 Bft) SW 232 0 min 0,000 mm 0,0 UV-I 0 W/m -1,2 C -2,3 C 19,3 km/h (3 Bft) 93,62 %
16.01.2019 07:32 2,1 C 3,3 C 1,1 C 79 % 1017,0 hPa 0,0 l/m 13,8 km/h (3 Bft) SW 232 0 min 0,000 mm 0,0 UV-I 0 W/m -1,2 C -3,7 C 20,9 km/h (4 Bft) 95,74 %
16.01.2019 07:34 2,1 C 3,3 C 1,1 C 79 % 1017,0 hPa 0,0 l/m 13,2 km/h (3 Bft) S-SW 204 0 min 0,000 mm 0,0 UV-I 0 W/m -1,2 C -3,4 C 22,5 km/h (4 Bft) 93,62 %
16.01.2019 07:36 2,1 C 3,3 C 1,1 C 79 % 1017,0 hPa 0,0 l/m 14,9 km/h (3 Bft) W-SW 246 0 min 0,000 mm 0,0 UV-I 0 W/m -1,2 C -4,4 C 25,7 km/h (4 Bft) 97,87 %
16.01.2019 07:38 2,1 C 3,3 C 1,1 C 79 % 1017,1 hPa 0,0 l/m 11,3 km/h (2 Bft) SW 229 0 min 0,000 mm 0,0 UV-I 0 W/m -1,2 C -2,1 C 17,7 km/h (3 Bft) 96,00 %
16.01.2019 07:40 2,1 C 3,3 C 1,1 C 79 % 1017,1 hPa 0,0 l/m 13,7 km/h (3 Bft) SW 228 0 min 0,000 mm 0,0 UV-I 2 W/m -1,2 C -3,7 C 19,3 km/h (3 Bft) 97,87 %
16.01.2019 07:42 2,1 C 3,3 C 1,1 C 79 % 1017,0 hPa 0,0 l/m 17,4 km/h (3 Bft) SW 223 0 min 0,000 mm 0,0 UV-I 5 W/m -1,2 C -5,7 C 25,7 km/h (4 Bft) 95,74 %
16.01.2019 07:44 2,1 C 3,3 C 1,1 C 79 % 1017,1 hPa 0,0 l/m 16,6 km/h (3 Bft) SW 225 0 min 0,000 mm 0,0 UV-I 5 W/m -1,2 C -5,3 C 25,7 km/h (4 Bft) 100,00 %
16.01.2019 07:46 2,2 C 3,3 C 1,1 C 79 % 1017,1 hPa 0,0 l/m 12,3 km/h (3 Bft) W-SW 250 0 min 0,000 mm 0,0 UV-I 5 W/m -1,1 C -2,7 C 20,9 km/h (4 Bft) 100,00 %
16.01.2019 07:48 2,2 C 3,3 C 1,1 C 79 % 1017,1 hPa 0,0 l/m 13,0 km/h (3 Bft) S-SW 196 0 min 0,000 mm 0,0 UV-I 5 W/m -1,1 C -3,1 C 22,5 km/h (4 Bft) 100,00 %
16.01.2019 07:50 2,2 C 3,3 C 1,1 C 79 % 1017,1 hPa 0,0 l/m 10,0 km/h (2 Bft) S-SW 213 0 min 0,000 mm 0,0 UV-I 7 W/m -1,1 C -1,0 C 19,3 km/h (3 Bft) 100,00 %
16.01.2019 07:52 2,2 C 3,3 C 1,1 C 79 % 1017,1 hPa 0,0 l/m 13,7 km/h (3 Bft) SW 234 0 min 0,000 mm 0,0 UV-I 7 W/m -1,1 C -3,6 C 22,5 km/h (4 Bft) 100,00 %
16.01.2019 07:54 2,2 C 3,3 C 1,1 C 79 % 1017,2 hPa 0,0 l/m 13,4 km/h (3 Bft) SW 230 0 min 0,000 mm 0,0 UV-I 8 W/m -1,1 C -3,4 C 20,9 km/h (4 Bft) 100,00 %
16.01.2019 07:56 2,2 C 3,3 C 1,1 C 79 % 1017,1 hPa 0,0 l/m 11,5 km/h (2 Bft) W-SW 248 0 min 0,000 mm 0,0 UV-I 9 W/m -1,1 C -2,1 C 19,3 km/h (3 Bft) 100,00 %
16.01.2019 07:58 2,2 C 3,3 C 1,1 C 79 % 1017,1 hPa 0,0 l/m 13,9 km/h (3 Bft) SW 217 0 min 0,000 mm 0,0 UV-I 10 W/m -1,1 C -3,7 C 24,1 km/h (4 Bft) 97,87 %
16.01.2019 08:00 2,2 C 3,3 C 1,1 C 79 % 1017,2 hPa 0,0 l/m 13,3 km/h (3 Bft) W 263 0 min 0,026 mm 0,0 UV-I 11 W/m -1,1 C -3,3 C 22,5 km/h (4 Bft) 97,37 %
16.01.2019 08:02 2,1 C 3,3 C 1,1 C 79 % 1017,2 hPa 0,0 l/m 14,1 km/h (3 Bft) SW 232 2 min 0,000 mm 0,0 UV-I 12 W/m -1,2 C -3,9 C 20,9 km/h (4 Bft) 100,00 %
16.01.2019 08:04 2,1 C 3,3 C 1,1 C 79 % 1017,2 hPa 0,0 l/m 13,9 km/h (3 Bft) S-SW 196 0 min 0,000 mm 0,0 UV-I 12 W/m -1,2 C -3,8 C 20,9 km/h (4 Bft) 100,00 %
16.01.2019 08:06 2,1 C 3,3 C 1,1 C 79 % 1017,2 hPa 0,0 l/m 11,2 km/h (2 Bft) SW 229 0 min 0,000 mm 0,0 UV-I 13 W/m -1,2 C -2,0 C 14,5 km/h (3 Bft) 100,00 %
16.01.2019 08:08 2,1 C 3,3 C 1,1 C 79 % 1017,2 hPa 0,0 l/m 12,7 km/h (3 Bft) SW 225 0 min 0,000 mm 0,0 UV-I 15 W/m -1,2 C -3,0 C 22,5 km/h (4 Bft) 97,87 %
16.01.2019 08:10 2,0 C 3,3 C 1,1 C 79 % 1017,2 hPa 0,0 l/m 13,5 km/h (3 Bft) S-SW 208 0 min 0,000 mm 0,0 UV-I 17 W/m -1,2 C -3,7 C 19,3 km/h (3 Bft) 97,87 %
16.01.2019 08:12 2,0 C 3,3 C 1,1 C 79 % 1017,2 hPa 0,0 l/m 12,4 km/h (3 Bft) SW 225 0 min 0,000 mm 0,0 UV-I 18 W/m -1,2 C -3,0 C 17,7 km/h (3 Bft) 97,87 %
16.01.2019 08:14 2,0 C 3,3 C 1,1 C 79 % 1017,2 hPa 0,0 l/m 14,4 km/h (3 Bft) S-SW 213 0 min 0,000 mm 0,0 UV-I 19 W/m -1,2 C -4,2 C 25,7 km/h (4 Bft) 98,00 %
16.01.2019 08:16 1,9 C 3,3 C 1,1 C 79 % 1017,2 hPa 0,0 l/m 14,4 km/h (3 Bft) S-SW 213 0 min 0,000 mm 0,0 UV-I 20 W/m -1,3 C -4,3 C 19,3 km/h (3 Bft) 100,00 %
16.01.2019 08:18 1,9 C 3,3 C 1,1 C 79 % 1017,3 hPa 0,0 l/m 14,2 km/h (3 Bft) SW 221 0 min 0,000 mm 0,0 UV-I 23 W/m -1,3 C -4,2 C 22,5 km/h (4 Bft) 96,77 %
16.01.2019 08:20 1,9 C 3,3 C 1,1 C 79 % 1017,2 hPa 0,0 l/m 11,6 km/h (2 Bft) SW 224 0 min 0,000 mm 0,0 UV-I 25 W/m -1,3 C -2,5 C 17,7 km/h (3 Bft) 97,87 %
16.01.2019 08:22 1,9 C 3,3 C 1,1 C 80 % 1017,2 hPa 0,0 l/m 12,5 km/h (3 Bft) SW 219 0 min 0,000 mm 0,0 UV-I 25 W/m -1,2 C -3,1 C 17,7 km/h (3 Bft) 98,00 %
16.01.2019 08:24 1,9 C 3,3 C 1,1 C 80 % 1017,2 hPa 0,0 l/m 10,2 km/h (2 Bft) SW 228 0 min 0,000 mm 0,0 UV-I 28 W/m -1,2 C -1,5 C 16,1 km/h (3 Bft) 97,87 %
16.01.2019 08:26 1,9 C 3,3 C 1,1 C 80 % 1017,2 hPa 0,0 l/m 8,3 km/h (2 Bft) W-SW 238 0 min 0,000 mm 0,0 UV-I 40 W/m -1,2 C 0,1 C 12,9 km/h (3 Bft) 95,74 %
16.01.2019 08:28 1,9 C 3,3 C 1,1 C 80 % 1017,2 hPa 0,0 l/m 13,4 km/h (3 Bft) S-SW 208 2 min 0,000 mm 0,0 UV-I 67 W/m -1,2 C -3,7 C 20,9 km/h (4 Bft) 97,87 %
16.01.2019 08:30 1,9 C 3,3 C 1,1 C 80 % 1017,3 hPa 0,0 l/m 14,0 km/h (3 Bft) W-SW 237 2 min 0,000 mm 0,0 UV-I 73 W/m -1,2 C -4,1 C 20,9 km/h (4 Bft) 100,00 %
16.01.2019 08:32 2,0 C 3,3 C 1,1 C 79 % 1017,3 hPa 0,0 l/m 11,8 km/h (2 Bft) SW 232 2 min 0,000 mm 0,0 UV-I 83 W/m -1,2 C -2,6 C 16,1 km/h (3 Bft) 100,00 %
16.01.2019 08:34 2,1 C 3,3 C 1,7 C 79 % 1017,4 hPa 0,0 l/m 13,4 km/h (3 Bft) SW 219 2 min 0,000 mm 0,0 UV-I 94 W/m -1,2 C -3,5 C 19,3 km/h (3 Bft) 98,00 %
16.01.2019 08:36 2,1 C 3,3 C 1,7 C 79 % 1017,3 hPa 0,0 l/m 12,7 km/h (3 Bft) SW 236 2 min 0,000 mm 0,0 UV-I 98 W/m -1,2 C -3,0 C 17,7 km/h (3 Bft) 97,87 %
16.01.2019 08:38 2,1 C 3,3 C 2,2 C 79 % 1017,3 hPa 0,0 l/m 12,2 km/h (2 Bft) W-SW 238 2 min 0,000 mm 0,0 UV-I 102 W/m -1,2 C -2,7 C 17,7 km/h (3 Bft) 97,87 %
16.01.2019 08:40 2,1 C 3,3 C 2,8 C 80 % 1017,3 hPa 0,0 l/m 9,6 km/h (2 Bft) SW 225 2 min 0,000 mm 0,0 UV-I 113 W/m -1,0 C -0,8 C 14,5 km/h (3 Bft) 95,74 %
16.01.2019 08:42 2,2 C 3,3 C 2,8 C 80 % 1017,3 hPa 0,0 l/m 10,5 km/h (2 Bft) S-SW 207 2 min 0,000 mm 0,0 UV-I 113 W/m -0,9 C -1,4 C 16,1 km/h (3 Bft) 100,00 %
16.01.2019 08:44 2,2 C 3,3 C 2,8 C 80 % 1017,2 hPa 0,0 l/m 11,8 km/h (2 Bft) S-SW 200 2 min 0,000 mm 0,0 UV-I 116 W/m -0,9 C -2,3 C 16,1 km/h (3 Bft) 100,00 %
16.01.2019 08:46 2,2 C 3,3 C 2,8 C 79 % 1017,2 hPa 0,0 l/m 9,9 km/h (2 Bft) W-SW 239 2 min 0,000 mm 0,0 UV-I 114 W/m -1,1 C -0,9 C 16,1 km/h (3 Bft) 100,00 %
16.01.2019 08:48 2,3 C 3,3 C 3,3 C 79 % 1017,3 hPa 0,0 l/m 12,8 km/h (3 Bft) SW 230 2 min 0,000 mm 0,0 UV-I 113 W/m -1,0 C -2,9 C 20,9 km/h (4 Bft) 100,00 %
16.01.2019 08:50 2,3 C 3,3 C 2,8 C 79 % 1017,3 hPa 0,0 l/m 12,4 km/h (3 Bft) S-SW 210 2 min 0,000 mm 0,0 UV-I 108 W/m -1,0 C -2,6 C 19,3 km/h (3 Bft) 100,00 %
16.01.2019 08:52 2,3 C 3,3 C 2,8 C 79 % 1017,2 hPa 0,0 l/m 11,4 km/h (2 Bft) W-SW 238 2 min 0,000 mm 0,0 UV-I 104 W/m -1,0 C -1,9 C 16,1 km/h (3 Bft) 100,00 %
16.01.2019 08:54 2,4 C 3,3 C 2,8 C 78 % 1017,2 hPa 0,0 l/m 11,0 km/h (2 Bft) SW 223 2 min 0,000 mm 0,0 UV-I 123 W/m -1,0 C -1,5 C 19,3 km/h (3 Bft) 97,87 %
16.01.2019 08:56 2,4 C 3,3 C 2,8 C 78 % 1017,3 hPa 0,0 l/m 12,1 km/h (2 Bft) W-SW 257 2 min 0,000 mm 0,0 UV-I 125 W/m -1,0 C -2,3 C 20,9 km/h (4 Bft) 100,00 %
16.01.2019 08:58 2,4 C 3,3 C 2,8 C 78 % 1017,3 hPa 0,0 l/m 9,0 km/h (2 Bft) W-SW 253 2 min 0,000 mm 0,0 UV-I 122 W/m -1,0 C 0,0 C 12,9 km/h (3 Bft) 100,00 %
16.01.2019 09:00 2,4 C 3,3 C 2,8 C 78 % 1017,3 hPa 0,0 l/m 10,1 km/h (2 Bft) SW 227 2 min 0,050 mm 0,0 UV-I 119 W/m -1,0 C -0,9 C 16,1 km/h (3 Bft) 100,00 %
16.01.2019 09:02 2,5 C 3,3 C 2,8 C 78 % 1017,2 hPa 0,0 l/m 11,0 km/h (2 Bft) SW 234 2 min 0,000 mm 0,0 UV-I 120 W/m -0,9 C -1,4 C 17,7 km/h (3 Bft) 97,87 %
16.01.2019 09:04 2,5 C 3,3 C 2,8 C 78 % 1017,2 hPa 0,0 l/m 13,4 km/h (3 Bft) W-SW 240 2 min 0,000 mm 0,0 UV-I 123 W/m -0,9 C -3,0 C 20,9 km/h (4 Bft) 93,62 %
16.01.2019 09:06 2,5 C 3,3 C 3,3 C 78 % 1017,3 hPa 0,0 l/m 12,1 km/h (2 Bft) SW 219 2 min 0,000 mm 0,0 UV-I 120 W/m -0,9 C -2,2 C 19,3 km/h (3 Bft) 97,14 %
16.01.2019 09:08 2,5 C 3,3 C 3,3 C 78 % 1017,2 hPa 0,0 l/m 13,2 km/h (3 Bft) SW 217 2 min 0,000 mm 0,0 UV-I 124 W/m -0,9 C -2,9 C 20,9 km/h (4 Bft) 98,11 %
16.01.2019 09:10 2,6 C 3,3 C 3,3 C 78 % 1017,3 hPa 0,0 l/m 10,6 km/h (2 Bft) SW 235 2 min 0,000 mm 0,0 UV-I 134 W/m -0,8 C -1,0 C 17,7 km/h (3 Bft) 95,74 %
16.01.2019 09:12 2,5 C 3,3 C 2,8 C 78 % 1017,3 hPa 0,0 l/m 13,0 km/h (3 Bft) W-SW 257 2 min 0,000 mm 0,0 UV-I 138 W/m -0,9 C -2,8 C 20,9 km/h (4 Bft) 97,87 %
16.01.2019 09:14 2,6 C 3,3 C 2,2 C 78 % 1017,3 hPa 0,0 l/m 14,7 km/h (3 Bft) W-SW 238 2 min 0,000 mm 0,0 UV-I 132 W/m -0,8 C -3,7 C 24,1 km/h (4 Bft) 94,00 %
16.01.2019 09:16 2,6 C 3,3 C 2,2 C 78 % 1017,3 hPa 0,0 l/m 13,7 km/h (3 Bft) W 261 2 min 0,000 mm 0,0 UV-I 151 W/m -0,8 C -3,1 C 22,5 km/h (4 Bft) 94,00 %
16.01.2019 09:18 2,6 C 3,3 C 2,2 C 78 % 1017,3 hPa 0,0 l/m 15,6 km/h (3 Bft) W-SW 249 2 min 0,000 mm 0,0 UV-I 161 W/m -0,8 C -4,2 C 24,1 km/h (4 Bft) 97,22 %
16.01.2019 09:20 2,7 C 3,3 C 2,2 C 78 % 1017,3 hPa 0,0 l/m 17,3 km/h (3 Bft) SW 233 2 min 0,000 mm 0,0 UV-I 159 W/m -0,7 C -4,9 C 29,0 km/h (5 Bft) 96,00 %
16.01.2019 09:22 2,7 C 3,3 C 2,2 C 78 % 1017,5 hPa 0,0 l/m 16,9 km/h (3 Bft) W 262 2 min 0,000 mm 0,0 UV-I 164 W/m -0,7 C -4,7 C 25,7 km/h (4 Bft) 93,62 %
16.01.2019 09:24 2,7 C 3,3 C 2,2 C 77 % 1017,3 hPa 0,0 l/m 13,9 km/h (3 Bft) SW 221 2 min 0,000 mm 0,0 UV-I 175 W/m -0,9 C -3,1 C 20,9 km/h (4 Bft) 93,62 %
16.01.2019 09:26 2,8 C 3,3 C 2,2 C 78 % 1017,3 hPa 0,0 l/m 16,9 km/h (3 Bft) SW 225 2 min 0,000 mm 0,0 UV-I 171 W/m -0,6 C -4,6 C 24,1 km/h (4 Bft) 96,00 %
16.01.2019 09:28 2,8 C 3,3 C 2,2 C 77 % 1017,3 hPa 0,0 l/m 17,1 km/h (3 Bft) W-SW 255 2 min 0,000 mm 0,0 UV-I 174 W/m -0,8 C -4,7 C 24,1 km/h (4 Bft) 91,49 %
16.01.2019 09:30 2,8 C 3,3 C 2,2 C 77 % 1017,3 hPa 0,0 l/m 17,9 km/h (3 Bft) S-SW 194 2 min 0,000 mm 0,0 UV-I 179 W/m -0,8 C -5,1 C 24,1 km/h (4 Bft) 95,74 %
16.01.2019 09:32 2,8 C 3,3 C 2,2 C 78 % 1017,2 hPa 0,0 l/m 13,2 km/h (3 Bft) W-SW 242 2 min 0,000 mm 0,0 UV-I 184 W/m -0,6 C -2,5 C 19,3 km/h (3 Bft) 97,87 %
16.01.2019 09:34 2,8 C 3,3 C 2,2 C 77 % 1017,3 hPa 0,0 l/m 16,9 km/h (3 Bft) W-SW 248 2 min 0,000 mm 0,0 UV-I 186 W/m -0,8 C -4,6 C 22,5 km/h (4 Bft) 97,96 %
16.01.2019 09:36 2,9 C 3,3 C 2,2 C 77 % 1017,2 hPa 0,0 l/m 14,6 km/h (3 Bft) W-SW 240 2 min 0,000 mm 0,0 UV-I 186 W/m -0,7 C -3,2 C 22,5 km/h (4 Bft) 98,00 %
16.01.2019 09:38 2,9 C 3,3 C 2,2 C 77 % 1017,2 hPa 0,0 l/m 15,8 km/h (3 Bft) W-SW 250 2 min 0,000 mm 0,0 UV-I 189 W/m -0,7 C -3,9 C 22,5 km/h (4 Bft) 100,00 %
16.01.2019 09:40 2,9 C 3,3 C 2,2 C 77 % 1017,2 hPa 0,0 l/m 15,1 km/h (3 Bft) SW 236 2 min 0,000 mm 0,0 UV-I 201 W/m -0,7 C -3,5 C 22,5 km/h (4 Bft) 97,87 %
16.01.2019 09:42 2,9 C 3,3 C 2,8 C 77 % 1017,3 hPa 0,0 l/m 16,1 km/h (3 Bft) W-SW 258 2 min 0,000 mm 0,0 UV-I 211 W/m -0,7 C -4,1 C 22,5 km/h (4 Bft) 95,74 %
16.01.2019 09:44 3,0 C 3,3 C 2,8 C 77 % 1017,2 hPa 0,0 l/m 15,6 km/h (3 Bft) W-SW 239 2 min 0,000 mm 0,0 UV-I 216 W/m -0,6 C -3,7 C 22,5 km/h (4 Bft) 98,00 %
16.01.2019 09:46 3,0 C 3,3 C 2,8 C 77 % 1017,3 hPa 0,0 l/m 18,0 km/h (3 Bft) SW 236 2 min 0,000 mm 0,0 UV-I 219 W/m -0,6 C -4,9 C 24,1 km/h (4 Bft) 95,74 %
16.01.2019 09:48 3,0 C 3,3 C 2,8 C 77 % 1017,2 hPa 0,0 l/m 21,1 km/h (4 Bft) W-SW 252 2 min 0,000 mm 0,0 UV-I 215 W/m -0,6 C -6,2 C 27,4 km/h (4 Bft) 100,00 %
16.01.2019 09:50 3,1 C 3,3 C 2,8 C 77 % 1017,2 hPa 0,0 l/m 16,5 km/h (3 Bft) W-SW 254 2 min 0,000 mm 0,0 UV-I 222 W/m -0,5 C -4,0 C 24,1 km/h (4 Bft) 100,00 %
16.01.2019 09:52 3,1 C 3,3 C 2,8 C 76 % 1017,2 hPa 0,0 l/m 19,5 km/h (3 Bft) SW 227 2 min 0,000 mm 0,0 UV-I 219 W/m -0,7 C -5,4 C 27,4 km/h (4 Bft) 93,62 %
16.01.2019 09:54 3,1 C 3,3 C 2,8 C 76 % 1017,2 hPa 0,0 l/m 15,5 km/h (3 Bft) SW 236 2 min 0,000 mm 0,0 UV-I 219 W/m -0,7 C -3,5 C 22,5 km/h (4 Bft) 95,74 %
16.01.2019 09:56 3,1 C 3,3 C 2,8 C 76 % 1017,2 hPa 0,0 l/m 13,4 km/h (3 Bft) SW 234 2 min 0,000 mm 0,0 UV-I 224 W/m -0,7 C -2,3 C 24,1 km/h (4 Bft) 97,92 %
16.01.2019 09:58 3,2 C 3,3 C 2,8 C 76 % 1017,2 hPa 0,0 l/m 16,5 km/h (3 Bft) W-SW 243 2 min 0,000 mm 0,0 UV-I 226 W/m -0,6 C -3,9 C 22,5 km/h (4 Bft) 100,00 %
16.01.2019 10:00 3,2 C 3,3 C 2,8 C 76 % 1017,1 hPa 0,0 l/m 14,7 km/h (3 Bft) W-SW 242 2 min 0,102 mm 0,0 UV-I 239 W/m -0,6 C -2,9 C 24,1 km/h (4 Bft) 97,37 %
16.01.2019 10:02 3,3 C 3,3 C 3,3 C 76 % 1017,1 hPa 0,0 l/m 16,5 km/h (3 Bft) SW 236 2 min 0,000 mm 0,0 UV-I 236 W/m -0,5 C -3,8 C 24,1 km/h (4 Bft) 100,00 %
16.01.2019 10:04 3,3 C 3,3 C 3,3 C 76 % 1017,1 hPa 0,0 l/m 14,6 km/h (3 Bft) W-SW 243 2 min 0,000 mm 0,0 UV-I 222 W/m -0,5 C -2,8 C 24,1 km/h (4 Bft) 100,00 %
16.01.2019 10:06 3,3 C 3,3 C 3,3 C 76 % 1017,1 hPa 0,0 l/m 12,1 km/h (2 Bft) W-SW 242 2 min 0,000 mm 0,0 UV-I 226 W/m -0,5 C -1,3 C 20,9 km/h (4 Bft) 98,00 %
16.01.2019 10:08 3,3 C 3,3 C 3,3 C 76 % 1017,1 hPa 0,0 l/m 15,5 km/h (3 Bft) SW 229 2 min 0,000 mm 0,0 UV-I 241 W/m -0,5 C -3,3 C 20,9 km/h (4 Bft) 100,00 %
16.01.2019 10:10 3,4 C 3,3 C 3,3 C 75 % 1017,1 hPa 0,0 l/m 15,6 km/h (3 Bft) W 274 2 min 0,000 mm 0,0 UV-I 248 W/m -0,6 C -3,2 C 20,9 km/h (4 Bft) 100,00 %
16.01.2019 10:12 3,4 C 3,3 C 3,3 C 75 % 1017,1 hPa 0,0 l/m 14,3 km/h (3 Bft) S-SW 212 2 min 0,000 mm 0,0 UV-I 245 W/m -0,6 C -2,5 C 25,7 km/h (4 Bft) 100,00 %
16.01.2019 10:14 3,5 C 3,3 C 3,3 C 75 % 1017,0 hPa 0,0 l/m 12,8 km/h (3 Bft) SW 221 2 min 0,000 mm 0,0 UV-I 251 W/m -0,5 C -1,5 C 19,3 km/h (3 Bft) 97,87 %
16.01.2019 10:16 3,5 C 3,3 C 3,9 C 75 % 1017,0 hPa 0,0 l/m 15,0 km/h (3 Bft) S-SW 200 2 min 0,000 mm 0,0 UV-I 245 W/m -0,5 C -2,7 C 22,5 km/h (4 Bft) 100,00 %
16.01.2019 10:18 3,6 C 3,3 C 3,9 C 75 % 1017,1 hPa 0,0 l/m 12,6 km/h (3 Bft) W-SW 243 2 min 0,000 mm 0,0 UV-I 263 W/m -0,4 C -1,2 C 20,9 km/h (4 Bft) 100,00 %
16.01.2019 10:20 3,6 C 3,3 C 3,9 C 75 % 1017,1 hPa 0,0 l/m 12,6 km/h (3 Bft) SW 228 2 min 0,000 mm 0,0 UV-I 255 W/m -0,4 C -1,2 C 19,3 km/h (3 Bft) 100,00 %
16.01.2019 10:22 3,7 C 3,3 C 3,9 C 75 % 1017,0 hPa 0,0 l/m 14,2 km/h (3 Bft) S-SW 194 2 min 0,000 mm 0,0 UV-I 237 W/m -0,3 C -2,1 C 24,1 km/h (4 Bft) 100,00 %
16.01.2019 10:24 3,7 C 3,3 C 3,9 C 74 % 1017,0 hPa 0,0 l/m 13,4 km/h (3 Bft) W-SW 255 2 min 0,000 mm 0,0 UV-I 223 W/m -0,5 C -1,6 C 20,9 km/h (4 Bft) 100,00 %
16.01.2019 10:26 3,7 C 3,3 C 4,4 C 75 % 1017,0 hPa 0,0 l/m 15,6 km/h (3 Bft) SW 234 2 min 0,000 mm 0,0 UV-I 252 W/m -0,3 C -2,8 C 25,7 km/h (4 Bft) 100,00 %
16.01.2019 10:28 3,8 C 3,3 C 4,4 C 74 % 1017,0 hPa 0,0 l/m 15,3 km/h (3 Bft) W-SW 250 2 min 0,000 mm 0,1 UV-I 254 W/m -0,4 C -2,5 C 20,9 km/h (4 Bft) 95,74 %
16.01.2019 10:30 3,8 C 3,3 C 4,4 C 74 % 1016,9 hPa 0,0 l/m 18,0 km/h (3 Bft) W-SW 244 2 min 0,000 mm 0,5 UV-I 268 W/m -0,4 C -3,9 C 29,0 km/h (5 Bft) 97,87 %
16.01.2019 10:32 3,9 C 3,3 C 4,4 C 75 % 1016,9 hPa 0,0 l/m 10,5 km/h (2 Bft) S-SW 199 2 min 0,000 mm 0,5 UV-I 286 W/m -0,1 C 0,5 C 19,3 km/h (3 Bft) 97,92 %
16.01.2019 10:34 3,9 C 3,3 C 4,4 C 74 % 1016,9 hPa 0,0 l/m 12,3 km/h (3 Bft) SW 232 2 min 0,000 mm 0,5 UV-I 258 W/m -0,3 C -0,7 C 19,3 km/h (3 Bft) 97,87 %
16.01.2019 10:36 3,9 C 3,3 C 5,0 C 74 % 1016,8 hPa 0,0 l/m 13,3 km/h (3 Bft) W-SW 250 2 min 0,000 mm 0,5 UV-I 231 W/m -0,3 C -1,3 C 27,4 km/h (4 Bft) 95,12 %
16.01.2019 10:38 4,0 C 3,3 C 5,0 C 74 % 1016,8 hPa 0,0 l/m 12,8 km/h (3 Bft) W-SW 240 2 min 0,000 mm 0,5 UV-I 271 W/m -0,2 C -0,9 C 20,9 km/h (4 Bft) 96,00 %
16.01.2019 10:40 4,1 C 3,3 C 5,6 C 74 % 1016,8 hPa 0,0 l/m 15,7 km/h (3 Bft) SW 227 2 min 0,000 mm 0,5 UV-I 274 W/m -0,1 C -2,4 C 27,4 km/h (4 Bft) 93,62 %
16.01.2019 10:42 4,1 C 3,3 C 5,6 C 74 % 1016,7 hPa 0,0 l/m 17,8 km/h (3 Bft) SW 232 2 min 0,000 mm 0,5 UV-I 268 W/m -0,1 C -3,4 C 24,1 km/h (4 Bft) 93,62 %
16.01.2019 10:44 4,1 C 3,3 C 5,6 C 74 % 1016,7 hPa 0,0 l/m 14,7 km/h (3 Bft) W-SW 242 2 min 0,000 mm 0,5 UV-I 260 W/m -0,1 C -1,9 C 20,9 km/h (4 Bft) 96,00 %
16.01.2019 10:46 4,1 C 3,3 C 5,6 C 74 % 1016,6 hPa 0,0 l/m 17,2 km/h (3 Bft) SW 224 2 min 0,000 mm 0,5 UV-I 251 W/m -0,1 C -3,1 C 24,1 km/h (4 Bft) 96,00 %
16.01.2019 10:48 4,1 C 3,3 C 5,6 C 73 % 1016,6 hPa 0,0 l/m 17,2 km/h (3 Bft) W 264 2 min 0,000 mm 0,5 UV-I 254 W/m -0,3 C -3,1 C 27,4 km/h (4 Bft) 93,62 %
16.01.2019 10:50 4,1 C 3,3 C 5,6 C 74 % 1016,6 hPa 0,0 l/m 11,4 km/h (2 Bft) W 263 2 min 0,000 mm 0,5 UV-I 238 W/m -0,1 C 0,1 C 17,7 km/h (3 Bft) 95,74 %
16.01.2019 10:52 4,2 C 3,3 C 5,6 C 73 % 1016,6 hPa 0,0 l/m 15,5 km/h (3 Bft) W 265 2 min 0,000 mm 0,5 UV-I 232 W/m -0,2 C -2,2 C 22,5 km/h (4 Bft) 97,37 %
16.01.2019 10:54 4,2 C 3,3 C 5,6 C 72 % 1016,6 hPa 0,0 l/m 14,9 km/h (3 Bft) W 263 2 min 0,000 mm 0,5 UV-I 241 W/m -0,4 C -1,8 C 19,3 km/h (3 Bft) 97,87 %
16.01.2019 10:56 4,2 C 3,3 C 5,6 C 72 % 1016,5 hPa 0,0 l/m 12,7 km/h (3 Bft) W 261 2 min 0,000 mm 0,5 UV-I 257 W/m -0,4 C -0,6 C 20,9 km/h (4 Bft) 98,00 %
16.01.2019 10:58 4,2 C 3,3 C 5,6 C 72 % 1016,6 hPa 0,0 l/m 15,4 km/h (3 Bft) W-SW 248 2 min 0,000 mm 0,5 UV-I 266 W/m -0,4 C -2,1 C 20,9 km/h (4 Bft) 93,62 %
16.01.2019 11:00 4,3 C 3,3 C 5,6 C 72 % 1016,4 hPa 0,0 l/m 12,7 km/h (3 Bft) W-NW 282 2 min 0,127 mm 0,6 UV-I 283 W/m -0,3 C -0,5 C 17,7 km/h (3 Bft) 97,87 %
16.01.2019 11:02 4,3 C 3,3 C 5,6 C 72 % 1016,5 hPa 0,0 l/m 14,4 km/h (3 Bft) W-SW 242 2 min 0,000 mm 0,6 UV-I 292 W/m -0,3 C -1,5 C 22,5 km/h (4 Bft) 97,87 %
16.01.2019 11:04 4,3 C 3,3 C 6,1 C 72 % 1016,4 hPa 0,0 l/m 16,5 km/h (3 Bft) W-SW 257 2 min 0,000 mm 0,6 UV-I 302 W/m -0,3 C -2,5 C 24,1 km/h (4 Bft) 98,00 %
16.01.2019 11:06 4,4 C 3,3 C 6,1 C 72 % 1016,4 hPa 0,0 l/m 14,4 km/h (3 Bft) SW 232 2 min 0,000 mm 0,6 UV-I 309 W/m -0,2 C -1,3 C 19,3 km/h (3 Bft) 100,00 %
16.01.2019 11:08 4,6 C 3,3 C 6,1 C 72 % 1016,4 hPa 0,0 l/m 13,8 km/h (3 Bft) W-SW 256 2 min 0,000 mm 0,6 UV-I 331 W/m -0,0 C -0,8 C 22,5 km/h (4 Bft) 91,49 %
16.01.2019 11:10 4,6 C 3,3 C 6,1 C 70 % 1016,3 hPa 0,0 l/m 15,4 km/h (3 Bft) W 278 2 min 0,000 mm 0,6 UV-I 348 W/m -0,4 C -1,6 C 24,1 km/h (4 Bft) 100,00 %
16.01.2019 11:12 4,6 C 3,3 C 6,7 C 71 % 1016,3 hPa 0,0 l/m 11,7 km/h (2 Bft) W-SW 255 2 min 0,000 mm 0,6 UV-I 361 W/m -0,2 C 0,5 C 17,7 km/h (3 Bft) 97,87 %
16.01.2019 11:14 4,7 C 3,3 C 6,7 C 71 % 1016,4 hPa 0,0 l/m 6,8 km/h (2 Bft) W-SW 240 2 min 0,000 mm 0,6 UV-I 367 W/m -0,1 C 4,4 C 14,5 km/h (3 Bft) 100,00 %
16.01.2019 11:16 4,8 C 3,3 C 6,7 C 71 % 1016,3 hPa 0,0 l/m 11,9 km/h (2 Bft) W 264 2 min 0,000 mm 0,6 UV-I 352 W/m -0,0 C 0,6 C 17,7 km/h (3 Bft) 96,00 %
16.01.2019 11:18 4,8 C 3,3 C 7,2 C 70 % 1016,4 hPa 0,0 l/m 15,1 km/h (3 Bft) W-SW 240 2 min 0,000 mm 0,6 UV-I 381 W/m -0,2 C -1,2 C 20,9 km/h (4 Bft) 97,87 %
16.01.2019 11:20 4,9 C 3,3 C 7,2 C 70 % 1016,4 hPa 0,0 l/m 13,1 km/h (3 Bft) S-SW 206 2 min 0,000 mm 0,7 UV-I 384 W/m -0,1 C -0,0 C 20,9 km/h (4 Bft) 100,00 %
16.01.2019 11:22 4,9 C 3,3 C 7,2 C 70 % 1016,4 hPa 0,0 l/m 7,6 km/h (2 Bft) W 272 2 min 0,000 mm 0,7 UV-I 377 W/m -0,1 C 3,8 C 11,3 km/h (2 Bft) 100,00 %
16.01.2019 11:24 4,9 C 3,3 C 7,8 C 70 % 1016,4 hPa 0,0 l/m 12,6 km/h (3 Bft) W 266 2 min 0,000 mm 0,7 UV-I 364 W/m -0,1 C 0,3 C 19,3 km/h (3 Bft) 95,74 %
16.01.2019 11:26 5,0 C 3,3 C 7,8 C 69 % 1016,3 hPa 0,0 l/m 10,8 km/h (2 Bft) SW 227 2 min 0,000 mm 0,7 UV-I 365 W/m -0,2 C 1,5 C 19,3 km/h (3 Bft) 100,00 %
16.01.2019 11:28 5,1 C 3,3 C 7,8 C 70 % 1016,3 hPa 0,0 l/m 8,6 km/h (2 Bft) W 277 2 min 0,000 mm 0,7 UV-I 361 W/m 0,1 C 3,2 C 16,1 km/h (3 Bft) 100,00 %
16.01.2019 11:30 5,1 C 3,3 C 7,8 C 70 % 1016,2 hPa 0,0 l/m 11,1 km/h (2 Bft) W 262 2 min 0,000 mm 0,7 UV-I 360 W/m 0,1 C 1,4 C 16,1 km/h (3 Bft) 97,87 %
16.01.2019 11:32 5,1 C 3,3 C 7,2 C 69 % 1016,2 hPa 0,0 l/m 12,7 km/h (3 Bft) W-SW 252 2 min 0,000 mm 0,7 UV-I 358 W/m -0,1 C 0,5 C 17,7 km/h (3 Bft) 100,00 %
16.01.2019 11:34 5,0 C 3,3 C 7,2 C 69 % 1016,1 hPa 0,0 l/m 9,5 km/h (2 Bft) S-SW 205 2 min 0,000 mm 0,7 UV-I 352 W/m -0,2 C 2,4 C 14,5 km/h (3 Bft) 100,00 %
16.01.2019 11:36 5,0 C 3,3 C 7,2 C 69 % 1016,1 hPa 0,0 l/m 10,7 km/h (2 Bft) W-SW 256 2 min 0,000 mm 0,7 UV-I 346 W/m -0,2 C 1,6 C 20,9 km/h (4 Bft) 97,56 %
16.01.2019 11:38 5,1 C 3,3 C 7,2 C 69 % 1015,9 hPa 0,0 l/m 7,4 km/h (2 Bft) W 272 2 min 0,000 mm 0,7 UV-I 340 W/m -0,1 C 4,2 C 11,3 km/h (2 Bft) 100,00 %
16.01.2019 11:40 5,1 C 3,3 C 7,2 C 69 % 1015,9 hPa 0,0 l/m 8,8 km/h (2 Bft) SW 236 2 min 0,000 mm 0,7 UV-I 337 W/m -0,1 C 3,1 C 16,1 km/h (3 Bft) 95,74 %
16.01.2019 11:42 5,2 C 3,3 C 7,8 C 69 % 1015,9 hPa 0,0 l/m 7,5 km/h (2 Bft) W-SW 242 2 min 0,000 mm 0,7 UV-I 331 W/m -0,0 C 4,2 C 12,9 km/h (3 Bft) 90,00 %
16.01.2019 11:44 5,3 C 3,3 C 7,8 C 69 % 1015,8 hPa 0,0 l/m 10,0 km/h (2 Bft) NW 320 2 min 0,000 mm 0,7 UV-I 335 W/m 0,1 C 2,4 C 16,1 km/h (3 Bft) 97,87 %
16.01.2019 11:46 5,3 C 3,3 C 7,8 C 69 % 1015,8 hPa 0,0 l/m 10,2 km/h (2 Bft) W-NW 283 2 min 0,000 mm 0,7 UV-I 333 W/m 0,1 C 2,3 C 19,3 km/h (3 Bft) 95,74 %
16.01.2019 11:48 5,3 C 3,3 C 7,8 C 68 % 1015,8 hPa 0,0 l/m 11,1 km/h (2 Bft) W 277 2 min 0,000 mm 0,7 UV-I 334 W/m -0,1 C 1,7 C 16,1 km/h (3 Bft) 95,74 %
16.01.2019 11:50 5,3 C 3,3 C 7,2 C 68 % 1015,7 hPa 0,0 l/m 11,2 km/h (2 Bft) W-SW 254 2 min 0,000 mm 0,7 UV-I 333 W/m -0,1 C 1,6 C 17,7 km/h (3 Bft) 98,00 %
16.01.2019 11:52 5,2 C 3,3 C 7,2 C 68 % 1015,7 hPa 0,0 l/m 12,6 km/h (3 Bft) W 261 2 min 0,000 mm 0,7 UV-I 332 W/m -0,2 C 0,6 C 16,1 km/h (3 Bft) 97,87 %
16.01.2019 11:54 5,2 C 3,3 C 7,2 C 68 % 1015,7 hPa 0,0 l/m 12,4 km/h (3 Bft) W 260 2 min 0,000 mm 0,7 UV-I 332 W/m -0,2 C 0,7 C 20,9 km/h (4 Bft) 97,92 %
16.01.2019 11:56 5,2 C 3,3 C 7,2 C 68 % 1015,7 hPa 0,0 l/m 11,0 km/h (2 Bft) SW 225 2 min 0,000 mm 0,7 UV-I 330 W/m -0,2 C 1,6 C 14,5 km/h (3 Bft) 93,62 %
16.01.2019 11:58 5,2 C 3,3 C 7,2 C 68 % 1015,7 hPa 0,0 l/m 10,8 km/h (2 Bft) W-SW 250 2 min 0,000 mm 0,7 UV-I 327 W/m -0,2 C 1,7 C 20,9 km/h (4 Bft) 97,14 %
16.01.2019 12:00 5,1 C 3,3 C 7,2 C 68 % 1015,6 hPa 0,0 l/m 12,5 km/h (3 Bft) W 267 2 min 0,178 mm 0,7 UV-I 330 W/m -0,3 C 0,6 C 16,1 km/h (3 Bft) 98,00 %
16.01.2019 12:02 5,1 C 3,3 C 7,2 C 68 % 1015,6 hPa 0,0 l/m 9,0 km/h (2 Bft) W 263 2 min 0,000 mm 0,7 UV-I 332 W/m -0,3 C 2,9 C 14,5 km/h (3 Bft) 97,87 %
16.01.2019 12:04 5,1 C 3,3 C 7,2 C 69 % 1015,5 hPa 0,0 l/m 9,0 km/h (2 Bft) W 265 2 min 0,000 mm 0,7 UV-I 336 W/m -0,1 C 2,9 C 12,9 km/h (3 Bft) 100,00 %
16.01.2019 12:06 5,2 C 3,3 C 7,2 C 68 % 1015,4 hPa 0,0 l/m 14,4 km/h (3 Bft) SW 216 2 min 0,000 mm 0,7 UV-I 336 W/m -0,2 C -0,4 C 19,3 km/h (3 Bft) 100,00 %
16.01.2019 12:08 5,2 C 3,3 C 7,2 C 68 % 1015,4 hPa 0,0 l/m 12,9 km/h (3 Bft) W-SW 251 2 min 0,000 mm 0,7 UV-I 339 W/m -0,2 C 0,5 C 19,3 km/h (3 Bft) 100,00 %
16.01.2019 12:10 5,3 C 3,3 C 7,2 C 69 % 1015,3 hPa 0,0 l/m 11,3 km/h (2 Bft) W-SW 252 2 min 0,000 mm 0,7 UV-I 340 W/m 0,1 C 1,5 C 19,3 km/h (3 Bft) 95,74 %
16.01.2019 12:12 5,3 C 3,3 C 7,2 C 69 % 1015,3 hPa 0,0 l/m 11,2 km/h (2 Bft) W-SW 257 2 min 0,000 mm 0,7 UV-I 347 W/m 0,1 C 1,6 C 17,7 km/h (3 Bft) 97,87 %
16.01.2019 12:14 5,4 C 3,3 C 7,2 C 68 % 1015,3 hPa 0,0 l/m 11,5 km/h (2 Bft) W 267 2 min 0,000 mm 0,7 UV-I 345 W/m -0,0 C 1,5 C 16,1 km/h (3 Bft) 96,00 %
16.01.2019 12:16 5,4 C 3,3 C 7,2 C 68 % 1015,3 hPa 0,0 l/m 6,0 km/h (2 Bft) W-NW 294 2 min 0,000 mm 0,7 UV-I 344 W/m -0,0 C 5,4 C 12,9 km/h (3 Bft) 97,87 %
16.01.2019 12:18 5,4 C 3,3 C 7,2 C 68 % 1015,3 hPa 0,0 l/m 7,3 km/h (2 Bft) W-SW 248 2 min 0,000 mm 0,7 UV-I 341 W/m -0,0 C 4,6 C 14,5 km/h (3 Bft) 95,74 %
16.01.2019 12:20 5,4 C 3,3 C 6,7 C 68 % 1015,2 hPa 0,0 l/m 6,4 km/h (2 Bft) SW 217 2 min 0,000 mm 0,7 UV-I 341 W/m -0,0 C 5,4 C 12,9 km/h (3 Bft) 98,00 %
16.01.2019 12:22 5,5 C 3,3 C 6,7 C 68 % 1015,2 hPa 0,0 l/m 9,9 km/h (2 Bft) W-SW 258 2 min 0,000 mm 0,7 UV-I 339 W/m 0,1 C 2,7 C 14,5 km/h (3 Bft) 97,22 %
16.01.2019 12:24 5,5 C 3,3 C 7,2 C 68 % 1015,2 hPa 0,0 l/m 10,0 km/h (2 Bft) W-SW 257 2 min 0,000 mm 0,7 UV-I 341 W/m 0,1 C 2,6 C 17,7 km/h (3 Bft) 96,00 %
16.01.2019 12:26 5,5 C 3,3 C 6,7 C 67 % 1015,2 hPa 0,0 l/m 10,8 km/h (2 Bft) W 273 2 min 0,000 mm 0,7 UV-I 344 W/m -0,1 C 2,1 C 16,1 km/h (3 Bft) 97,87 %
16.01.2019 12:28 5,4 C 3,3 C 7,2 C 69 % 1015,2 hPa 0,0 l/m 7,0 km/h (2 Bft) SW 235 2 min 0,000 mm 0,7 UV-I 344 W/m 0,2 C 4,9 C 12,9 km/h (3 Bft) 97,87 %
16.01.2019 12:30 5,6 C 3,3 C 7,2 C 69 % 1015,1 hPa 0,0 l/m 7,9 km/h (2 Bft) W-SW 254 2 min 0,000 mm 0,7 UV-I 340 W/m 0,4 C 4,3 C 16,1 km/h (3 Bft) 97,87 %
16.01.2019 12:32 5,6 C 3,3 C 7,2 C 68 % 1015,0 hPa 0,0 l/m 9,7 km/h (2 Bft) W-NW 288 2 min 0,000 mm 0,7 UV-I 327 W/m 0,2 C 2,9 C 17,7 km/h (3 Bft) 94,00 %
16.01.2019 12:34 5,6 C 3,3 C 6,7 C 67 % 1015,0 hPa 0,0 l/m 11,0 km/h (2 Bft) W-SW 257 2 min 0,000 mm 0,7 UV-I 322 W/m -0,0 C 2,1 C 17,7 km/h (3 Bft) 97,87 %
16.01.2019 12:36 5,4 C 3,3 C 6,7 C 67 % 1015,0 hPa 0,0 l/m 12,7 km/h (3 Bft) W-SW 246 2 min 0,000 mm 0,7 UV-I 326 W/m -0,2 C 0,8 C 16,1 km/h (3 Bft) 97,87 %
16.01.2019 12:38 5,4 C 3,3 C 7,2 C 67 % 1015,0 hPa 0,0 l/m 10,1 km/h (2 Bft) W 275 2 min 0,000 mm 0,7 UV-I 327 W/m -0,2 C 2,4 C 12,9 km/h (3 Bft) 93,62 %
16.01.2019 12:40 5,4 C 3,3 C 7,2 C 67 % 1014,9 hPa 0,0 l/m 7,9 km/h (2 Bft) W 281 2 min 0,000 mm 0,7 UV-I 333 W/m -0,2 C 4,1 C 14,5 km/h (3 Bft) 97,87 %
16.01.2019 12:42 5,4 C 3,3 C 7,2 C 67 % 1014,8 hPa 0,0 l/m 6,4 km/h (2 Bft) W-NW 296 2 min 0,000 mm 0,7 UV-I 330 W/m -0,2 C 5,4 C 11,3 km/h (2 Bft) 98,00 %
16.01.2019 12:44 5,5 C 3,3 C 6,7 C 67 % 1014,8 hPa 0,0 l/m 9,4 km/h (2 Bft) W 261 2 min 0,000 mm 0,7 UV-I 330 W/m -0,1 C 3,1 C 17,7 km/h (3 Bft) 95,74 %
16.01.2019 12:46 5,5 C 3,3 C 7,2 C 67 % 1014,8 hPa 0,0 l/m 9,9 km/h (2 Bft) W-SW 244 2 min 0,000 mm 0,7 UV-I 328 W/m -0,1 C 2,7 C 14,5 km/h (3 Bft) 97,37 %
16.01.2019 12:48 5,4 C 3,3 C 6,7 C 67 % 1014,8 hPa 0,0 l/m 12,8 km/h (3 Bft) W-SW 249 2 min 0,000 mm 0,7 UV-I 328 W/m -0,2 C 0,7 C 17,7 km/h (3 Bft) 97,87 %
16.01.2019 12:50 5,4 C 3,3 C 6,7 C 67 % 1014,8 hPa 0,0 l/m 11,9 km/h (2 Bft) W 259 2 min 0,000 mm 0,7 UV-I 329 W/m -0,2 C 1,3 C 16,1 km/h (3 Bft) 93,62 %
16.01.2019 12:52 5,5 C 3,3 C 6,7 C 67 % 1014,7 hPa 0,0 l/m 7,4 km/h (2 Bft) W 273 2 min 0,000 mm 0,7 UV-I 325 W/m -0,1 C 4,6 C 12,9 km/h (3 Bft) 95,74 %
16.01.2019 12:54 5,5 C 3,3 C 6,7 C 67 % 1014,7 hPa 0,0 l/m 8,9 km/h (2 Bft) W 280 2 min 0,000 mm 0,7 UV-I 320 W/m -0,1 C 3,4 C 12,9 km/h (3 Bft) 100,00 %
16.01.2019 12:56 5,6 C 3,3 C 6,7 C 67 % 1014,7 hPa 0,0 l/m 11,1 km/h (2 Bft) W-NW 286 2 min 0,000 mm 0,7 UV-I 320 W/m -0,0 C 2,0 C 17,7 km/h (3 Bft) 89,36 %
16.01.2019 12:58 5,6 C 3,3 C 6,7 C 66 % 1014,6 hPa 0,0 l/m 9,5 km/h (2 Bft) W-SW 251 2 min 0,000 mm 0,7 UV-I 322 W/m -0,2 C 3,1 C 14,5 km/h (3 Bft) 93,62 %
16.01.2019 13:00 5,7 C 3,3 C 6,7 C 67 % 1014,6 hPa 0,0 l/m 8,9 km/h (2 Bft) SW 232 2 min 0,000 mm 0,7 UV-I 320 W/m 0,1 C 3,6 C 17,7 km/h (3 Bft) 95,74 %
16.01.2019 13:02 5,8 C 3,3 C 6,7 C 65 % 1014,6 hPa 0,0 l/m 11,3 km/h (2 Bft) SW 230 2 min 0,152 mm 0,7 UV-I 322 W/m -0,3 C 2,1 C 17,7 km/h (3 Bft) 91,67 %
16.01.2019 13:04 5,7 C 3,3 C 6,7 C 65 % 1014,6 hPa 0,0 l/m 11,9 km/h (2 Bft) W-NW 283 2 min 0,000 mm 0,7 UV-I 318 W/m -0,4 C 1,6 C 16,1 km/h (3 Bft) 95,74 %
16.01.2019 13:06 5,7 C 3,3 C 6,7 C 65 % 1014,5 hPa 0,0 l/m 8,1 km/h (2 Bft) NW 311 2 min 0,000 mm 0,6 UV-I 316 W/m -0,4 C 4,3 C 12,9 km/h (3 Bft) 93,62 %
16.01.2019 13:08 5,8 C 3,3 C 7,2 C 66 % 1014,5 hPa 0,0 l/m 6,5 km/h (2 Bft) S-SW 211 2 min 0,000 mm 0,6 UV-I 316 W/m -0,0 C 5,7 C 12,9 km/h (3 Bft) 93,62 %
16.01.2019 13:10 5,8 C 3,3 C 7,2 C 66 % 1014,5 hPa 0,0 l/m 10,4 km/h (2 Bft) W-SW 247 2 min 0,000 mm 0,6 UV-I 318 W/m -0,0 C 2,7 C 14,5 km/h (3 Bft) 95,74 %
16.01.2019 13:12 5,8 C 3,3 C 7,2 C 66 % 1014,5 hPa 0,0 l/m 9,7 km/h (2 Bft) W 269 2 min 0,000 mm 0,6 UV-I 316 W/m -0,0 C 3,2 C 14,5 km/h (3 Bft) 95,74 %
16.01.2019 13:14 5,8 C 3,3 C 7,2 C 65 % 1014,5 hPa 0,0 l/m 7,0 km/h (2 Bft) W-SW 249 2 min 0,000 mm 0,6 UV-I 317 W/m -0,3 C 5,3 C 12,9 km/h (3 Bft) 93,62 %
16.01.2019 13:16 5,9 C 3,3 C 7,8 C 66 % 1014,4 hPa 0,0 l/m 6,4 km/h (2 Bft) W 272 2 min 0,000 mm 0,6 UV-I 314 W/m 0,0 C 5,9 C 12,9 km/h (3 Bft) 98,00 %
16.01.2019 13:18 5,9 C 3,3 C 7,8 C 65 % 1014,4 hPa 0,0 l/m 7,2 km/h (2 Bft) W-NW 303 2 min 0,000 mm 0,6 UV-I 313 W/m -0,2 C 5,2 C 11,3 km/h (2 Bft) 95,74 %
16.01.2019 13:20 5,9 C 3,3 C 7,2 C 65 % 1014,4 hPa 0,0 l/m 6,6 km/h (2 Bft) N-NW 330 2 min 0,000 mm 0,6 UV-I 307 W/m -0,2 C 5,8 C 11,3 km/h (2 Bft) 95,74 %
16.01.2019 13:22 5,9 C 3,3 C 7,2 C 65 % 1014,4 hPa 0,0 l/m 5,8 km/h (2 Bft) W-SW 257 2 min 0,000 mm 0,6 UV-I 303 W/m -0,2 C 5,9 C 9,7 km/h (2 Bft) 91,49 %
16.01.2019 13:24 5,8 C 3,3 C 7,2 C 65 % 1014,3 hPa 0,0 l/m 9,5 km/h (2 Bft) W 266 2 min 0,000 mm 0,6 UV-I 299 W/m -0,3 C 3,3 C 14,5 km/h (3 Bft) 97,87 %
16.01.2019 13:26 5,8 C 3,3 C 7,2 C 66 % 1014,2 hPa 0,0 l/m 9,2 km/h (2 Bft) W 275 2 min 0,000 mm 0,6 UV-I 298 W/m -0,0 C 3,5 C 14,5 km/h (3 Bft) 97,37 %
16.01.2019 13:28 5,9 C 3,3 C 7,2 C 66 % 1014,2 hPa 0,0 l/m 5,8 km/h (2 Bft) W-SW 254 2 min 0,000 mm 0,6 UV-I 293 W/m 0,0 C 5,9 C 11,3 km/h (2 Bft) 97,87 %
16.01.2019 13:30 5,9 C 3,3 C 7,2 C 65 % 1014,2 hPa 0,0 l/m 9,4 km/h (2 Bft) W 267 2 min 0,000 mm 0,6 UV-I 288 W/m -0,2 C 3,5 C 12,9 km/h (3 Bft) 97,87 %
16.01.2019 13:32 5,9 C 3,3 C 6,7 C 65 % 1014,2 hPa 0,0 l/m 7,5 km/h (2 Bft) W 271 2 min 0,000 mm 0,6 UV-I 282 W/m -0,2 C 5,0 C 12,9 km/h (3 Bft) 96,23 %
16.01.2019 13:34 5,8 C 3,3 C 6,7 C 64 % 1014,2 hPa 0,0 l/m 6,8 km/h (2 Bft) W 278 2 min 0,000 mm 0,6 UV-I 281 W/m -0,5 C 5,5 C 12,9 km/h (3 Bft) 97,87 %
16.01.2019 13:36 5,7 C 3,3 C 6,7 C 65 % 1014,1 hPa 0,0 l/m 4,8 km/h (1 Bft) W-SW 251 2 min 0,000 mm 0,6 UV-I 278 W/m -0,4 C 5,7 C 8,0 km/h (2 Bft) 97,87 %
16.01.2019 13:38 5,8 C 3,3 C 7,2 C 65 % 1014,1 hPa 0,0 l/m 8,7 km/h (2 Bft) W-SW 239 2 min 0,000 mm 0,5 UV-I 271 W/m -0,3 C 3,9 C 14,5 km/h (3 Bft) 95,74 %
16.01.2019 13:40 5,8 C 3,3 C 6,7 C 64 % 1014,1 hPa 0,0 l/m 10,2 km/h (2 Bft) W-SW 253 2 min 0,000 mm 0,5 UV-I 279 W/m -0,5 C 2,8 C 14,5 km/h (3 Bft) 93,62 %
16.01.2019 13:42 5,8 C 3,3 C 6,7 C 65 % 1014,0 hPa 0,0 l/m 7,8 km/h (2 Bft) SW 225 2 min 0,000 mm 0,5 UV-I 277 W/m -0,3 C 4,6 C 12,9 km/h (3 Bft) 95,83 %
16.01.2019 13:44 5,9 C 3,3 C 6,7 C 64 % 1014,0 hPa 0,0 l/m 11,1 km/h (2 Bft) W-SW 258 2 min 0,000 mm 0,5 UV-I 273 W/m -0,4 C 2,3 C 16,1 km/h (3 Bft) 93,62 %
16.01.2019 13:46 5,8 C 3,3 C 6,7 C 64 % 1014,0 hPa 0,0 l/m 11,8 km/h (2 Bft) W 267 2 min 0,000 mm 0,5 UV-I 275 W/m -0,5 C 1,8 C 17,7 km/h (3 Bft) 93,62 %
16.01.2019 13:48 5,8 C 3,3 C 7,2 C 64 % 1014,0 hPa 0,0 l/m 8,4 km/h (2 Bft) W-SW 254 2 min 0,000 mm 0,5 UV-I 272 W/m -0,5 C 4,1 C 14,5 km/h (3 Bft) 94,74 %
16.01.2019 13:50 5,7 C 3,3 C 6,7 C 65 % 1013,9 hPa 0,0 l/m 6,3 km/h (2 Bft) SW 234 2 min 0,000 mm 0,5 UV-I 264 W/m -0,4 C 5,7 C 9,7 km/h (2 Bft) 94,00 %
16.01.2019 13:52 5,8 C 3,3 C 6,7 C 64 % 1013,9 hPa 0,0 l/m 5,3 km/h (1 Bft) NW 306 2 min 0,000 mm 0,5 UV-I 266 W/m -0,5 C 5,8 C 8,0 km/h (2 Bft) 93,62 %
16.01.2019 13:54 5,9 C 3,3 C 7,2 C 65 % 1013,9 hPa 0,0 l/m 5,9 km/h (2 Bft) W 271 2 min 0,000 mm 0,5 UV-I 263 W/m -0,2 C 5,9 C 11,3 km/h (2 Bft) 95,74 %
16.01.2019 13:56 6,1 C 3,3 C 7,8 C 64 % 1014,0 hPa 0,0 l/m 5,2 km/h (1 Bft) W-SW 244 2 min 0,000 mm 0,5 UV-I 256 W/m -0,2 C 6,1 C 11,3 km/h (2 Bft) 93,62 %
16.01.2019 13:58 6,1 C 3,3 C 7,2 C 64 % 1013,9 hPa 0,0 l/m 3,4 km/h (1 Bft) SW 220 2 min 0,000 mm 0,5 UV-I 256 W/m -0,2 C 6,1 C 4,8 km/h (1 Bft) 95,74 %
16.01.2019 14:00 6,2 C 3,3 C 7,2 C 64 % 1013,9 hPa 0,0 l/m 2,2 km/h (1 Bft) SW 220 2 min 0,153 mm 0,5 UV-I 248 W/m -0,1 C 6,2 C 4,8 km/h (1 Bft) 95,74 %
16.01.2019 14:02 6,1 C 3,3 C 6,7 C 64 % 1013,9 hPa 0,0 l/m 3,6 km/h (1 Bft) SW 215 2 min 0,000 mm 0,5 UV-I 242 W/m -0,2 C 6,1 C 6,4 km/h (2 Bft) 95,74 %
16.01.2019 14:04 5,9 C 3,3 C 6,7 C 64 % 1013,9 hPa 0,0 l/m 1,7 km/h (1 Bft) SW 218 2 min 0,000 mm 0,2 UV-I 243 W/m -0,4 C 5,9 C 3,2 km/h (1 Bft) 97,87 %
16.01.2019 14:06 5,9 C 3,3 C 6,1 C 64 % 1013,8 hPa 0,0 l/m 3,0 km/h (1 Bft) W 267 2 min 0,000 mm 0,0 UV-I 240 W/m -0,4 C 5,9 C 4,8 km/h (1 Bft) 97,87 %
16.01.2019 14:08 5,8 C 3,3 C 6,1 C 64 % 1013,8 hPa 0,0 l/m 4,1 km/h (1 Bft) W-NW 294 2 min 0,000 mm 0,0 UV-I 240 W/m -0,5 C 5,8 C 8,0 km/h (2 Bft) 96,00 %
16.01.2019 14:10 5,8 C 3,3 C 6,1 C 64 % 1013,8 hPa 0,0 l/m 4,2 km/h (1 Bft) W-NW 288 2 min 0,000 mm 0,0 UV-I 239 W/m -0,5 C 5,8 C 4,8 km/h (1 Bft) 95,74 %
16.01.2019 14:12 5,8 C 3,3 C 6,1 C 64 % 1013,8 hPa 0,0 l/m 5,1 km/h (1 Bft) W-NW 289 2 min 0,000 mm 0,0 UV-I 238 W/m -0,5 C 5,8 C 8,0 km/h (2 Bft) 93,62 %
16.01.2019 14:14 5,9 C 3,3 C 6,7 C 64 % 1013,7 hPa 0,0 l/m 2,3 km/h (1 Bft) W-NW 288 2 min 0,000 mm 0,0 UV-I 237 W/m -0,4 C 5,9 C 6,4 km/h (2 Bft) 95,74 %
16.01.2019 14:16 6,0 C 3,3 C 6,7 C 64 % 1013,6 hPa 0,0 l/m 3,2 km/h (1 Bft) S-SW 211 2 min 0,000 mm 0,0 UV-I 232 W/m -0,3 C 6,0 C 4,8 km/h (1 Bft) 93,62 %
16.01.2019 14:18 6,1 C 3,3 C 6,1 C 64 % 1013,7 hPa 0,0 l/m 5,9 km/h (2 Bft) W-NW 290 2 min 0,000 mm 0,0 UV-I 234 W/m -0,2 C 6,1 C 12,9 km/h (3 Bft) 95,74 %
16.01.2019 14:20 6,1 C 3,3 C 6,1 C 64 % 1013,6 hPa 0,0 l/m 4,4 km/h (1 Bft) SW 221 2 min 0,000 mm 0,0 UV-I 234 W/m -0,2 C 6,1 C 8,0 km/h (2 Bft) 95,74 %
16.01.2019 14:22 6,0 C 3,3 C 6,1 C 64 % 1013,6 hPa 0,0 l/m 3,0 km/h (1 Bft) W-SW 237 2 min 0,000 mm 0,0 UV-I 227 W/m -0,3 C 6,0 C 4,8 km/h (1 Bft) 93,75 %
16.01.2019 14:24 5,9 C 3,3 C 6,1 C 64 % 1013,6 hPa 0,0 l/m 4,3 km/h (1 Bft) W 266 2 min 0,000 mm 0,0 UV-I 222 W/m -0,4 C 5,9 C 9,7 km/h (2 Bft) 93,62 %
16.01.2019 14:26 5,8 C 3,3 C 6,1 C 64 % 1013,6 hPa 0,0 l/m 8,1 km/h (2 Bft) W-SW 248 2 min 0,000 mm 0,0 UV-I 218 W/m -0,5 C 4,4 C 12,9 km/h (3 Bft) 95,74 %
16.01.2019 14:28 5,7 C 3,3 C 6,1 C 65 % 1013,5 hPa 0,0 l/m 4,8 km/h (1 Bft) W-SW 241 2 min 0,000 mm 0,0 UV-I 214 W/m -0,4 C 5,7 C 8,0 km/h (2 Bft) 94,74 %
16.01.2019 14:30 5,8 C 3,3 C 6,1 C 65 % 1013,5 hPa 0,0 l/m 6,9 km/h (2 Bft) W-SW 239 2 min 0,000 mm 0,0 UV-I 211 W/m -0,3 C 5,4 C 12,9 km/h (3 Bft) 94,00 %
16.01.2019 14:32 5,8 C 3,3 C 6,1 C 65 % 1013,5 hPa 0,0 l/m 5,0 km/h (1 Bft) SW 220 2 min 0,000 mm 0,0 UV-I 207 W/m -0,3 C 5,8 C 6,4 km/h (2 Bft) 95,74 %
16.01.2019 14:34 5,9 C 3,3 C 6,7 C 65 % 1013,5 hPa 0,0 l/m 7,7 km/h (2 Bft) SW 223 2 min 0,000 mm 0,0 UV-I 206 W/m -0,2 C 4,8 C 9,7 km/h (2 Bft) 97,87 %
16.01.2019 14:36 5,9 C 3,3 C 6,7 C 65 % 1013,5 hPa 0,0 l/m 4,0 km/h (1 Bft) W-NW 292 2 min 0,000 mm 0,0 UV-I 205 W/m -0,2 C 5,9 C 4,8 km/h (1 Bft) 94,00 %
16.01.2019 14:38 5,9 C 3,3 C 6,7 C 65 % 1013,5 hPa 0,0 l/m 4,6 km/h (1 Bft) W-NW 298 2 min 0,000 mm 0,0 UV-I 202 W/m -0,2 C 5,9 C 6,4 km/h (2 Bft) 97,87 %
16.01.2019 14:40 5,9 C 3,3 C 6,1 C 64 % 1013,5 hPa 0,0 l/m 3,0 km/h (1 Bft) NW 306 2 min 0,000 mm 0,0 UV-I 200 W/m -0,4 C 5,9 C 4,8 km/h (1 Bft) 95,74 %
16.01.2019 14:42 6,0 C 3,3 C 5,6 C 65 % 1013,4 hPa 0,0 l/m 2,8 km/h (1 Bft) NW 309 2 min 0,000 mm 0,0 UV-I 199 W/m -0,1 C 6,0 C 4,8 km/h (1 Bft) 94,74 %
16.01.2019 14:44 5,9 C 3,3 C 5,0 C 64 % 1013,4 hPa 0,0 l/m 3,9 km/h (1 Bft) W-SW 250 2 min 0,000 mm 0,0 UV-I 195 W/m -0,4 C 5,9 C 6,4 km/h (2 Bft) 97,87 %
16.01.2019 14:46 5,8 C 3,3 C 5,0 C 64 % 1013,4 hPa 0,0 l/m 3,7 km/h (1 Bft) W-SW 256 2 min 0,000 mm 0,0 UV-I 194 W/m -0,5 C 5,8 C 6,4 km/h (2 Bft) 96,00 %
16.01.2019 14:48 5,7 C 3,3 C 5,0 C 65 % 1013,4 hPa 0,0 l/m 5,2 km/h (1 Bft) W 267 2 min 0,000 mm 0,0 UV-I 192 W/m -0,4 C 5,7 C 9,7 km/h (2 Bft) 98,00 %
16.01.2019 14:50 5,7 C 3,3 C 5,0 C 65 % 1013,4 hPa 0,0 l/m 4,3 km/h (1 Bft) W 278 2 min 0,000 mm 0,0 UV-I 183 W/m -0,4 C 5,7 C 6,4 km/h (2 Bft) 100,00 %
16.01.2019 14:52 5,8 C 3,3 C 5,0 C 65 % 1013,4 hPa 0,0 l/m 6,5 km/h (2 Bft) SW 231 2 min 0,000 mm 0,0 UV-I 179 W/m -0,3 C 5,7 C 9,7 km/h (2 Bft) 100,00 %
16.01.2019 14:54 5,8 C 3,3 C 5,0 C 64 % 1013,4 hPa 0,0 l/m 6,4 km/h (2 Bft) SW 227 2 min 0,000 mm 0,0 UV-I 176 W/m -0,5 C 5,8 C 8,0 km/h (2 Bft) 97,87 %
16.01.2019 14:56 5,8 C 3,3 C 4,4 C 64 % 1013,4 hPa 0,0 l/m 6,0 km/h (2 Bft) S-SW 213 2 min 0,000 mm 0,0 UV-I 170 W/m -0,5 C 5,8 C 9,7 km/h (2 Bft) 100,00 %
16.01.2019 14:58 5,8 C 3,3 C 4,4 C 65 % 1013,4 hPa 0,0 l/m 4,9 km/h (1 Bft) SW 223 2 min 0,000 mm 0,0 UV-I 166 W/m -0,3 C 5,8 C 8,0 km/h (2 Bft) 100,00 %
16.01.2019 15:00 5,8 C 3,3 C 4,4 C 65 % 1013,3 hPa 0,0 l/m 5,7 km/h (1 Bft) S-SW 207 2 min 0,101 mm 0,0 UV-I 166 W/m -0,3 C 5,8 C 8,0 km/h (2 Bft) 100,00 %
16.01.2019 15:02 5,8 C 3,3 C 4,4 C 65 % 1013,3 hPa 0,0 l/m 4,7 km/h (1 Bft) S-SW 212 2 min 0,000 mm 0,0 UV-I 160 W/m -0,3 C 5,8 C 6,4 km/h (2 Bft) 100,00 %
16.01.2019 15:04 5,8 C 3,3 C 4,4 C 64 % 1013,3 hPa 0,0 l/m 3,1 km/h (1 Bft) S-SW 212 2 min 0,000 mm 0,0 UV-I 159 W/m -0,5 C 5,8 C 4,8 km/h (1 Bft) 100,00 %
16.01.2019 15:06 5,8 C 3,3 C 4,4 C 65 % 1013,2 hPa 0,0 l/m 2,2 km/h (1 Bft) S-SW 213 2 min 0,000 mm 0,0 UV-I 159 W/m -0,3 C 5,8 C 3,2 km/h (1 Bft) 97,14 %
16.01.2019 15:08 5,8 C 3,3 C 4,4 C 65 % 1013,2 hPa 0,0 l/m 2,1 km/h (1 Bft) S-SW 213 2 min 0,000 mm 0,0 UV-I 155 W/m -0,3 C 5,8 C 3,2 km/h (1 Bft) 97,87 %
16.01.2019 15:10 5,8 C 3,3 C 3,9 C 65 % 1013,2 hPa 0,0 l/m 1,8 km/h (1 Bft) S-SW 213 2 min 0,000 mm 0,0 UV-I 152 W/m -0,3 C 5,8 C 3,2 km/h (1 Bft) 97,87 %
16.01.2019 15:12 5,8 C 3,3 C 4,4 C 65 % 1013,1 hPa 0,0 l/m 3,4 km/h (1 Bft) S-SW 212 2 min 0,000 mm 0,0 UV-I 148 W/m -0,3 C 5,8 C 6,4 km/h (2 Bft) 95,74 %
16.01.2019 15:14 5,8 C 3,3 C 4,4 C 65 % 1013,1 hPa 0,0 l/m 1,9 km/h (1 Bft) S-SW 211 2 min 0,000 mm 0,0 UV-I 144 W/m -0,3 C 5,8 C 3,2 km/h (1 Bft) 97,87 %
16.01.2019 15:16 5,7 C 3,3 C 4,4 C 65 % 1013,2 hPa 0,0 l/m 3,2 km/h (1 Bft) SW 227 2 min 0,000 mm 0,0 UV-I 143 W/m -0,4 C 5,7 C 6,4 km/h (2 Bft) 93,62 %
16.01.2019 15:18 5,7 C 3,3 C 3,9 C 65 % 1013,2 hPa 0,0 l/m 3,2 km/h (1 Bft) SW 227 2 min 0,000 mm 0,0 UV-I 141 W/m -0,4 C 5,7 C 4,8 km/h (1 Bft) 97,87 %
16.01.2019 15:20 5,6 C 3,3 C 3,9 C 66 % 1013,2 hPa 0,0 l/m 4,3 km/h (1 Bft) SW 233 2 min 0,000 mm 0,0 UV-I 138 W/m -0,2 C 5,6 C 6,4 km/h (2 Bft) 95,74 %
16.01.2019 15:22 5,6 C 3,3 C 3,9 C 66 % 1013,2 hPa 0,0 l/m 1,9 km/h (1 Bft) SW 233 2 min 0,000 mm 0,0 UV-I 135 W/m -0,2 C 5,6 C 4,8 km/h (1 Bft) 93,62 %
16.01.2019 15:24 5,6 C 3,3 C 3,3 C 66 % 1013,1 hPa 0,0 l/m 1,5 km/h (1 Bft) SW 233 2 min 0,000 mm 0,0 UV-I 130 W/m -0,2 C 5,6 C 3,2 km/h (1 Bft) 93,62 %
16.01.2019 15:26 5,6 C 3,3 C 3,3 C 66 % 1013,1 hPa 0,0 l/m 2,6 km/h (1 Bft) SW 234 2 min 0,000 mm 0,0 UV-I 128 W/m -0,2 C 5,6 C 4,8 km/h (1 Bft) 93,62 %
16.01.2019 15:28 5,5 C 3,3 C 3,3 C 66 % 1013,1 hPa 0,0 l/m 2,1 km/h (1 Bft) SW 234 2 min 0,000 mm 0,0 UV-I 125 W/m -0,3 C 5,5 C 4,8 km/h (1 Bft) 92,00 %
16.01.2019 15:30 5,5 C 3,3 C 3,3 C 66 % 1013,0 hPa 0,0 l/m 2,2 km/h (1 Bft) SW 234 2 min 0,000 mm 0,0 UV-I 121 W/m -0,3 C 5,5 C 3,2 km/h (1 Bft) 93,62 %
16.01.2019 15:32 5,6 C 3,3 C 3,3 C 66 % 1013,1 hPa 0,0 l/m 1,1 km/h (1 Bft) SW 234 2 min 0,000 mm 0,0 UV-I 118 W/m -0,2 C 5,6 C 3,2 km/h (1 Bft) 89,36 %
16.01.2019 15:34 5,6 C 3,3 C 3,3 C 66 % 1013,0 hPa 0,0 l/m 2,5 km/h (1 Bft) SW 236 2 min 0,000 mm 0,0 UV-I 117 W/m -0,2 C 5,6 C 4,8 km/h (1 Bft) 91,49 %
16.01.2019 15:36 5,6 C 3,3 C 3,3 C 66 % 1013,0 hPa 0,0 l/m 2,0 km/h (1 Bft) SW 236 2 min 0,000 mm 0,0 UV-I 116 W/m -0,2 C 5,6 C 4,8 km/h (1 Bft) 94,00 %
16.01.2019 15:38 5,5 C 3,3 C 3,3 C 66 % 1013,0 hPa 0,0 l/m 1,8 km/h (1 Bft) SW 235 2 min 0,000 mm 0,0 UV-I 115 W/m -0,3 C 5,5 C 3,2 km/h (1 Bft) 91,67 %
16.01.2019 15:40 5,5 C 3,3 C 3,3 C 66 % 1012,9 hPa 0,0 l/m 0,2 km/h (0 Bft) SW 235 2 min 0,000 mm 0,0 UV-I 113 W/m -0,3 C 5,5 C 1,6 km/h (1 Bft) 91,49 %
16.01.2019 15:42 5,5 C 3,3 C 2,8 C 66 % 1012,9 hPa 0,0 l/m 0,0 km/h (0 Bft) SW 235 2 min 0,000 mm 0,0 UV-I 107 W/m -0,3 C 5,5 C 0,0 km/h (0 Bft) 91,49 %
16.01.2019 15:44 5,4 C 3,3 C 2,8 C 66 % 1012,9 hPa 0,0 l/m 0,1 km/h (0 Bft) SW 235 2 min 0,000 mm 0,0 UV-I 105 W/m -0,4 C 5,4 C 1,6 km/h (1 Bft) 93,62 %
16.01.2019 15:46 5,5 C 3,3 C 2,8 C 66 % 1012,8 hPa 0,0 l/m 1,4 km/h (1 Bft) SW 235 2 min 0,000 mm 0,0 UV-I 104 W/m -0,3 C 5,5 C 1,6 km/h (1 Bft) 93,62 %
16.01.2019 15:48 5,5 C 3,3 C 2,8 C 66 % 1012,8 hPa 0,0 l/m 0,9 km/h (0 Bft) SW 235 2 min 0,000 mm 0,0 UV-I 100 W/m -0,3 C 5,5 C 3,2 km/h (1 Bft) 94,74 %
16.01.2019 15:50 5,5 C 3,3 C 2,8 C 66 % 1012,8 hPa 0,0 l/m 0,4 km/h (0 Bft) SW 235 2 min 0,000 mm 0,0 UV-I 100 W/m -0,3 C 5,5 C 1,6 km/h (1 Bft) 94,00 %
16.01.2019 15:52 5,4 C 3,3 C 2,2 C 66 % 1012,8 hPa 0,0 l/m 0,0 km/h (0 Bft) SW 235 2 min 0,000 mm 0,0 UV-I 96 W/m -0,4 C 5,4 C 0,0 km/h (0 Bft) 93,62 %
16.01.2019 15:54 5,4 C 3,3 C 2,2 C 66 % 1012,7 hPa 0,0 l/m 1,5 km/h (1 Bft) SW 235 2 min 0,000 mm 0,0 UV-I 95 W/m -0,4 C 5,4 C 3,2 km/h (1 Bft) 95,74 %
16.01.2019 15:56 5,5 C 3,3 C 2,2 C 66 % 1012,7 hPa 0,0 l/m 0,2 km/h (0 Bft) SW 235 2 min 0,000 mm 0,0 UV-I 91 W/m -0,3 C 5,5 C 1,6 km/h (1 Bft) 93,62 %
16.01.2019 15:58 5,5 C 3,3 C 2,2 C 66 % 1012,7 hPa 0,0 l/m 1,2 km/h (1 Bft) SW 235 2 min 0,000 mm 0,0 UV-I 88 W/m -0,3 C 5,5 C 1,6 km/h (1 Bft) 96,00 %
16.01.2019 16:00 5,4 C 3,3 C 1,7 C 66 % 1012,7 hPa 0,0 l/m 0,7 km/h (0 Bft) SW 235 2 min 0,000 mm 0,0 UV-I 81 W/m -0,4 C 5,4 C 1,6 km/h (1 Bft) 91,49 %
16.01.2019 16:02 5,4 C 3,3 C 1,7 C 66 % 1012,7 hPa 0,0 l/m 0,0 km/h (0 Bft) SW 235 2 min 0,051 mm 0,0 UV-I 77 W/m -0,4 C 5,4 C 0,0 km/h (0 Bft) 93,62 %
16.01.2019 16:04 5,4 C 3,3 C 1,7 C 66 % 1012,7 hPa 0,0 l/m 0,0 km/h (0 Bft) SW 235 2 min 0,000 mm 0,0 UV-I 77 W/m -0,4 C 5,4 C 0,0 km/h (0 Bft) 91,49 %
16.01.2019 16:06 5,4 C 3,3 C 1,7 C 66 % 1012,7 hPa 0,0 l/m 0,0 km/h (0 Bft) SW 235 2 min 0,000 mm 0,0 UV-I 78 W/m -0,4 C 5,4 C 0,0 km/h (0 Bft) 94,74 %
16.01.2019 16:08 5,4 C 3,3 C 1,7 C 67 % 1012,7 hPa 0,0 l/m 0,0 km/h (0 Bft) SW 235 2 min 0,000 mm 0,0 UV-I 75 W/m -0,2 C 5,4 C 0,0 km/h (0 Bft) 95,83 %
16.01.2019 16:10 5,3 C 3,3 C 1,1 C 68 % 1012,7 hPa 0,0 l/m 0,0 km/h (0 Bft) SW 235 2 min 0,000 mm 0,0 UV-I 74 W/m -0,1 C 5,3 C 0,0 km/h (0 Bft) 93,62 %
16.01.2019 16:12 5,3 C 3,3 C 1,1 C 67 % 1012,7 hPa 0,0 l/m 0,0 km/h (0 Bft) SW 235 2 min 0,000 mm 0,0 UV-I 71 W/m -0,3 C 5,3 C 0,0 km/h (0 Bft) 93,62 %
16.01.2019 16:14 5,3 C 3,3 C 1,1 C 67 % 1012,6 hPa 0,0 l/m 0,0 km/h (0 Bft) SW 235 2 min 0,000 mm 0,0 UV-I 46 W/m -0,3 C 5,3 C 0,0 km/h (0 Bft) 95,74 %
16.01.2019 16:16 5,3 C 3,3 C 1,1 C 67 % 1012,6 hPa 0,0 l/m 0,0 km/h (0 Bft) SW 235 2 min 0,000 mm 0,0 UV-I 42 W/m -0,3 C 5,3 C 0,0 km/h (0 Bft) 95,74 %
16.01.2019 16:18 5,3 C 3,3 C 0,6 C 68 % 1012,5 hPa 0,0 l/m 0,0 km/h (0 Bft) SW 235 2 min 0,000 mm 0,0 UV-I 37 W/m -0,1 C 5,3 C 0,0 km/h (0 Bft) 92,00 %
16.01.2019 16:20 5,2 C 3,3 C 0,6 C 70 % 1012,5 hPa 0,0 l/m 0,0 km/h (0 Bft) SW 235 2 min 0,000 mm 0,0 UV-I 32 W/m 0,2 C 5,2 C 0,0 km/h (0 Bft) 90,00 %
16.01.2019 16:22 5,1 C 3,3 C 0,6 C 71 % 1012,4 hPa 0,0 l/m 0,0 km/h (0 Bft) SW 235 2 min 0,000 mm 0,0 UV-I 27 W/m 0,3 C 5,1 C 1,6 km/h (1 Bft) 92,11 %
16.01.2019 16:24 4,8 C 3,3 C 0,6 C 72 % 1012,5 hPa 0,0 l/m 1,1 km/h (1 Bft) SW 235 2 min 0,000 mm 0,0 UV-I 22 W/m 0,2 C 4,8 C 1,6 km/h (1 Bft) 93,62 %
16.01.2019 16:26 4,5 C 3,3 C 0,0 C 74 % 1012,4 hPa 0,0 l/m 1,7 km/h (1 Bft) SW 235 2 min 0,000 mm 0,0 UV-I 17 W/m 0,3 C 4,5 C 3,2 km/h (1 Bft) 94,12 %
16.01.2019 16:28 4,3 C 3,3 C 0,0 C 74 % 1012,4 hPa 0,0 l/m 1,7 km/h (1 Bft) SW 235 0 min 0,000 mm 0,0 UV-I 11 W/m 0,1 C 4,3 C 3,2 km/h (1 Bft) 92,00 %
16.01.2019 16:30 4,1 C 3,3 C 0,0 C 75 % 1012,4 hPa 0,0 l/m 1,2 km/h (1 Bft) SW 235 0 min 0,000 mm 0,0 UV-I 6 W/m 0,1 C 4,1 C 1,6 km/h (1 Bft) 90,24 %
16.01.2019 16:32 4,1 C 3,3 C 0,0 C 75 % 1012,4 hPa 0,0 l/m 1,0 km/h (0 Bft) SW 235 0 min 0,000 mm 0,0 UV-I 1 W/m 0,1 C 4,1 C 1,6 km/h (1 Bft) 95,74 %
16.01.2019 16:34 4,1 C 3,3 C -0,6 C 75 % 1012,3 hPa 0,0 l/m 1,3 km/h (1 Bft) SW 235 0 min 0,000 mm 0,0 UV-I 0 W/m 0,1 C 4,1 C 1,6 km/h (1 Bft) 94,00 %
16.01.2019 16:36 4,0 C 3,3 C -0,6 C 76 % 1012,3 hPa 0,0 l/m 1,6 km/h (1 Bft) SW 235 0 min 0,000 mm 0,0 UV-I 17 W/m 0,2 C 4,0 C 1,6 km/h (1 Bft) 97,87 %
16.01.2019 16:38 3,9 C 3,3 C -1,1 C 77 % 1012,3 hPa 0,0 l/m 1,3 km/h (1 Bft) SW 235 0 min 0,000 mm 0,0 UV-I 13 W/m 0,2 C 3,9 C 1,6 km/h (1 Bft) 95,74 %
16.01.2019 16:40 3,8 C 3,3 C -1,1 C 78 % 1012,3 hPa 0,0 l/m 0,0 km/h (0 Bft) SW 235 0 min 0,000 mm 0,0 UV-I 12 W/m 0,3 C 3,8 C 1,6 km/h (1 Bft) 94,00 %
16.01.2019 16:42 3,7 C 3,3 C -1,1 C 78 % 1012,3 hPa 0,0 l/m 0,6 km/h (0 Bft) SW 235 0 min 0,000 mm 0,0 UV-I 10 W/m 0,2 C 3,7 C 1,6 km/h (1 Bft) 94,00 %
16.01.2019 16:44 3,6 C 3,3 C -1,7 C 79 % 1012,3 hPa 0,0 l/m 1,0 km/h (0 Bft) SW 235 0 min 0,000 mm 0,0 UV-I 9 W/m 0,3 C 3,6 C 1,6 km/h (1 Bft) 100,00 %
16.01.2019 16:46 3,4 C 3,3 C -1,7 C 79 % 1012,3 hPa 0,0 l/m 1,4 km/h (1 Bft) SW 235 0 min 0,000 mm 0,0 UV-I 9 W/m 0,1 C 3,4 C 3,2 km/h (1 Bft) 96,08 %
16.01.2019 16:48 3,3 C 3,3 C -1,7 C 79 % 1012,3 hPa 0,0 l/m 1,7 km/h (1 Bft) SW 235 0 min 0,000 mm 0,0 UV-I 8 W/m 0,0 C 3,3 C 3,2 km/h (1 Bft) 93,62 %
16.01.2019 16:50 3,2 C 3,3 C -1,1 C 79 % 1012,2 hPa 0,0 l/m 1,8 km/h (1 Bft) SW 235 0 min 0,000 mm 0,0 UV-I 7 W/m -0,1 C 3,2 C 3,2 km/h (1 Bft) 97,92 %
16.01.2019 16:52 3,1 C 3,3 C -1,1 C 79 % 1012,2 hPa 0,0 l/m 2,2 km/h (1 Bft) SW 235 0 min 0,000 mm 0,0 UV-I 5 W/m -0,2 C 3,1 C 3,2 km/h (1 Bft) 97,87 %
16.01.2019 16:54 3,1 C 3,3 C -1,1 C 79 % 1012,2 hPa 0,0 l/m 2,3 km/h (1 Bft) SW 235 0 min 0,000 mm 0,0 UV-I 5 W/m -0,2 C 3,1 C 3,2 km/h (1 Bft) 95,74 %
16.01.2019 16:56 3,1 C 3,3 C -1,1 C 79 % 1012,2 hPa 0,0 l/m 2,5 km/h (1 Bft) SW 235 0 min 0,000 mm 0,0 UV-I 5 W/m -0,2 C 3,1 C 3,2 km/h (1 Bft) 95,74 %
16.01.2019 16:58 3,1 C 3,3 C -1,1 C 79 % 1012,2 hPa 0,0 l/m 2,0 km/h (1 Bft) SW 235 0 min 0,000 mm 0,0 UV-I 3 W/m -0,2 C 3,1 C 3,2 km/h (1 Bft) 95,74 %
16.01.2019 17:00 2,9 C 3,3 C -1,1 C 79 % 1012,2 hPa 0,0 l/m 2,0 km/h (1 Bft) SW 235 0 min 0,000 mm 0,0 UV-I 0 W/m -0,4 C 2,9 C 3,2 km/h (1 Bft) 95,74 %
16.01.2019 17:02 2,7 C 3,3 C -1,1 C 79 % 1012,2 hPa 0,0 l/m 2,4 km/h (1 Bft) SW 235 0 min 0,025 mm 0,0 UV-I 0 W/m -0,6 C 2,7 C 3,2 km/h (1 Bft) 100,00 %
16.01.2019 17:04 2,5 C 3,3 C -0,6 C 79 % 1012,1 hPa 0,0 l/m 3,0 km/h (1 Bft) SW 235 0 min 0,000 mm 0,0 UV-I 0 W/m -0,8 C 2,5 C 3,2 km/h (1 Bft) 98,15 %
16.01.2019 17:06 2,4 C 3,3 C -0,6 C 80 % 1012,1 hPa 0,0 l/m 3,0 km/h (1 Bft) SW 235 0 min 0,000 mm 0,0 UV-I 0 W/m -0,7 C 2,4 C 3,2 km/h (1 Bft) 98,00 %
16.01.2019 17:08 2,4 C 3,3 C -0,6 C 81 % 1012,1 hPa 0,0 l/m 2,4 km/h (1 Bft) SW 235 0 min 0,000 mm 0,0 UV-I 0 W/m -0,5 C 2,4 C 3,2 km/h (1 Bft) 100,00 %
16.01.2019 17:10 2,4 C 3,3 C -0,6 C 81 % 1012,1 hPa 0,0 l/m 2,6 km/h (1 Bft) SW 235 0 min 0,000 mm 0,0 UV-I 0 W/m -0,5 C 2,4 C 3,2 km/h (1 Bft) 97,87 %
16.01.2019 17:12 2,4 C 3,3 C -0,6 C 81 % 1012,1 hPa 0,0 l/m 3,5 km/h (1 Bft) SW 234 0 min 0,000 mm 0,0 UV-I 0 W/m -0,5 C 2,4 C 4,8 km/h (1 Bft) 100,00 %
16.01.2019 17:14 2,3 C 3,3 C -0,6 C 81 % 1012,0 hPa 0,0 l/m 4,4 km/h (1 Bft) S-SW 205 0 min 0,000 mm 0,0 UV-I 0 W/m -0,6 C 2,3 C 6,4 km/h (2 Bft) 100,00 %
16.01.2019 17:16 2,3 C 3,3 C 0,0 C 81 % 1011,9 hPa 0,0 l/m 4,8 km/h (1 Bft) S 178 0 min 0,000 mm 0,0 UV-I 0 W/m -0,6 C 2,3 C 6,4 km/h (2 Bft) 94,29 %
16.01.2019 17:18 2,3 C 3,3 C 0,0 C 81 % 1011,9 hPa 0,0 l/m 6,2 km/h (2 Bft) S-SO 165 0 min 0,000 mm 0,0 UV-I 0 W/m -0,6 C 2,3 C 8,0 km/h (2 Bft) 100,00 %
16.01.2019 17:20 2,2 C 3,3 C 0,0 C 81 % 1011,8 hPa 0,0 l/m 5,6 km/h (1 Bft) S-SO 165 0 min 0,000 mm 0,0 UV-I 0 W/m -0,7 C 2,2 C 8,0 km/h (2 Bft) 100,00 %
16.01.2019 17:22 2,2 C 3,3 C 0,0 C 81 % 1011,8 hPa 0,0 l/m 4,7 km/h (1 Bft) S-SO 165 0 min 0,000 mm 0,0 UV-I 0 W/m -0,7 C 2,2 C 6,4 km/h (2 Bft) 91,67 %
16.01.2019 17:25 2,2 C 3,3 C 0,0 C 81 % 1011,8 hPa 0,0 l/m 4,3 km/h (1 Bft) S-SO 165 0 min 0,000 mm 0,0 UV-I 0 W/m -0,7 C 2,2 C 6,4 km/h (2 Bft) 100,00 %
16.01.2019 17:26 2,2 C 3,3 C 0,0 C 81 % 1011,8 hPa 0,0 l/m 2,9 km/h (1 Bft) S-SO 165 0 min 0,000 mm 0,0 UV-I 0 W/m -0,7 C 2,2 C 3,2 km/h (1 Bft) 100,00 %
16.01.2019 17:28 2,2 C 3,3 C -0,6 C 81 % 1011,8 hPa 0,0 l/m 4,3 km/h (1 Bft) S-SO 165 0 min 0,000 mm 0,0 UV-I 0 W/m -0,7 C 2,2 C 6,4 km/h (2 Bft) 100,00 %
16.01.2019 17:30 2,2 C 3,3 C -1,1 C 81 % 1011,8 hPa 0,0 l/m 6,5 km/h (2 Bft) S-SO 164 0 min 0,000 mm 0,0 UV-I 0 W/m -0,7 C 2,1 C 8,0 km/h (2 Bft) 100,00 %
16.01.2019 17:32 2,1 C 3,3 C -1,1 C 82 % 1011,8 hPa 0,0 l/m 6,1 km/h (2 Bft) S-SO 161 0 min 0,000 mm 0,0 UV-I 0 W/m -0,6 C 2,1 C 8,0 km/h (2 Bft) 100,00 %
16.01.2019 17:34 2,1 C 3,3 C -1,7 C 82 % 1011,7 hPa 0,0 l/m 4,4 km/h (1 Bft) S-SO 161 0 min 0,000 mm 0,0 UV-I 0 W/m -0,6 C 2,1 C 6,4 km/h (2 Bft) 100,00 %
16.01.2019 17:36 2,1 C 3,3 C -1,7 C 82 % 1011,8 hPa 0,0 l/m 3,0 km/h (1 Bft) S-SO 161 0 min 0,000 mm 0,0 UV-I 0 W/m -0,6 C 2,1 C 6,4 km/h (2 Bft) 100,00 %
16.01.2019 17:38 2,1 C 3,3 C -1,7 C 82 % 1011,8 hPa 0,0 l/m 3,2 km/h (1 Bft) S-SO 161 0 min 0,000 mm 0,0 UV-I 0 W/m -0,6 C 2,1 C 6,4 km/h (2 Bft) 100,00 %
16.01.2019 17:40 2,1 C 3,3 C -1,7 C 82 % 1011,8 hPa 0,0 l/m 3,4 km/h (1 Bft) S-SO 161 0 min 0,000 mm 0,0 UV-I 0 W/m -0,6 C 2,1 C 6,4 km/h (2 Bft) 100,00 %
16.01.2019 17:42 2,0 C 3,3 C -1,7 C 82 % 1011,8 hPa 0,0 l/m 2,5 km/h (1 Bft) S-SO 161 0 min 0,000 mm 0,0 UV-I 0 W/m -0,7 C 2,0 C 3,2 km/h (1 Bft) 100,00 %
16.01.2019 17:44 1,9 C 3,3 C -2,2 C 82 % 1011,7 hPa 0,0 l/m 3,1 km/h (1 Bft) S-SO 161 0 min 0,000 mm 0,0 UV-I 0 W/m -0,8 C 1,9 C 6,4 km/h (2 Bft) 94,34 %
16.01.2019 17:46 1,8 C 3,3 C -2,2 C 83 % 1011,6 hPa 0,0 l/m 3,5 km/h (1 Bft) S-SO 161 0 min 0,000 mm 0,0 UV-I 0 W/m -0,8 C 1,8 C 6,4 km/h (2 Bft) 97,87 %
16.01.2019 17:48 1,9 C 3,3 C -2,8 C 83 % 1011,6 hPa 0,0 l/m 3,2 km/h (1 Bft) S-SO 161 0 min 0,000 mm 0,0 UV-I 0 W/m -0,7 C 1,9 C 6,4 km/h (2 Bft) 100,00 %
16.01.2019 17:50 1,9 C 3,3 C -2,8 C 83 % 1011,5 hPa 0,0 l/m 3,0 km/h (1 Bft) S-SO 161 0 min 0,000 mm 0,0 UV-I 0 W/m -0,7 C 1,9 C 6,4 km/h (2 Bft) 97,87 %
16.01.2019 17:52 1,8 C 3,3 C -2,8 C 83 % 1011,5 hPa 0,0 l/m 2,5 km/h (1 Bft) S-SO 161 0 min 0,000 mm 0,0 UV-I 0 W/m -0,8 C 1,8 C 3,2 km/h (1 Bft) 97,87 %
16.01.2019 17:54 1,8 C 3,3 C -2,8 C 83 % 1011,5 hPa 0,0 l/m 3,2 km/h (1 Bft) S-SO 161 0 min 0,000 mm 0,0 UV-I 0 W/m -0,8 C 1,8 C 6,4 km/h (2 Bft) 95,74 %
16.01.2019 17:56 1,8 C 3,3 C -3,3 C 83 % 1011,6 hPa 0,0 l/m 1,4 km/h (1 Bft) S-SO 161 0 min 0,000 mm 0,0 UV-I 0 W/m -0,8 C 1,8 C 3,2 km/h (1 Bft) 97,87 %
16.01.2019 17:58 1,7 C 3,3 C -3,3 C 83 % 1011,6 hPa 0,0 l/m 0,8 km/h (0 Bft) S-SO 161 0 min 0,000 mm 0,0 UV-I 0 W/m -0,9 C 1,7 C 1,6 km/h (1 Bft) 97,87 %
16.01.2019 18:00 1,7 C 3,3 C -3,3 C 83 % 1011,6 hPa 0,0 l/m 0,0 km/h (0 Bft) S-SO 161 0 min 0,000 mm 0,0 UV-I 0 W/m -0,9 C 1,7 C 1,6 km/h (1 Bft) 97,87 %
16.01.2019 18:02 1,7 C 3,3 C -3,3 C 83 % 1011,6 hPa 0,0 l/m 0,0 km/h (0 Bft) S-SO 161 0 min 0,000 mm 0,0 UV-I 0 W/m -0,9 C 1,7 C 0,0 km/h (0 Bft) 96,00 %
16.01.2019 18:04 1,7 C 3,3 C -3,3 C 83 % 1011,6 hPa 0,0 l/m 0,0 km/h (0 Bft) S-SO 161 0 min 0,000 mm 0,0 UV-I 0 W/m -0,9 C 1,7 C 0,0 km/h (0 Bft) 96,00 %
16.01.2019 18:06 1,7 C 3,3 C -3,9 C 83 % 1011,6 hPa 0,0 l/m 0,0 km/h (0 Bft) S-SO 161 0 min 0,000 mm 0,0 UV-I 0 W/m -0,9 C 1,7 C 0,0 km/h (0 Bft) 97,87 %
16.01.2019 18:08 1,7 C 3,3 C -3,9 C 83 % 1011,6 hPa 0,0 l/m 0,4 km/h (0 Bft) S-SO 161 0 min 0,000 mm 0,0 UV-I 0 W/m -0,9 C 1,7 C 1,6 km/h (1 Bft) 95,83 %
16.01.2019 18:10 1,8 C 3,3 C -3,9 C 83 % 1011,6 hPa 0,0 l/m 1,3 km/h (1 Bft) S-SO 161 0 min 0,000 mm 0,0 UV-I 0 W/m -0,8 C 1,8 C 3,2 km/h (1 Bft) 95,74 %
16.01.2019 18:12 1,8 C 3,3 C -3,9 C 83 % 1011,6 hPa 0,0 l/m 0,1 km/h (0 Bft) S-SO 161 0 min 0,000 mm 0,0 UV-I 0 W/m -0,8 C 1,8 C 1,6 km/h (1 Bft) 97,87 %
16.01.2019 18:14 1,6 C 3,3 C -3,3 C 82 % 1011,6 hPa 0,0 l/m 0,0 km/h (0 Bft) S-SO 161 0 min 0,000 mm 0,0 UV-I 0 W/m -1,1 C 1,6 C 0,0 km/h (0 Bft) 100,00 %
16.01.2019 18:16 1,3 C 3,3 C -3,3 C 83 % 1011,6 hPa 0,0 l/m 0,0 km/h (0 Bft) S-SO 161 0 min 0,000 mm 0,0 UV-I 0 W/m -1,3 C 1,3 C 0,0 km/h (0 Bft) 100,00 %
16.01.2019 18:18 1,3 C 3,3 C -2,8 C 85 % 1011,6 hPa 0,0 l/m 0,0 km/h (0 Bft) S-SO 161 0 min 0,000 mm 0,0 UV-I 0 W/m -0,9 C 1,3 C 0,0 km/h (0 Bft) 98,00 %
16.01.2019 18:20 1,2 C 3,3 C -2,8 C 85 % 1011,6 hPa 0,0 l/m 0,5 km/h (0 Bft) S-SO 161 0 min 0,000 mm 0,0 UV-I 0 W/m -1,0 C 1,2 C 3,2 km/h (1 Bft) 97,87 %
16.01.2019 18:22 1,2 C 3,3 C -2,2 C 85 % 1011,6 hPa 0,0 l/m 0,6 km/h (0 Bft) S-SO 161 0 min 0,000 mm 0,0 UV-I 0 W/m -1,0 C 1,2 C 3,2 km/h (1 Bft) 95,74 %
16.01.2019 18:24 1,2 C 3,3 C -2,2 C 85 % 1011,6 hPa 0,0 l/m 1,2 km/h (1 Bft) S-SO 161 0 min 0,000 mm 0,0 UV-I 0 W/m -1,0 C 1,2 C 3,2 km/h (1 Bft) 100,00 %
16.01.2019 18:26 1,3 C 3,3 C -2,2 C 85 % 1011,6 hPa 0,0 l/m 1,5 km/h (1 Bft) S-SO 161 0 min 0,000 mm 0,0 UV-I 0 W/m -0,9 C 1,3 C 3,2 km/h (1 Bft) 97,87 %
16.01.2019 18:28 1,2 C 3,3 C -2,8 C 85 % 1011,6 hPa 0,0 l/m 0,4 km/h (0 Bft) S-SO 161 0 min 0,000 mm 0,0 UV-I 0 W/m -1,0 C 1,2 C 1,6 km/h (1 Bft) 97,56 %
16.01.2019 18:30 1,2 C 3,3 C -2,8 C 85 % 1011,6 hPa 0,0 l/m 0,0 km/h (0 Bft) S-SO 161 0 min 0,000 mm 0,0 UV-I 0 W/m -1,0 C 1,2 C 1,6 km/h (1 Bft) 100,00 %
16.01.2019 18:32 1,3 C 3,3 C -2,8 C 85 % 1011,6 hPa 0,0 l/m 0,1 km/h (0 Bft) S-SO 161 0 min 0,000 mm 0,0 UV-I 0 W/m -0,9 C 1,3 C 1,6 km/h (1 Bft) 97,87 %
16.01.2019 18:34 1,2 C 3,3 C -2,8 C 85 % 1011,6 hPa 0,0 l/m 0,0 km/h (0 Bft) S-SO 161 0 min 0,000 mm 0,0 UV-I 0 W/m -1,0 C 1,2 C 0,0 km/h (0 Bft) 100,00 %
16.01.2019 18:36 1,2 C 3,3 C -2,8 C 85 % 1011,5 hPa 0,0 l/m 0,0 km/h (0 Bft) S-SO 161 0 min 0,000 mm 0,0 UV-I 0 W/m -1,0 C 1,2 C 0,0 km/h (0 Bft) 100,00 %
16.01.2019 18:38 1,1 C 3,3 C -2,2 C 85 % 1011,5 hPa 0,0 l/m 1,0 km/h (0 Bft) S-SO 161 0 min 0,000 mm 0,0 UV-I 0 W/m -1,1 C 1,1 C 1,6 km/h (1 Bft) 100,00 %
16.01.2019 18:40 0,9 C 3,3 C -2,2 C 85 % 1011,4 hPa 0,0 l/m 2,1 km/h (1 Bft) S-SO 161 0 min 0,000 mm 0,0 UV-I 0 W/m -1,3 C 0,9 C 3,2 km/h (1 Bft) 100,00 %
16.01.2019 18:42 0,7 C 3,3 C -2,8 C 85 % 1011,5 hPa 0,0 l/m 0,9 km/h (0 Bft) S-SO 161 0 min 0,000 mm 0,0 UV-I 0 W/m -1,5 C 0,7 C 1,6 km/h (1 Bft) 97,96 %
16.01.2019 18:44 0,7 C 3,3 C -2,8 C 86 % 1011,5 hPa 0,0 l/m 0,2 km/h (0 Bft) S-SO 161 0 min 0,000 mm 0,0 UV-I 0 W/m -1,4 C 0,7 C 1,6 km/h (1 Bft) 100,00 %
16.01.2019 18:46 0,7 C 3,3 C -2,8 C 87 % 1011,5 hPa 0,0 l/m 0,0 km/h (0 Bft) S-SO 161 0 min 0,000 mm 0,0 UV-I 0 W/m -1,2 C 0,7 C 0,0 km/h (0 Bft) 97,87 %
16.01.2019 18:48 0,7 C 3,3 C -2,8 C 87 % 1011,5 hPa 0,0 l/m 0,0 km/h (0 Bft) S-SO 161 0 min 0,000 mm 0,0 UV-I 0 W/m -1,2 C 0,7 C 0,0 km/h (0 Bft) 100,00 %
16.01.2019 18:50 0,8 C 3,3 C -2,8 C 87 % 1011,4 hPa 0,0 l/m 0,0 km/h (0 Bft) S-SO 161 0 min 0,000 mm 0,0 UV-I 0 W/m -1,1 C 0,8 C 0,0 km/h (0 Bft) 100,00 %
16.01.2019 18:52 0,9 C 3,3 C -2,2 C 87 % 1011,5 hPa 0,0 l/m 1,0 km/h (0 Bft) S-SO 161 0 min 0,000 mm 0,0 UV-I 0 W/m -1,0 C 0,9 C 1,6 km/h (1 Bft) 100,00 %
16.01.2019 18:54 0,9 C 3,3 C -2,2 C 86 % 1011,4 hPa 0,0 l/m 0,8 km/h (0 Bft) S-SO 161 0 min 0,000 mm 0,0 UV-I 0 W/m -1,2 C 0,9 C 1,6 km/h (1 Bft) 100,00 %
16.01.2019 18:56 0,8 C 3,3 C -2,2 C 86 % 1011,4 hPa 0,0 l/m 1,8 km/h (1 Bft) S-SO 162 0 min 0,000 mm 0,0 UV-I 0 W/m -1,3 C 0,8 C 3,2 km/h (1 Bft) 97,87 %
16.01.2019 18:58 0,8 C 3,3 C -2,2 C 87 % 1011,4 hPa 0,0 l/m 1,9 km/h (1 Bft) S-SO 163 0 min 0,000 mm 0,0 UV-I 0 W/m -1,1 C 0,8 C 3,2 km/h (1 Bft) 95,74 %
16.01.2019 19:00 0,8 C 3,3 C -2,2 C 87 % 1011,4 hPa 0,0 l/m 3,0 km/h (1 Bft) S-SO 168 0 min 0,000 mm 0,0 UV-I 0 W/m -1,1 C 0,8 C 6,4 km/h (2 Bft) 95,12 %
16.01.2019 19:02 0,8 C 3,3 C -2,8 C 87 % 1011,4 hPa 0,0 l/m 4,5 km/h (1 Bft) S 171 0 min 0,000 mm 0,0 UV-I 0 W/m -1,1 C 0,8 C 6,4 km/h (2 Bft) 91,49 %
16.01.2019 19:04 0,8 C 3,3 C -2,2 C 87 % 1011,4 hPa 0,0 l/m 3,5 km/h (1 Bft) S 173 0 min 0,000 mm 0,0 UV-I 0 W/m -1,1 C 0,8 C 6,4 km/h (2 Bft) 91,49 %
16.01.2019 19:06 0,8 C 3,3 C -2,2 C 86 % 1011,4 hPa 0,0 l/m 3,0 km/h (1 Bft) S 175 0 min 0,000 mm 0,0 UV-I 0 W/m -1,3 C 0,8 C 4,8 km/h (1 Bft) 95,74 %
16.01.2019 19:10 0,7 C 3,3 C -1,7 C 86 % 1011,4 hPa 0,0 l/m 1,6 km/h (1 Bft) S 180 0 min 0,000 mm 0,0 UV-I 0 W/m -1,4 C 0,7 C 3,2 km/h (1 Bft) 100,00 %
16.01.2019 19:15 0,2 C 3,3 C -1,7 C 87 % 1011,4 hPa 0,0 l/m 1,6 km/h (1 Bft) S 180 0 min 0,000 mm 0,0 UV-I 0 W/m -1,7 C 0,2 C 4,8 km/h (1 Bft) 100,00 %
16.01.2019 19:20 0,4 C 3,3 C -1,7 C 88 % 1011,4 hPa 0,0 l/m 3,2 km/h (1 Bft) S 180 0 min 0,000 mm 0,0 UV-I 0 W/m -1,3 C 0,4 C 4,8 km/h (1 Bft) 99,12 %
16.01.2019 19:25 0,5 C 3,3 C -1,7 C 88 % 1011,4 hPa 0,0 l/m 3,2 km/h (1 Bft) S 180 0 min 0,000 mm 0,0 UV-I 0 W/m -1,3 C 0,5 C 6,4 km/h (2 Bft) 100,00 %
16.01.2019 19:32 0,4 C 3,3 C -1,7 C 87 % 1011,4 hPa 0,0 l/m 3,3 km/h (1 Bft) S 175 0 min 0,000 mm 0,0 UV-I 0 W/m -1,5 C 0,4 C 4,8 km/h (1 Bft) 95,34 %
16.01.2019 19:34 0,3 C 3,3 C -1,7 C 88 % 1011,4 hPa 0,0 l/m 2,3 km/h (1 Bft) S 175 0 min 0,000 mm 0,0 UV-I 0 W/m -1,4 C 0,3 C 3,2 km/h (1 Bft) 97,87 %
16.01.2019 19:36 0,4 C 3,3 C -1,7 C 88 % 1011,3 hPa 0,0 l/m 1,8 km/h (1 Bft) S 175 0 min 0,000 mm 0,0 UV-I 0 W/m -1,3 C 0,4 C 3,2 km/h (1 Bft) 95,74 %
16.01.2019 19:38 0,4 C 3,3 C -1,7 C 88 % 1011,3 hPa 0,0 l/m 2,0 km/h (1 Bft) S 175 0 min 0,000 mm 0,0 UV-I 0 W/m -1,3 C 0,4 C 3,2 km/h (1 Bft) 97,87 %
16.01.2019 19:40 0,5 C 3,3 C -1,7 C 88 % 1011,3 hPa 0,0 l/m 1,8 km/h (1 Bft) S 175 0 min 0,000 mm 0,0 UV-I 0 W/m -1,3 C 0,5 C 3,2 km/h (1 Bft) 97,87 %
16.01.2019 19:42 0,6 C 3,3 C -1,1 C 88 % 1011,3 hPa 0,0 l/m 1,9 km/h (1 Bft) S 175 0 min 0,000 mm 0,0 UV-I 0 W/m -1,2 C 0,6 C 3,2 km/h (1 Bft) 93,62 %
16.01.2019 19:44 0,7 C 3,3 C -1,7 C 87 % 1011,2 hPa 0,0 l/m 1,7 km/h (1 Bft) S 175 0 min 0,000 mm 0,0 UV-I 0 W/m -1,2 C 0,7 C 3,2 km/h (1 Bft) 98,00 %
16.01.2019 19:46 0,9 C 3,3 C -1,7 C 87 % 1011,2 hPa 0,0 l/m 1,6 km/h (1 Bft) S 175 0 min 0,000 mm 0,0 UV-I 0 W/m -1,0 C 0,9 C 3,2 km/h (1 Bft) 95,74 %
16.01.2019 19:48 1,0 C 3,3 C -1,7 C 86 % 1011,2 hPa 0,0 l/m 0,9 km/h (0 Bft) S 175 0 min 0,000 mm 0,0 UV-I 0 W/m -1,1 C 1,0 C 1,6 km/h (1 Bft) 94,44 %
16.01.2019 19:50 1,1 C 3,3 C -1,7 C 86 % 1011,2 hPa 0,0 l/m 1,5 km/h (1 Bft) S 175 0 min 0,000 mm 0,0 UV-I 0 W/m -1,0 C 1,1 C 1,6 km/h (1 Bft) 97,87 %
16.01.2019 19:52 1,1 C 3,3 C -1,7 C 85 % 1011,1 hPa 0,0 l/m 1,3 km/h (1 Bft) S 175 0 min 0,000 mm 0,0 UV-I 0 W/m -1,1 C 1,1 C 3,2 km/h (1 Bft) 91,49 %
16.01.2019 19:54 1,2 C 3,3 C -1,7 C 85 % 1011,1 hPa 0,0 l/m 2,1 km/h (1 Bft) S 175 0 min 0,000 mm 0,0 UV-I 0 W/m -1,0 C 1,2 C 3,2 km/h (1 Bft) 98,00 %
16.01.2019 19:56 1,2 C 3,3 C -1,7 C 84 % 1011,1 hPa 0,0 l/m 1,2 km/h (1 Bft) S 175 0 min 0,000 mm 0,0 UV-I 0 W/m -1,2 C 1,2 C 1,6 km/h (1 Bft) 97,87 %
16.01.2019 19:58 1,1 C 3,3 C -1,7 C 85 % 1011,1 hPa 0,0 l/m 1,0 km/h (0 Bft) S 175 0 min 0,000 mm 0,0 UV-I 0 W/m -1,1 C 1,1 C 1,6 km/h (1 Bft) 95,74 %
16.01.2019 20:00 1,0 C 3,3 C -1,7 C 85 % 1011,1 hPa 0,0 l/m 1,9 km/h (1 Bft) S 175 0 min 0,000 mm 0,0 UV-I 0 W/m -1,2 C 1,0 C 3,2 km/h (1 Bft) 97,87 %
16.01.2019 20:02 0,8 C 3,3 C -1,1 C 85 % 1011,1 hPa 0,0 l/m 1,8 km/h (1 Bft) S 175 0 min 0,000 mm 0,0 UV-I 0 W/m -1,4 C 0,8 C 3,2 km/h (1 Bft) 97,87 %
16.01.2019 20:04 0,6 C 3,3 C -1,1 C 86 % 1011,1 hPa 0,0 l/m 2,6 km/h (1 Bft) S 175 0 min 0,000 mm 0,0 UV-I 0 W/m -1,5 C 0,6 C 3,2 km/h (1 Bft) 95,74 %
16.01.2019 20:06 0,5 C 3,3 C -1,1 C 87 % 1011,0 hPa 0,0 l/m 2,3 km/h (1 Bft) S 175 0 min 0,000 mm 0,0 UV-I 0 W/m -1,4 C 0,5 C 3,2 km/h (1 Bft) 97,87 %
16.01.2019 20:08 0,4 C 3,3 C -1,1 C 87 % 1011,0 hPa 0,0 l/m 2,2 km/h (1 Bft) S 175 0 min 0,000 mm 0,0 UV-I 0 W/m -1,5 C 0,4 C 3,2 km/h (1 Bft) 95,74 %
16.01.2019 20:10 0,4 C 3,3 C -1,1 C 87 % 1011,0 hPa 0,0 l/m 2,6 km/h (1 Bft) S 175 0 min 0,000 mm 0,0 UV-I 0 W/m -1,5 C 0,4 C 4,8 km/h (1 Bft) 95,74 %
16.01.2019 20:12 0,4 C 3,3 C -1,1 C 87 % 1010,9 hPa 0,0 l/m 2,5 km/h (1 Bft) S 175 0 min 0,000 mm 0,0 UV-I 0 W/m -1,5 C 0,4 C 3,2 km/h (1 Bft) 98,00 %
16.01.2019 20:15 0,3 C 3,3 C -1,1 C 88 % 1010,9 hPa 0,0 l/m 3,2 km/h (1 Bft) S 180 0 min 0,000 mm 0,0 UV-I 0 W/m -1,4 C 0,3 C 3,2 km/h (1 Bft) 97,37 %
16.01.2019 20:18 0,2 C 3,3 C -1,1 C 88 % 1010,9 hPa 0,0 l/m 0,5 km/h (0 Bft) S 175 0 min 0,000 mm 0,0 UV-I 0 W/m -1,5 C 0,2 C 1,6 km/h (1 Bft) 95,56 %
16.01.2019 20:20 0,3 C 3,3 C -1,7 C 89 % 1010,9 hPa 0,0 l/m 1,8 km/h (1 Bft) S 175 0 min 0,000 mm 0,0 UV-I 0 W/m -1,3 C 0,3 C 3,2 km/h (1 Bft) 88,68 %
16.01.2019 20:22 0,4 C 3,3 C -1,7 C 88 % 1010,9 hPa 0,0 l/m 2,6 km/h (1 Bft) S 176 0 min 0,000 mm 0,0 UV-I 0 W/m -1,3 C 0,4 C 4,8 km/h (1 Bft) 97,87 %
16.01.2019 20:25 0,3 C 3,3 C -1,7 C 87 % 1010,9 hPa 0,0 l/m 3,2 km/h (1 Bft) S 180 0 min 0,000 mm 0,0 UV-I 0 W/m -1,6 C 0,3 C 4,8 km/h (1 Bft) 96,49 %
16.01.2019 20:32 0,3 C 3,3 C -1,7 C 88 % 1010,9 hPa 0,0 l/m 5,0 km/h (1 Bft) S 189 0 min 0,000 mm 0,0 UV-I 0 W/m -1,4 C 0,3 C 6,4 km/h (2 Bft) 92,95 %
16.01.2019 20:34 0,3 C 3,3 C -1,1 C 88 % 1010,8 hPa 0,0 l/m 4,3 km/h (1 Bft) S 189 0 min 0,000 mm 0,0 UV-I 0 W/m -1,4 C 0,3 C 6,4 km/h (2 Bft) 95,74 %
16.01.2019 20:36 0,4 C 3,3 C -1,7 C 88 % 1010,9 hPa 0,0 l/m 4,0 km/h (1 Bft) S 190 0 min 0,000 mm 0,0 UV-I 0 W/m -1,3 C 0,4 C 4,8 km/h (1 Bft) 95,74 %
16.01.2019 20:38 0,4 C 3,3 C -1,7 C 87 % 1010,9 hPa 0,0 l/m 3,9 km/h (1 Bft) S 190 0 min 0,000 mm 0,0 UV-I 0 W/m -1,5 C 0,4 C 4,8 km/h (1 Bft) 97,87 %
16.01.2019 20:40 0,4 C 3,3 C -1,7 C 87 % 1010,9 hPa 0,0 l/m 3,9 km/h (1 Bft) S-SW 194 0 min 0,000 mm 0,0 UV-I 0 W/m -1,5 C 0,4 C 4,8 km/h (1 Bft) 95,74 %
16.01.2019 20:42 0,5 C 3,3 C -1,7 C 87 % 1010,9 hPa 0,0 l/m 3,0 km/h (1 Bft) S-SW 194 0 min 0,000 mm 0,0 UV-I 0 W/m -1,4 C 0,5 C 4,8 km/h (1 Bft) 95,74 %
16.01.2019 20:44 0,6 C 3,3 C -2,2 C 87 % 1010,9 hPa 0,0 l/m 2,6 km/h (1 Bft) S-SW 194 0 min 0,000 mm 0,0 UV-I 0 W/m -1,3 C 0,6 C 4,8 km/h (1 Bft) 95,74 %
16.01.2019 20:46 0,6 C 3,3 C -2,2 C 87 % 1010,9 hPa 0,0 l/m 2,7 km/h (1 Bft) S-SW 196 0 min 0,000 mm 0,0 UV-I 0 W/m -1,3 C 0,6 C 4,8 km/h (1 Bft) 95,74 %
16.01.2019 20:48 0,6 C 3,3 C -2,2 C 87 % 1010,9 hPa 0,0 l/m 3,6 km/h (1 Bft) S-SW 196 0 min 0,000 mm 0,0 UV-I 0 W/m -1,3 C 0,6 C 4,8 km/h (1 Bft) 97,87 %
16.01.2019 20:50 0,6 C 3,3 C -2,2 C 87 % 1010,9 hPa 0,0 l/m 3,8 km/h (1 Bft) S-SW 196 0 min 0,000 mm 0,0 UV-I 0 W/m -1,3 C 0,6 C 4,8 km/h (1 Bft) 95,83 %
16.01.2019 20:52 0,6 C 3,3 C -2,2 C 87 % 1010,9 hPa 0,0 l/m 2,9 km/h (1 Bft) S-SW 196 0 min 0,000 mm 0,0 UV-I 0 W/m -1,3 C 0,6 C 4,8 km/h (1 Bft) 95,92 %
16.01.2019 20:54 0,6 C 3,3 C -2,2 C 87 % 1010,9 hPa 0,0 l/m 1,6 km/h (1 Bft) S-SW 196 0 min 0,000 mm 0,0 UV-I 0 W/m -1,3 C 0,6 C 3,2 km/h (1 Bft) 97,92 %
16.01.2019 20:56 0,6 C 3,3 C -2,2 C 87 % 1010,9 hPa 0,0 l/m 2,6 km/h (1 Bft) S-SW 196 0 min 0,000 mm 0,0 UV-I 0 W/m -1,3 C 0,6 C 4,8 km/h (1 Bft) 95,74 %
16.01.2019 20:58 0,6 C 3,3 C -2,2 C 87 % 1011,0 hPa 0,0 l/m 3,1 km/h (1 Bft) S-SW 196 0 min 0,000 mm 0,0 UV-I 0 W/m -1,3 C 0,6 C 4,8 km/h (1 Bft) 97,87 %
16.01.2019 21:00 0,5 C 3,3 C -2,2 C 87 % 1010,9 hPa 0,0 l/m 3,9 km/h (1 Bft) S-SW 196 0 min 0,000 mm 0,0 UV-I 0 W/m -1,4 C 0,5 C 4,8 km/h (1 Bft) 98,00 %
16.01.2019 21:02 0,4 C 3,3 C -2,2 C 87 % 1010,8 hPa 0,0 l/m 4,1 km/h (1 Bft) S-SW 196 0 min 0,000 mm 0,0 UV-I 0 W/m -1,5 C 0,4 C 4,8 km/h (1 Bft) 100,00 %
16.01.2019 21:04 0,3 C 3,3 C -2,2 C 87 % 1010,8 hPa 0,0 l/m 4,5 km/h (1 Bft) S-SW 196 0 min 0,000 mm 0,0 UV-I 0 W/m -1,6 C 0,3 C 4,8 km/h (1 Bft) 100,00 %
16.01.2019 21:06 0,3 C 3,3 C -2,2 C 88 % 1010,8 hPa 0,0 l/m 3,8 km/h (1 Bft) S-SW 200 0 min 0,000 mm 0,0 UV-I 0 W/m -1,4 C 0,3 C 6,4 km/h (2 Bft) 98,00 %
16.01.2019 21:08 0,3 C 3,3 C -2,2 C 88 % 1010,8 hPa 0,0 l/m 2,6 km/h (1 Bft) S-SW 200 0 min 0,000 mm 0,0 UV-I 0 W/m -1,4 C 0,3 C 4,8 km/h (1 Bft) 98,00 %
16.01.2019 21:10 0,3 C 3,3 C -2,2 C 88 % 1010,7 hPa 0,0 l/m 1,9 km/h (1 Bft) S-SW 200 0 min 0,000 mm 0,0 UV-I 0 W/m -1,4 C 0,3 C 3,2 km/h (1 Bft) 97,87 %
16.01.2019 21:12 0,4 C 3,3 C -2,2 C 88 % 1010,8 hPa 0,0 l/m 3,4 km/h (1 Bft) S-SW 200 0 min 0,000 mm 0,0 UV-I 0 W/m -1,3 C 0,4 C 4,8 km/h (1 Bft) 100,00 %
16.01.2019 21:14 0,4 C 3,3 C -2,2 C 88 % 1010,7 hPa 0,0 l/m 4,0 km/h (1 Bft) S-SW 200 0 min 0,000 mm 0,0 UV-I 0 W/m -1,3 C 0,4 C 6,4 km/h (2 Bft) 98,11 %
16.01.2019 21:16 0,5 C 3,3 C -2,2 C 88 % 1010,8 hPa 0,0 l/m 3,1 km/h (1 Bft) S-SW 200 0 min 0,000 mm 0,0 UV-I 0 W/m -1,3 C 0,5 C 4,8 km/h (1 Bft) 100,00 %
16.01.2019 21:18 0,5 C 3,3 C -2,2 C 88 % 1010,8 hPa 0,0 l/m 3,1 km/h (1 Bft) S-SW 200 0 min 0,000 mm 0,0 UV-I 0 W/m -1,3 C 0,5 C 4,8 km/h (1 Bft) 95,74 %
16.01.2019 21:20 0,6 C 3,3 C -2,2 C 87 % 1010,7 hPa 0,0 l/m 2,7 km/h (1 Bft) S-SW 200 0 min 0,000 mm 0,0 UV-I 0 W/m -1,3 C 0,6 C 3,2 km/h (1 Bft) 93,62 %
16.01.2019 21:22 0,6 C 3,3 C -2,8 C 87 % 1010,7 hPa 0,0 l/m 3,4 km/h (1 Bft) S-SW 200 0 min 0,000 mm 0,0 UV-I 0 W/m -1,3 C 0,6 C 4,8 km/h (1 Bft) 100,00 %
16.01.2019 21:24 0,6 C 3,3 C -2,2 C 87 % 1010,8 hPa 0,0 l/m 3,5 km/h (1 Bft) S-SW 200 0 min 0,000 mm 0,0 UV-I 0 W/m -1,3 C 0,6 C 4,8 km/h (1 Bft) 97,37 %
16.01.2019 21:26 0,4 C 3,3 C -2,8 C 87 % 1010,8 hPa 0,0 l/m 2,1 km/h (1 Bft) S-SW 200 0 min 0,000 mm 0,0 UV-I 0 W/m -1,5 C 0,4 C 3,2 km/h (1 Bft) 97,87 %
16.01.2019 21:28 0,4 C 3,3 C -2,8 C 88 % 1010,8 hPa 0,0 l/m 2,8 km/h (1 Bft) S-SW 200 0 min 0,000 mm 0,0 UV-I 0 W/m -1,3 C 0,4 C 3,2 km/h (1 Bft) 97,92 %
16.01.2019 21:30 0,5 C 3,3 C -2,2 C 88 % 1010,8 hPa 0,0 l/m 4,1 km/h (1 Bft) S-SW 200 0 min 0,000 mm 0,0 UV-I 0 W/m -1,3 C 0,5 C 4,8 km/h (1 Bft) 93,62 %
16.01.2019 21:32 0,5 C 3,3 C -2,2 C 87 % 1010,8 hPa 0,0 l/m 3,8 km/h (1 Bft) S-SW 200 0 min 0,000 mm 0,0 UV-I 0 W/m -1,4 C 0,5 C 4,8 km/h (1 Bft) 95,74 %
16.01.2019 21:34 0,4 C 3,3 C -1,7 C 87 % 1010,8 hPa 0,0 l/m 5,6 km/h (1 Bft) S-SW 192 0 min 0,000 mm 0,0 UV-I 0 W/m -1,5 C 0,4 C 6,4 km/h (2 Bft) 96,00 %
16.01.2019 21:36 0,3 C 3,3 C -1,7 C 87 % 1010,8 hPa 0,0 l/m 4,8 km/h (1 Bft) S 190 0 min 0,000 mm 0,0 UV-I 0 W/m -1,6 C 0,3 C 6,4 km/h (2 Bft) 97,87 %
16.01.2019 21:38 0,3 C 3,3 C -1,7 C 88 % 1010,8 hPa 0,0 l/m 4,9 km/h (1 Bft) S 190 0 min 0,000 mm 0,0 UV-I 0 W/m -1,4 C 0,3 C 6,4 km/h (2 Bft) 89,36 %
16.01.2019 21:40 0,3 C 3,3 C -1,7 C 88 % 1010,8 hPa 0,0 l/m 4,4 km/h (1 Bft) S 190 0 min 0,000 mm 0,0 UV-I 0 W/m -1,4 C 0,3 C 4,8 km/h (1 Bft) 93,62 %
16.01.2019 21:42 0,3 C 3,3 C -1,7 C 88 % 1010,8 hPa 0,0 l/m 4,2 km/h (1 Bft) S-SW 199 0 min 0,000 mm 0,0 UV-I 0 W/m -1,4 C 0,3 C 6,4 km/h (2 Bft) 97,56 %
16.01.2019 21:44 0,3 C 3,3 C -1,7 C 88 % 1010,8 hPa 0,0 l/m 3,9 km/h (1 Bft) S-SW 200 0 min 0,000 mm 0,0 UV-I 0 W/m -1,4 C 0,3 C 4,8 km/h (1 Bft) 91,49 %
16.01.2019 21:46 0,3 C 3,3 C -1,7 C 88 % 1010,8 hPa 0,0 l/m 3,8 km/h (1 Bft) S-SW 200 0 min 0,000 mm 0,0 UV-I 0 W/m -1,4 C 0,3 C 4,8 km/h (1 Bft) 95,74 %
16.01.2019 21:48 0,3 C 3,3 C -2,2 C 88 % 1010,8 hPa 0,0 l/m 3,4 km/h (1 Bft) S-SW 200 0 min 0,000 mm 0,0 UV-I 0 W/m -1,4 C 0,3 C 4,8 km/h (1 Bft) 95,74 %
16.01.2019 21:50 0,3 C 3,3 C -2,2 C 89 % 1010,8 hPa 0,0 l/m 3,8 km/h (1 Bft) S-SW 199 0 min 0,000 mm 0,0 UV-I 0 W/m -1,3 C 0,3 C 4,8 km/h (1 Bft) 96,00 %
16.01.2019 21:52 0,4 C 3,3 C -2,2 C 88 % 1010,7 hPa 0,0 l/m 3,6 km/h (1 Bft) S-SW 200 0 min 0,000 mm 0,0 UV-I 0 W/m -1,3 C 0,4 C 4,8 km/h (1 Bft) 95,74 %
16.01.2019 21:54 0,4 C 3,3 C -2,2 C 88 % 1010,7 hPa 0,0 l/m 4,0 km/h (1 Bft) S-SW 199 0 min 0,000 mm 0,0 UV-I 0 W/m -1,3 C 0,4 C 4,8 km/h (1 Bft) 95,74 %
16.01.2019 21:56 0,4 C 3,3 C -2,2 C 88 % 1010,8 hPa 0,0 l/m 3,4 km/h (1 Bft) S-SW 200 0 min 0,000 mm 0,0 UV-I 0 W/m -1,3 C 0,4 C 4,8 km/h (1 Bft) 95,74 %
16.01.2019 21:58 0,3 C 3,3 C -2,2 C 88 % 1010,7 hPa 0,0 l/m 3,9 km/h (1 Bft) S-SW 199 0 min 0,000 mm 0,0 UV-I 0 W/m -1,4 C 0,3 C 6,4 km/h (2 Bft) 97,92 %
16.01.2019 22:00 0,2 C 3,3 C -2,2 C 88 % 1010,7 hPa 0,0 l/m 3,6 km/h (1 Bft) S-SW 200 0 min 0,000 mm 0,0 UV-I 0 W/m -1,5 C 0,2 C 4,8 km/h (1 Bft) 94,74 %
16.01.2019 22:02 0,2 C 3,3 C -2,2 C 88 % 1010,7 hPa 0,0 l/m 4,5 km/h (1 Bft) S-SW 198 0 min 0,000 mm 0,0 UV-I 0 W/m -1,5 C 0,2 C 6,4 km/h (2 Bft) 96,00 %
16.01.2019 22:04 0,1 C 3,3 C -2,2 C 89 % 1010,7 hPa 0,0 l/m 4,5 km/h (1 Bft) S-SW 198 0 min 0,000 mm 0,0 UV-I 0 W/m -1,5 C 0,1 C 6,4 km/h (2 Bft) 93,62 %
16.01.2019 22:06 0,1 C 3,3 C -2,2 C 89 % 1010,7 hPa 0,0 l/m 4,2 km/h (1 Bft) S-SW 198 0 min 0,000 mm 0,0 UV-I 0 W/m -1,5 C 0,1 C 4,8 km/h (1 Bft) 98,11 %
16.01.2019 22:08 0,3 C 3,3 C -1,7 C 90 % 1010,8 hPa 0,0 l/m 5,2 km/h (1 Bft) S-SW 198 0 min 0,000 mm 0,0 UV-I 0 W/m -1,1 C 0,3 C 8,0 km/h (2 Bft) 98,00 %
16.01.2019 22:10 0,5 C 3,3 C -1,7 C 89 % 1010,7 hPa 0,0 l/m 4,0 km/h (1 Bft) S-SW 199 0 min 0,000 mm 0,0 UV-I 0 W/m -1,1 C 0,5 C 4,8 km/h (1 Bft) 95,74 %
16.01.2019 22:12 0,7 C 3,3 C -1,7 C 88 % 1010,7 hPa 0,0 l/m 4,5 km/h (1 Bft) S-SW 199 0 min 0,000 mm 0,0 UV-I 0 W/m -1,1 C 0,7 C 6,4 km/h (2 Bft) 95,74 %
16.01.2019 22:14 0,8 C 3,3 C -1,7 C 88 % 1010,7 hPa 0,0 l/m 4,0 km/h (1 Bft) S-SW 199 0 min 0,000 mm 0,0 UV-I 0 W/m -1,0 C 0,8 C 4,8 km/h (1 Bft) 95,74 %
16.01.2019 22:16 0,8 C 3,3 C -1,7 C 87 % 1010,7 hPa 0,0 l/m 4,2 km/h (1 Bft) S-SW 199 0 min 0,000 mm 0,0 UV-I 0 W/m -1,1 C 0,8 C 6,4 km/h (2 Bft) 100,00 %
16.01.2019 22:18 0,9 C 3,3 C -1,7 C 87 % 1010,7 hPa 0,0 l/m 3,8 km/h (1 Bft) S-SW 199 0 min 0,000 mm 0,0 UV-I 0 W/m -1,0 C 0,9 C 4,8 km/h (1 Bft) 100,00 %
16.01.2019 22:20 0,8 C 3,3 C -1,7 C 87 % 1010,7 hPa 0,0 l/m 3,5 km/h (1 Bft) S-SW 199 0 min 0,000 mm 0,0 UV-I 0 W/m -1,1 C 0,8 C 4,8 km/h (1 Bft) 97,87 %
16.01.2019 22:22 0,8 C 3,3 C -1,7 C 86 % 1010,6 hPa 0,0 l/m 4,4 km/h (1 Bft) S-SW 199 0 min 0,000 mm 0,0 UV-I 0 W/m -1,3 C 0,8 C 4,8 km/h (1 Bft) 100,00 %
16.01.2019 22:24 0,8 C 3,3 C -1,7 C 86 % 1010,6 hPa 0,0 l/m 3,0 km/h (1 Bft) S-SW 199 0 min 0,000 mm 0,0 UV-I 0 W/m -1,3 C 0,8 C 4,8 km/h (1 Bft) 98,00 %
16.01.2019 22:26 0,6 C 3,3 C -2,2 C 86 % 1010,6 hPa 0,0 l/m 1,3 km/h (1 Bft) S-SW 199 0 min 0,000 mm 0,0 UV-I 0 W/m -1,5 C 0,6 C 3,2 km/h (1 Bft) 97,87 %
16.01.2019 22:28 0,4 C 3,3 C -2,8 C 87 % 1010,6 hPa 0,0 l/m 0,9 km/h (0 Bft) S-SW 199 0 min 0,000 mm 0,0 UV-I 0 W/m -1,5 C 0,4 C 3,2 km/h (1 Bft) 98,00 %
16.01.2019 22:30 0,4 C 3,3 C -3,3 C 87 % 1010,6 hPa 0,0 l/m 1,7 km/h (1 Bft) S-SW 199 0 min 0,000 mm 0,0 UV-I 0 W/m -1,5 C 0,4 C 3,2 km/h (1 Bft) 95,74 %
16.01.2019 22:32 0,3 C 3,3 C -3,3 C 87 % 1010,6 hPa 0,0 l/m 1,4 km/h (1 Bft) S-SW 199 0 min 0,000 mm 0,0 UV-I 0 W/m -1,6 C 0,3 C 3,2 km/h (1 Bft) 100,00 %
16.01.2019 22:34 0,3 C 3,3 C -3,3 C 87 % 1010,6 hPa 0,0 l/m 3,2 km/h (1 Bft) S-SW 199 0 min 0,000 mm 0,0 UV-I 0 W/m -1,6 C 0,3 C 4,8 km/h (1 Bft) 97,87 %
16.01.2019 22:36 0,2 C 3,3 C -3,3 C 87 % 1010,5 hPa 0,0 l/m 3,5 km/h (1 Bft) S-SW 198 0 min 0,000 mm 0,0 UV-I 0 W/m -1,7 C 0,2 C 4,8 km/h (1 Bft) 97,87 %
16.01.2019 22:38 0,0 C 3,3 C -3,3 C 88 % 1010,5 hPa 0,0 l/m 3,7 km/h (1 Bft) S-SW 198 0 min 0,000 mm 0,0 UV-I 0 W/m -1,7 C 0,0 C 4,8 km/h (1 Bft) 97,37 %
16.01.2019 22:40 -0,1 C 3,3 C -3,3 C 88 % 1010,6 hPa 0,0 l/m 3,5 km/h (1 Bft) S-SW 198 0 min 0,000 mm 0,0 UV-I 0 W/m -1,8 C -0,1 C 4,8 km/h (1 Bft) 96,00 %
16.01.2019 22:42 0,0 C 3,3 C -3,3 C 89 % 1010,5 hPa 0,0 l/m 3,4 km/h (1 Bft) S-SW 198 0 min 0,000 mm 0,0 UV-I 0 W/m -1,6 C 0,0 C 4,8 km/h (1 Bft) 97,87 %
16.01.2019 22:44 0,0 C 3,3 C -3,3 C 89 % 1010,5 hPa 0,0 l/m 3,8 km/h (1 Bft) S-SW 198 0 min 0,000 mm 0,0 UV-I 0 W/m -1,6 C 0,0 C 4,8 km/h (1 Bft) 98,00 %
16.01.2019 22:46 0,0 C 3,3 C -3,3 C 89 % 1010,6 hPa 0,0 l/m 2,9 km/h (1 Bft) S-SW 198 0 min 0,000 mm 0,0 UV-I 0 W/m -1,6 C 0,0 C 4,8 km/h (1 Bft) 97,87 %
16.01.2019 22:48 0,0 C 3,3 C -3,3 C 88 % 1010,5 hPa 0,0 l/m 2,0 km/h (1 Bft) S-SW 198 0 min 0,000 mm 0,0 UV-I 0 W/m -1,7 C 0,0 C 4,8 km/h (1 Bft) 95,74 %
16.01.2019 22:50 -0,1 C 3,3 C -3,3 C 88 % 1010,5 hPa 0,0 l/m 3,2 km/h (1 Bft) S-SW 198 0 min 0,000 mm 0,0 UV-I 0 W/m -1,8 C -0,1 C 4,8 km/h (1 Bft) 97,87 %
16.01.2019 22:52 -0,1 C 3,3 C -3,3 C 88 % 1010,5 hPa 0,0 l/m 3,5 km/h (1 Bft) S-SW 198 0 min 0,000 mm 0,0 UV-I 0 W/m -1,8 C -0,1 C 4,8 km/h (1 Bft) 97,87 %
16.01.2019 22:54 -0,2 C 3,3 C -3,9 C 88 % 1010,5 hPa 0,0 l/m 4,1 km/h (1 Bft) S-SW 198 0 min 0,000 mm 0,0 UV-I 0 W/m -1,9 C -0,2 C 4,8 km/h (1 Bft) 97,92 %
16.01.2019 22:56 -0,3 C 3,3 C -3,9 C 89 % 1010,4 hPa 0,0 l/m 3,4 km/h (1 Bft) S-SW 198 0 min 0,000 mm 0,0 UV-I 0 W/m -1,9 C -0,3 C 4,8 km/h (1 Bft) 100,00 %
16.01.2019 22:58 -0,4 C 3,3 C -3,9 C 89 % 1010,4 hPa 0,0 l/m 1,2 km/h (1 Bft) S-SW 198 0 min 0,000 mm 0,0 UV-I 0 W/m -2,0 C -0,4 C 3,2 km/h (1 Bft) 95,74 %
16.01.2019 23:00 -0,6 C 3,3 C -3,9 C 89 % 1010,4 hPa 0,0 l/m 0,6 km/h (0 Bft) S-SW 198 0 min 0,000 mm 0,0 UV-I 0 W/m -2,2 C -0,6 C 1,6 km/h (1 Bft) 100,00 %
16.01.2019 23:02 -0,5 C 3,3 C -4,4 C 90 % 1010,3 hPa 0,0 l/m 1,4 km/h (1 Bft) S-SW 199 0 min 0,000 mm 0,0 UV-I 0 W/m -1,9 C -0,5 C 3,2 km/h (1 Bft) 100,00 %
16.01.2019 23:04 -0,4 C 3,3 C -4,4 C 90 % 1010,3 hPa 0,0 l/m 3,2 km/h (1 Bft) S-SW 199 0 min 0,000 mm 0,0 UV-I 0 W/m -1,8 C -0,4 C 4,8 km/h (1 Bft) 100,00 %
16.01.2019 23:06 -0,5 C 3,3 C -4,4 C 89 % 1010,4 hPa 0,0 l/m 2,6 km/h (1 Bft) S-SW 199 0 min 0,000 mm 0,0 UV-I 0 W/m -2,1 C -0,5 C 4,8 km/h (1 Bft) 95,74 %
16.01.2019 23:08 -0,5 C 3,3 C -4,4 C 89 % 1010,3 hPa 0,0 l/m 3,1 km/h (1 Bft) S-SW 199 0 min 0,000 mm 0,0 UV-I 0 W/m -2,1 C -0,5 C 4,8 km/h (1 Bft) 97,87 %
16.01.2019 23:10 -0,6 C 3,3 C -4,4 C 89 % 1010,3 hPa 0,0 l/m 3,6 km/h (1 Bft) S-SW 199 0 min 0,000 mm 0,0 UV-I 0 W/m -2,2 C -0,6 C 4,8 km/h (1 Bft) 100,00 %
16.01.2019 23:12 -0,6 C 3,3 C -5,0 C 89 % 1010,3 hPa 0,0 l/m 1,5 km/h (1 Bft) S-SW 199 0 min 0,000 mm 0,0 UV-I 0 W/m -2,2 C -0,6 C 3,2 km/h (1 Bft) 100,00 %
16.01.2019 23:14 -0,6 C 3,3 C -5,0 C 89 % 1010,3 hPa 0,0 l/m 1,3 km/h (1 Bft) S-SW 199 0 min 0,000 mm 0,0 UV-I 0 W/m -2,2 C -0,6 C 3,2 km/h (1 Bft) 100,00 %
16.01.2019 23:16 -0,7 C 3,3 C -5,0 C 90 % 1010,3 hPa 0,0 l/m 1,1 km/h (1 Bft) S-SW 199 0 min 0,000 mm 0,0 UV-I 0 W/m -2,1 C -0,7 C 1,6 km/h (1 Bft) 95,74 %
16.01.2019 23:18 -0,6 C 3,3 C -5,0 C 90 % 1010,2 hPa 0,0 l/m 1,6 km/h (1 Bft) S-SW 199 0 min 0,000 mm 0,0 UV-I 0 W/m -2,0 C -0,6 C 3,2 km/h (1 Bft) 100,00 %
16.01.2019 23:20 -0,6 C 3,3 C -5,0 C 90 % 1010,2 hPa 0,0 l/m 1,2 km/h (1 Bft) S-SW 199 0 min 0,000 mm 0,0 UV-I 0 W/m -2,0 C -0,6 C 1,6 km/h (1 Bft) 100,00 %
16.01.2019 23:22 -0,6 C 3,3 C -5,6 C 90 % 1010,2 hPa 0,0 l/m 1,3 km/h (1 Bft) S-SW 199 0 min 0,000 mm 0,0 UV-I 0 W/m -2,0 C -0,6 C 1,6 km/h (1 Bft) 100,00 %
16.01.2019 23:24 -0,6 C 3,3 C -5,6 C 90 % 1010,2 hPa 0,0 l/m 1,4 km/h (1 Bft) S-SW 199 0 min 0,000 mm 0,0 UV-I 0 W/m -2,0 C -0,6 C 1,6 km/h (1 Bft) 100,00 %
16.01.2019 23:26 -0,6 C 3,3 C -4,4 C 90 % 1010,2 hPa 0,0 l/m 1,4 km/h (1 Bft) S-SW 199 0 min 0,000 mm 0,0 UV-I 0 W/m -2,0 C -0,6 C 1,6 km/h (1 Bft) 97,44 %
16.01.2019 23:28 -0,6 C 3,3 C -4,4 C 90 % 1010,1 hPa 0,0 l/m 0,7 km/h (0 Bft) S-SW 199 0 min 0,000 mm 0,0 UV-I 0 W/m -2,0 C -0,6 C 1,6 km/h (1 Bft) 100,00 %
16.01.2019 23:30 -0,7 C 3,3 C -5,0 C 90 % 1010,2 hPa 0,0 l/m 0,9 km/h (0 Bft) S-SW 199 0 min 0,000 mm 0,0 UV-I 0 W/m -2,1 C -0,7 C 1,6 km/h (1 Bft) 100,00 %
16.01.2019 23:32 -0,7 C 3,3 C -5,0 C 90 % 1010,1 hPa 0,0 l/m 0,9 km/h (0 Bft) S-SW 199 0 min 0,000 mm 0,0 UV-I 0 W/m -2,1 C -0,7 C 1,6 km/h (1 Bft) 100,00 %
16.01.2019 23:34 -0,8 C 3,3 C -5,0 C 90 % 1010,1 hPa 0,0 l/m 0,0 km/h (0 Bft) S-SW 199 0 min 0,000 mm 0,0 UV-I 0 W/m -2,2 C -0,8 C 0,0 km/h (0 Bft) 100,00 %
16.01.2019 23:36 -0,8 C 3,3 C -5,0 C 90 % 1010,1 hPa 0,0 l/m 0,0 km/h (0 Bft) S-SW 199 0 min 0,000 mm 0,0 UV-I 0 W/m -2,2 C -0,8 C 0,0 km/h (0 Bft) 100,00 %
16.01.2019 23:38 -0,8 C 3,3 C -5,6 C 91 % 1010,1 hPa 0,0 l/m 0,7 km/h (0 Bft) S-SW 199 0 min 0,000 mm 0,0 UV-I 0 W/m -2,1 C -0,8 C 1,6 km/h (1 Bft) 98,08 %
16.01.2019 23:40 -0,8 C 3,3 C -5,6 C 91 % 1010,1 hPa 0,0 l/m 0,0 km/h (0 Bft) S-SW 199 0 min 0,000 mm 0,0 UV-I 0 W/m -2,1 C -0,8 C 1,6 km/h (1 Bft) 97,87 %
16.01.2019 23:42 -0,7 C 3,3 C -5,6 C 91 % 1010,0 hPa 0,0 l/m 0,0 km/h (0 Bft) S-SW 199 0 min 0,000 mm 0,0 UV-I 0 W/m -2,0 C -0,7 C 0,0 km/h (0 Bft) 95,74 %
16.01.2019 23:44 -0,6 C 3,3 C -5,6 C 91 % 1010,0 hPa 0,0 l/m 0,0 km/h (0 Bft) S-SW 199 0 min 0,000 mm 0,0 UV-I 0 W/m -1,9 C -0,6 C 0,0 km/h (0 Bft) 97,87 %
16.01.2019 23:46 -0,7 C 3,3 C -5,0 C 91 % 1009,9 hPa 0,0 l/m 0,0 km/h (0 Bft) S-SW 199 0 min 0,000 mm 0,0 UV-I 0 W/m -2,0 C -0,7 C 0,0 km/h (0 Bft) 97,87 %
16.01.2019 23:48 -0,8 C 3,3 C -5,0 C 90 % 1010,0 hPa 0,0 l/m 0,2 km/h (0 Bft) S-SW 199 0 min 0,000 mm 0,0 UV-I 0 W/m -2,2 C -0,8 C 1,6 km/h (1 Bft) 97,87 %
16.01.2019 23:50 -0,9 C 3,3 C -5,0 C 90 % 1010,0 hPa 0,0 l/m 0,1 km/h (0 Bft) S-SW 199 0 min 0,000 mm 0,0 UV-I 0 W/m -2,3 C -0,9 C 1,6 km/h (1 Bft) 97,87 %
16.01.2019 23:52 -1,1 C 3,3 C -5,6 C 91 % 1009,8 hPa 0,0 l/m 0,5 km/h (0 Bft) S-SW 199 0 min 0,000 mm 0,0 UV-I 0 W/m -2,4 C -1,1 C 1,6 km/h (1 Bft) 98,00 %
16.01.2019 23:54 -1,1 C 3,3 C -5,6 C 91 % 1009,9 hPa 0,0 l/m 0,6 km/h (0 Bft) S-SW 199 0 min 0,000 mm 0,0 UV-I 0 W/m -2,4 C -1,1 C 1,6 km/h (1 Bft) 95,74 %
16.01.2019 23:56 -1,1 C 3,3 C -5,6 C 92 % 1009,9 hPa 0,0 l/m 0,7 km/h (0 Bft) S-SW 199 0 min 0,000 mm 0,0 UV-I 0 W/m -2,2 C -1,1 C 1,6 km/h (1 Bft) 95,74 %
16.01.2019 23:58 -0,9 C 3,3 C -5,6 C 92 % 1009,9 hPa 0,0 l/m 0,2 km/h (0 Bft) S-SW 199 0 min 0,000 mm 0,0 UV-I 0 W/m -2,0 C -0,9 C 1,6 km/h (1 Bft) 97,92 %
_ Min-Zeit 23:52 00:00 23:22 13:34 23:52 - 15:42 - - - - - - 23:52 02:42 15:42 03:10
Minimum _ -1,1 C 3,3 C -5,6 C 64 % 1009,8 hPa - 0,0 km/h (0 Bft) - - - - - - -2,4 C -8,2 C 0,0 km/h (0 Bft) 88,00 %
_ Max-Zeit 14:00 00:00 11:24 23:56 00:00 00:00 02:42 - - 08:02 12:00 11:20 11:20 12:30 14:00 00:48 00:00
Maximum _ 6,2 C 3,3 C 7,8 C 92 % 1017,9 hPa 0,0 l/m 29,4 km/h
SW (5 Bft)
- - 2 min 0,178 mm 0,7 UV-I 384 W/m 0,4 C 6,2 C 53,1 km/h
W-SW (7 Bft)
100,00 %
Durchschnitt _ 3,0 C 3,3 C 1,8 C 77 % 1014,7 hPa #0,0 l/m 11,0 km/h (2 Bft) W-SW - #8:02 h #1,295 mm 0,6 UV-I 196 W/m -0,8 C -1,1 C 17,0 km/h (3 Bft) 96,96 %